<?xml version="1.0" encoding="UTF-8" standalone="no" ?>
<gpx xmlns="http://www.topografix.com/GPX/1/1" xmlns:xsi="http://www.w3.org/2001/XMLSchema-instance" xsi:schemaLocation="http://www.topografix.com/GPX/1/1 http://www.topografix.com/GPX/1/1/gpx.xsd" version="1.1" creator="VisuGPX - https://www.visugpx.com">
  <metadata>
    <name>Pic de Néouvielle</name>
    <desc><![CDATA[Superbe randonnée à ski
le cadre est magnifique !
la descente est tout simplement géniale avec un neige transformée comme il faut, que du bonheur...]]></desc>
  </metadata>
  <trk>
    <name><![CDATA[2018-05-11 16:25:25]]></name>
    <trkseg>
      <trkpt lat="42.82795" lon="0.16958">
        <ele>1869.56</ele>
        <time>2018-05-11T06:03:28Z</time>
      </trkpt>
      <trkpt lat="42.82795" lon="0.16953">
        <ele>1869.34</ele>
        <time>2018-05-11T06:03:45Z</time>
      </trkpt>
      <trkpt lat="42.82795" lon="0.16952">
        <ele>1869.07</ele>
        <time>2018-05-11T06:04:23Z</time>
      </trkpt>
      <trkpt lat="42.82794" lon="0.1695">
        <ele>1869.2</ele>
        <time>2018-05-11T06:04:52Z</time>
      </trkpt>
      <trkpt lat="42.82791" lon="0.16951">
        <ele>1869.42</ele>
        <time>2018-05-11T06:05:31Z</time>
      </trkpt>
      <trkpt lat="42.82791" lon="0.16956">
        <ele>1868.97</ele>
        <time>2018-05-11T06:05:46Z</time>
      </trkpt>
      <trkpt lat="42.82793" lon="0.16955">
        <ele>1869.22</ele>
        <time>2018-05-11T06:06:02Z</time>
      </trkpt>
      <trkpt lat="42.82795" lon="0.16954">
        <ele>1869.06</ele>
        <time>2018-05-11T06:06:31Z</time>
      </trkpt>
      <trkpt lat="42.8279" lon="0.16963">
        <ele>1868.79</ele>
        <time>2018-05-11T06:06:56Z</time>
      </trkpt>
      <trkpt lat="42.82792" lon="0.16961">
        <ele>1869.2</ele>
        <time>2018-05-11T06:07:22Z</time>
      </trkpt>
      <trkpt lat="42.82792" lon="0.16959">
        <ele>1869.53</ele>
        <time>2018-05-11T06:07:44Z</time>
      </trkpt>
      <trkpt lat="42.82794" lon="0.16953">
        <ele>1868.96</ele>
        <time>2018-05-11T06:08:11Z</time>
      </trkpt>
      <trkpt lat="42.82797" lon="0.16952">
        <ele>1868.71</ele>
        <time>2018-05-11T06:08:39Z</time>
      </trkpt>
      <trkpt lat="42.82798" lon="0.16951">
        <ele>1868.74</ele>
        <time>2018-05-11T06:08:57Z</time>
      </trkpt>
      <trkpt lat="42.82797" lon="0.16952">
        <ele>1868.95</ele>
        <time>2018-05-11T06:09:19Z</time>
      </trkpt>
      <trkpt lat="42.82793" lon="0.16953">
        <ele>1868.71</ele>
        <time>2018-05-11T06:09:41Z</time>
      </trkpt>
      <trkpt lat="42.82793" lon="0.16955">
        <ele>1864.93</ele>
        <time>2018-05-11T06:09:43Z</time>
      </trkpt>
      <trkpt lat="42.82793" lon="0.16955">
        <ele>1871.13</ele>
        <time>2018-05-11T06:09:44Z</time>
      </trkpt>
      <trkpt lat="42.82793" lon="0.16955">
        <ele>1866.16</ele>
        <time>2018-05-11T06:09:50Z</time>
      </trkpt>
      <trkpt lat="42.82793" lon="0.16955">
        <ele>1871.25</ele>
        <time>2018-05-11T06:09:52Z</time>
      </trkpt>
      <trkpt lat="42.82793" lon="0.16955">
        <ele>1868.05</ele>
        <time>2018-05-11T06:09:53Z</time>
      </trkpt>
      <trkpt lat="42.82791" lon="0.16957">
        <ele>1869.16</ele>
        <time>2018-05-11T06:10:01Z</time>
      </trkpt>
      <trkpt lat="42.82796" lon="0.16955">
        <ele>1868.37</ele>
        <time>2018-05-11T06:10:23Z</time>
      </trkpt>
      <trkpt lat="42.82796" lon="0.16956">
        <ele>1868.56</ele>
        <time>2018-05-11T06:10:48Z</time>
      </trkpt>
      <trkpt lat="42.82794" lon="0.16955">
        <ele>1868.5</ele>
        <time>2018-05-11T06:11:06Z</time>
      </trkpt>
      <trkpt lat="42.82792" lon="0.16955">
        <ele>1868.57</ele>
        <time>2018-05-11T06:11:33Z</time>
      </trkpt>
      <trkpt lat="42.82792" lon="0.16956">
        <ele>1868.07</ele>
        <time>2018-05-11T06:12:14Z</time>
      </trkpt>
      <trkpt lat="42.82793" lon="0.16957">
        <ele>1868.68</ele>
        <time>2018-05-11T06:13:04Z</time>
      </trkpt>
      <trkpt lat="42.82797" lon="0.16958">
        <ele>1868.82</ele>
        <time>2018-05-11T06:13:10Z</time>
      </trkpt>
      <trkpt lat="42.82815" lon="0.1696">
        <ele>1869.09</ele>
        <time>2018-05-11T06:13:26Z</time>
      </trkpt>
      <trkpt lat="42.82823" lon="0.1696">
        <ele>1869.09</ele>
        <time>2018-05-11T06:13:38Z</time>
      </trkpt>
      <trkpt lat="42.82839" lon="0.16967">
        <ele>1869.57</ele>
        <time>2018-05-11T06:13:52Z</time>
      </trkpt>
      <trkpt lat="42.82842" lon="0.16967">
        <ele>1870.96</ele>
        <time>2018-05-11T06:13:55Z</time>
      </trkpt>
      <trkpt lat="42.82859" lon="0.16961">
        <ele>1870.64</ele>
        <time>2018-05-11T06:14:09Z</time>
      </trkpt>
      <trkpt lat="42.82863" lon="0.16955">
        <ele>1869.91</ele>
        <time>2018-05-11T06:14:14Z</time>
      </trkpt>
      <trkpt lat="42.82867" lon="0.16951">
        <ele>1870.07</ele>
        <time>2018-05-11T06:14:18Z</time>
      </trkpt>
      <trkpt lat="42.8287" lon="0.16947">
        <ele>1870.15</ele>
        <time>2018-05-11T06:14:22Z</time>
      </trkpt>
      <trkpt lat="42.82882" lon="0.16942">
        <ele>1871.9</ele>
        <time>2018-05-11T06:14:36Z</time>
      </trkpt>
      <trkpt lat="42.82886" lon="0.16938">
        <ele>1871.73</ele>
        <time>2018-05-11T06:14:40Z</time>
      </trkpt>
      <trkpt lat="42.82899" lon="0.16934">
        <ele>1872.17</ele>
        <time>2018-05-11T06:14:53Z</time>
      </trkpt>
      <trkpt lat="42.82912" lon="0.16929">
        <ele>1872.81</ele>
        <time>2018-05-11T06:15:05Z</time>
      </trkpt>
      <trkpt lat="42.82913" lon="0.16928">
        <ele>1872.72</ele>
        <time>2018-05-11T06:15:06Z</time>
      </trkpt>
      <trkpt lat="42.82921" lon="0.16927">
        <ele>1872.21</ele>
        <time>2018-05-11T06:15:20Z</time>
      </trkpt>
      <trkpt lat="42.82921" lon="0.16928">
        <ele>1872.54</ele>
        <time>2018-05-11T06:15:22Z</time>
      </trkpt>
      <trkpt lat="42.82917" lon="0.16942">
        <ele>1874.66</ele>
        <time>2018-05-11T06:15:37Z</time>
      </trkpt>
      <trkpt lat="42.82922" lon="0.16949">
        <ele>1877.74</ele>
        <time>2018-05-11T06:15:50Z</time>
      </trkpt>
      <trkpt lat="42.82924" lon="0.16962">
        <ele>1879.74</ele>
        <time>2018-05-11T06:16:03Z</time>
      </trkpt>
      <trkpt lat="42.82926" lon="0.16962">
        <ele>1880.43</ele>
        <time>2018-05-11T06:16:06Z</time>
      </trkpt>
      <trkpt lat="42.82928" lon="0.16961">
        <ele>1881.46</ele>
        <time>2018-05-11T06:16:09Z</time>
      </trkpt>
      <trkpt lat="42.82931" lon="0.1696">
        <ele>1881.38</ele>
        <time>2018-05-11T06:16:12Z</time>
      </trkpt>
      <trkpt lat="42.82944" lon="0.16949">
        <ele>1883.71</ele>
        <time>2018-05-11T06:16:28Z</time>
      </trkpt>
      <trkpt lat="42.82949" lon="0.16946">
        <ele>1884.92</ele>
        <time>2018-05-11T06:16:39Z</time>
      </trkpt>
      <trkpt lat="42.8295" lon="0.16953">
        <ele>1885.92</ele>
        <time>2018-05-11T06:16:45Z</time>
      </trkpt>
      <trkpt lat="42.82948" lon="0.1697">
        <ele>1887.77</ele>
        <time>2018-05-11T06:16:57Z</time>
      </trkpt>
      <trkpt lat="42.82943" lon="0.16988">
        <ele>1889.96</ele>
        <time>2018-05-11T06:17:12Z</time>
      </trkpt>
      <trkpt lat="42.82945" lon="0.16992">
        <ele>1892.39</ele>
        <time>2018-05-11T06:17:25Z</time>
      </trkpt>
      <trkpt lat="42.82949" lon="0.16999">
        <ele>1894.93</ele>
        <time>2018-05-11T06:17:38Z</time>
      </trkpt>
      <trkpt lat="42.82945" lon="0.17011">
        <ele>1897.95</ele>
        <time>2018-05-11T06:17:52Z</time>
      </trkpt>
      <trkpt lat="42.82949" lon="0.1701">
        <ele>1898.03</ele>
        <time>2018-05-11T06:17:58Z</time>
      </trkpt>
      <trkpt lat="42.82954" lon="0.17009">
        <ele>1899.27</ele>
        <time>2018-05-11T06:18:04Z</time>
      </trkpt>
      <trkpt lat="42.82954" lon="0.17014">
        <ele>1900.19</ele>
        <time>2018-05-11T06:18:10Z</time>
      </trkpt>
      <trkpt lat="42.82952" lon="0.17018">
        <ele>1901.02</ele>
        <time>2018-05-11T06:18:15Z</time>
      </trkpt>
      <trkpt lat="42.8295" lon="0.17022">
        <ele>1901.32</ele>
        <time>2018-05-11T06:18:19Z</time>
      </trkpt>
      <trkpt lat="42.82948" lon="0.17029">
        <ele>1904.07</ele>
        <time>2018-05-11T06:18:34Z</time>
      </trkpt>
      <trkpt lat="42.82956" lon="0.17033">
        <ele>1906.36</ele>
        <time>2018-05-11T06:18:51Z</time>
      </trkpt>
      <trkpt lat="42.82954" lon="0.17044">
        <ele>1910.05</ele>
        <time>2018-05-11T06:19:07Z</time>
      </trkpt>
      <trkpt lat="42.82959" lon="0.17051">
        <ele>1913.06</ele>
        <time>2018-05-11T06:19:23Z</time>
      </trkpt>
      <trkpt lat="42.82961" lon="0.17054">
        <ele>1915.35</ele>
        <time>2018-05-11T06:19:38Z</time>
      </trkpt>
      <trkpt lat="42.82964" lon="0.17061">
        <ele>1917.62</ele>
        <time>2018-05-11T06:19:52Z</time>
      </trkpt>
      <trkpt lat="42.8297" lon="0.17061">
        <ele>1920.36</ele>
        <time>2018-05-11T06:20:09Z</time>
      </trkpt>
      <trkpt lat="42.82969" lon="0.17074">
        <ele>1922.46</ele>
        <time>2018-05-11T06:20:29Z</time>
      </trkpt>
      <trkpt lat="42.82966" lon="0.1709">
        <ele>1925.24</ele>
        <time>2018-05-11T06:20:48Z</time>
      </trkpt>
      <trkpt lat="42.82965" lon="0.17103">
        <ele>1928.25</ele>
        <time>2018-05-11T06:21:06Z</time>
      </trkpt>
      <trkpt lat="42.82966" lon="0.17111">
        <ele>1930.41</ele>
        <time>2018-05-11T06:21:21Z</time>
      </trkpt>
      <trkpt lat="42.82968" lon="0.17116">
        <ele>1933</ele>
        <time>2018-05-11T06:21:36Z</time>
      </trkpt>
      <trkpt lat="42.82972" lon="0.17121">
        <ele>1935.33</ele>
        <time>2018-05-11T06:21:53Z</time>
      </trkpt>
      <trkpt lat="42.82974" lon="0.17123">
        <ele>1938.52</ele>
        <time>2018-05-11T06:22:10Z</time>
      </trkpt>
      <trkpt lat="42.82974" lon="0.17138">
        <ele>1941.67</ele>
        <time>2018-05-11T06:22:27Z</time>
      </trkpt>
      <trkpt lat="42.82977" lon="0.17141">
        <ele>1942.31</ele>
        <time>2018-05-11T06:22:32Z</time>
      </trkpt>
      <trkpt lat="42.8298" lon="0.17139">
        <ele>1942.7</ele>
        <time>2018-05-11T06:22:36Z</time>
      </trkpt>
      <trkpt lat="42.82981" lon="0.17138">
        <ele>1942.95</ele>
        <time>2018-05-11T06:22:38Z</time>
      </trkpt>
      <trkpt lat="42.82986" lon="0.17133">
        <ele>1943.34</ele>
        <time>2018-05-11T06:22:44Z</time>
      </trkpt>
      <trkpt lat="42.82988" lon="0.17131">
        <ele>1944.39</ele>
        <time>2018-05-11T06:22:47Z</time>
      </trkpt>
      <trkpt lat="42.82992" lon="0.17128">
        <ele>1944.51</ele>
        <time>2018-05-11T06:22:51Z</time>
      </trkpt>
      <trkpt lat="42.82998" lon="0.17118">
        <ele>1945.93</ele>
        <time>2018-05-11T06:23:02Z</time>
      </trkpt>
      <trkpt lat="42.83002" lon="0.17111">
        <ele>1946.21</ele>
        <time>2018-05-11T06:23:09Z</time>
      </trkpt>
      <trkpt lat="42.83005" lon="0.17108">
        <ele>1946.75</ele>
        <time>2018-05-11T06:23:13Z</time>
      </trkpt>
      <trkpt lat="42.83007" lon="0.17105">
        <ele>1947.13</ele>
        <time>2018-05-11T06:23:16Z</time>
      </trkpt>
      <trkpt lat="42.83009" lon="0.17101">
        <ele>1947.21</ele>
        <time>2018-05-11T06:23:19Z</time>
      </trkpt>
      <trkpt lat="42.83015" lon="0.17091">
        <ele>1948.09</ele>
        <time>2018-05-11T06:23:29Z</time>
      </trkpt>
      <trkpt lat="42.8302" lon="0.17085">
        <ele>1948.94</ele>
        <time>2018-05-11T06:23:35Z</time>
      </trkpt>
      <trkpt lat="42.83026" lon="0.17072">
        <ele>1950.27</ele>
        <time>2018-05-11T06:23:49Z</time>
      </trkpt>
      <trkpt lat="42.83028" lon="0.17059">
        <ele>1951.9</ele>
        <time>2018-05-11T06:24:03Z</time>
      </trkpt>
      <trkpt lat="42.83035" lon="0.17036">
        <ele>1953.93</ele>
        <time>2018-05-11T06:24:21Z</time>
      </trkpt>
      <trkpt lat="42.83039" lon="0.17012">
        <ele>1955.65</ele>
        <time>2018-05-11T06:24:38Z</time>
      </trkpt>
      <trkpt lat="42.83041" lon="0.16999">
        <ele>1956.14</ele>
        <time>2018-05-11T06:24:52Z</time>
      </trkpt>
      <trkpt lat="42.83043" lon="0.16996">
        <ele>1955.86</ele>
        <time>2018-05-11T06:25:17Z</time>
      </trkpt>
      <trkpt lat="42.83046" lon="0.16985">
        <ele>1957.09</ele>
        <time>2018-05-11T06:25:29Z</time>
      </trkpt>
      <trkpt lat="42.83053" lon="0.16966">
        <ele>1958.75</ele>
        <time>2018-05-11T06:25:44Z</time>
      </trkpt>
      <trkpt lat="42.8305" lon="0.16948">
        <ele>1960.05</ele>
        <time>2018-05-11T06:25:59Z</time>
      </trkpt>
      <trkpt lat="42.83051" lon="0.16935">
        <ele>1960.74</ele>
        <time>2018-05-11T06:26:08Z</time>
      </trkpt>
      <trkpt lat="42.83053" lon="0.16931">
        <ele>1960.84</ele>
        <time>2018-05-11T06:26:11Z</time>
      </trkpt>
      <trkpt lat="42.83057" lon="0.1691">
        <ele>1961.78</ele>
        <time>2018-05-11T06:26:24Z</time>
      </trkpt>
      <trkpt lat="42.83059" lon="0.16885">
        <ele>1962.69</ele>
        <time>2018-05-11T06:26:38Z</time>
      </trkpt>
      <trkpt lat="42.83058" lon="0.1688">
        <ele>1962.78</ele>
        <time>2018-05-11T06:26:41Z</time>
      </trkpt>
      <trkpt lat="42.83061" lon="0.16869">
        <ele>1963.61</ele>
        <time>2018-05-11T06:26:47Z</time>
      </trkpt>
      <trkpt lat="42.83062" lon="0.16863">
        <ele>1963.81</ele>
        <time>2018-05-11T06:26:50Z</time>
      </trkpt>
      <trkpt lat="42.83061" lon="0.16841">
        <ele>1964.77</ele>
        <time>2018-05-11T06:27:06Z</time>
      </trkpt>
      <trkpt lat="42.83058" lon="0.16828">
        <ele>1966.42</ele>
        <time>2018-05-11T06:27:19Z</time>
      </trkpt>
      <trkpt lat="42.83058" lon="0.16812">
        <ele>1967.2</ele>
        <time>2018-05-11T06:27:34Z</time>
      </trkpt>
      <trkpt lat="42.83056" lon="0.16784">
        <ele>1968.95</ele>
        <time>2018-05-11T06:27:51Z</time>
      </trkpt>
      <trkpt lat="42.83055" lon="0.1676">
        <ele>1970.5</ele>
        <time>2018-05-11T06:28:06Z</time>
      </trkpt>
      <trkpt lat="42.83054" lon="0.16745">
        <ele>1971.89</ele>
        <time>2018-05-11T06:28:17Z</time>
      </trkpt>
      <trkpt lat="42.83055" lon="0.16725">
        <ele>1973.48</ele>
        <time>2018-05-11T06:28:29Z</time>
      </trkpt>
      <trkpt lat="42.83054" lon="0.16704">
        <ele>1975.7</ele>
        <time>2018-05-11T06:28:43Z</time>
      </trkpt>
      <trkpt lat="42.83054" lon="0.16687">
        <ele>1976.79</ele>
        <time>2018-05-11T06:28:55Z</time>
      </trkpt>
      <trkpt lat="42.83054" lon="0.16667">
        <ele>1978.43</ele>
        <time>2018-05-11T06:29:08Z</time>
      </trkpt>
      <trkpt lat="42.83052" lon="0.16654">
        <ele>1980.13</ele>
        <time>2018-05-11T06:29:19Z</time>
      </trkpt>
      <trkpt lat="42.83052" lon="0.16648">
        <ele>1980.35</ele>
        <time>2018-05-11T06:29:23Z</time>
      </trkpt>
      <trkpt lat="42.83051" lon="0.16627">
        <ele>1982.17</ele>
        <time>2018-05-11T06:29:36Z</time>
      </trkpt>
      <trkpt lat="42.83051" lon="0.16624">
        <ele>1982.37</ele>
        <time>2018-05-11T06:29:38Z</time>
      </trkpt>
      <trkpt lat="42.83051" lon="0.16621">
        <ele>1983.25</ele>
        <time>2018-05-11T06:29:40Z</time>
      </trkpt>
      <trkpt lat="42.8305" lon="0.16613">
        <ele>1984.17</ele>
        <time>2018-05-11T06:29:46Z</time>
      </trkpt>
      <trkpt lat="42.8305" lon="0.16591">
        <ele>1985.26</ele>
        <time>2018-05-11T06:30:00Z</time>
      </trkpt>
      <trkpt lat="42.8305" lon="0.16571">
        <ele>1986.74</ele>
        <time>2018-05-11T06:30:14Z</time>
      </trkpt>
      <trkpt lat="42.83054" lon="0.1655">
        <ele>1989.28</ele>
        <time>2018-05-11T06:30:28Z</time>
      </trkpt>
      <trkpt lat="42.83055" lon="0.16548">
        <ele>1989.57</ele>
        <time>2018-05-11T06:30:30Z</time>
      </trkpt>
      <trkpt lat="42.83056" lon="0.16543">
        <ele>1990.13</ele>
        <time>2018-05-11T06:30:33Z</time>
      </trkpt>
      <trkpt lat="42.8306" lon="0.1653">
        <ele>1991.31</ele>
        <time>2018-05-11T06:30:44Z</time>
      </trkpt>
      <trkpt lat="42.83062" lon="0.16523">
        <ele>1992.12</ele>
        <time>2018-05-11T06:30:49Z</time>
      </trkpt>
      <trkpt lat="42.83065" lon="0.16509">
        <ele>1992.69</ele>
        <time>2018-05-11T06:30:58Z</time>
      </trkpt>
      <trkpt lat="42.83067" lon="0.16505">
        <ele>1994.13</ele>
        <time>2018-05-11T06:31:01Z</time>
      </trkpt>
      <trkpt lat="42.83072" lon="0.16483">
        <ele>1995.63</ele>
        <time>2018-05-11T06:31:17Z</time>
      </trkpt>
      <trkpt lat="42.83072" lon="0.16481">
        <ele>1995.62</ele>
        <time>2018-05-11T06:31:19Z</time>
      </trkpt>
      <trkpt lat="42.83076" lon="0.16468">
        <ele>1997</ele>
        <time>2018-05-11T06:31:29Z</time>
      </trkpt>
      <trkpt lat="42.83079" lon="0.16448">
        <ele>1998.93</ele>
        <time>2018-05-11T06:31:44Z</time>
      </trkpt>
      <trkpt lat="42.83081" lon="0.16441">
        <ele>1999.3</ele>
        <time>2018-05-11T06:31:49Z</time>
      </trkpt>
      <trkpt lat="42.83082" lon="0.16437">
        <ele>2000.27</ele>
        <time>2018-05-11T06:31:52Z</time>
      </trkpt>
      <trkpt lat="42.83083" lon="0.16431">
        <ele>2000.64</ele>
        <time>2018-05-11T06:31:56Z</time>
      </trkpt>
      <trkpt lat="42.8309" lon="0.16413">
        <ele>2002.34</ele>
        <time>2018-05-11T06:32:12Z</time>
      </trkpt>
      <trkpt lat="42.83093" lon="0.16394">
        <ele>2003.82</ele>
        <time>2018-05-11T06:32:26Z</time>
      </trkpt>
      <trkpt lat="42.83096" lon="0.16376">
        <ele>2006.3</ele>
        <time>2018-05-11T06:32:41Z</time>
      </trkpt>
      <trkpt lat="42.83096" lon="0.16373">
        <ele>2006.64</ele>
        <time>2018-05-11T06:32:45Z</time>
      </trkpt>
      <trkpt lat="42.83097" lon="0.16366">
        <ele>2007.28</ele>
        <time>2018-05-11T06:32:50Z</time>
      </trkpt>
      <trkpt lat="42.83098" lon="0.16362">
        <ele>2007.48</ele>
        <time>2018-05-11T06:32:53Z</time>
      </trkpt>
      <trkpt lat="42.831" lon="0.16355">
        <ele>2008.67</ele>
        <time>2018-05-11T06:32:58Z</time>
      </trkpt>
      <trkpt lat="42.83106" lon="0.16336">
        <ele>2010.45</ele>
        <time>2018-05-11T06:33:11Z</time>
      </trkpt>
      <trkpt lat="42.83112" lon="0.16316">
        <ele>2012.24</ele>
        <time>2018-05-11T06:33:26Z</time>
      </trkpt>
      <trkpt lat="42.83116" lon="0.16301">
        <ele>2013.78</ele>
        <time>2018-05-11T06:33:38Z</time>
      </trkpt>
      <trkpt lat="42.83118" lon="0.16295">
        <ele>2014.65</ele>
        <time>2018-05-11T06:33:43Z</time>
      </trkpt>
      <trkpt lat="42.83123" lon="0.16285">
        <ele>2015.63</ele>
        <time>2018-05-11T06:33:52Z</time>
      </trkpt>
      <trkpt lat="42.83125" lon="0.16273">
        <ele>2016.98</ele>
        <time>2018-05-11T06:34:02Z</time>
      </trkpt>
      <trkpt lat="42.83131" lon="0.16254">
        <ele>2019.7</ele>
        <time>2018-05-11T06:34:18Z</time>
      </trkpt>
      <trkpt lat="42.83132" lon="0.16241">
        <ele>2020.42</ele>
        <time>2018-05-11T06:34:27Z</time>
      </trkpt>
      <trkpt lat="42.83139" lon="0.16222">
        <ele>2021.92</ele>
        <time>2018-05-11T06:34:40Z</time>
      </trkpt>
      <trkpt lat="42.83145" lon="0.16206">
        <ele>2023.47</ele>
        <time>2018-05-11T06:34:54Z</time>
      </trkpt>
      <trkpt lat="42.83148" lon="0.16198">
        <ele>2024.11</ele>
        <time>2018-05-11T06:35:01Z</time>
      </trkpt>
      <trkpt lat="42.83154" lon="0.16185">
        <ele>2025.62</ele>
        <time>2018-05-11T06:35:12Z</time>
      </trkpt>
      <trkpt lat="42.83156" lon="0.16176">
        <ele>2026.78</ele>
        <time>2018-05-11T06:35:19Z</time>
      </trkpt>
      <trkpt lat="42.8316" lon="0.16161">
        <ele>2027.98</ele>
        <time>2018-05-11T06:35:29Z</time>
      </trkpt>
      <trkpt lat="42.83168" lon="0.16144">
        <ele>2029.39</ele>
        <time>2018-05-11T06:35:41Z</time>
      </trkpt>
      <trkpt lat="42.83175" lon="0.16124">
        <ele>2031.42</ele>
        <time>2018-05-11T06:35:55Z</time>
      </trkpt>
      <trkpt lat="42.83179" lon="0.16114">
        <ele>2032.75</ele>
        <time>2018-05-11T06:36:04Z</time>
      </trkpt>
      <trkpt lat="42.8318" lon="0.16112">
        <ele>2033.13</ele>
        <time>2018-05-11T06:36:06Z</time>
      </trkpt>
      <trkpt lat="42.83182" lon="0.16107">
        <ele>2033.34</ele>
        <time>2018-05-11T06:36:10Z</time>
      </trkpt>
      <trkpt lat="42.8319" lon="0.16089">
        <ele>2035.91</ele>
        <time>2018-05-11T06:36:24Z</time>
      </trkpt>
      <trkpt lat="42.83198" lon="0.16072">
        <ele>2037.31</ele>
        <time>2018-05-11T06:36:37Z</time>
      </trkpt>
      <trkpt lat="42.83205" lon="0.16055">
        <ele>2038.5</ele>
        <time>2018-05-11T06:36:49Z</time>
      </trkpt>
      <trkpt lat="42.83212" lon="0.16039">
        <ele>2040.26</ele>
        <time>2018-05-11T06:37:02Z</time>
      </trkpt>
      <trkpt lat="42.83213" lon="0.16035">
        <ele>2040.53</ele>
        <time>2018-05-11T06:37:05Z</time>
      </trkpt>
      <trkpt lat="42.83216" lon="0.16029">
        <ele>2040.96</ele>
        <time>2018-05-11T06:37:19Z</time>
      </trkpt>
      <trkpt lat="42.83216" lon="0.16028">
        <ele>2041.36</ele>
        <time>2018-05-11T06:37:25Z</time>
      </trkpt>
      <trkpt lat="42.83217" lon="0.16025">
        <ele>2041.23</ele>
        <time>2018-05-11T06:37:27Z</time>
      </trkpt>
      <trkpt lat="42.83218" lon="0.16005">
        <ele>2042.75</ele>
        <time>2018-05-11T06:37:41Z</time>
      </trkpt>
      <trkpt lat="42.83217" lon="0.15996">
        <ele>2043.59</ele>
        <time>2018-05-11T06:37:47Z</time>
      </trkpt>
      <trkpt lat="42.83213" lon="0.15983">
        <ele>2044.92</ele>
        <time>2018-05-11T06:38:00Z</time>
      </trkpt>
      <trkpt lat="42.83213" lon="0.15981">
        <ele>2044.94</ele>
        <time>2018-05-11T06:38:01Z</time>
      </trkpt>
      <trkpt lat="42.83213" lon="0.15978">
        <ele>2045.5</ele>
        <time>2018-05-11T06:38:04Z</time>
      </trkpt>
      <trkpt lat="42.83212" lon="0.15966">
        <ele>2046.26</ele>
        <time>2018-05-11T06:38:13Z</time>
      </trkpt>
      <trkpt lat="42.83209" lon="0.15946">
        <ele>2047.85</ele>
        <time>2018-05-11T06:38:29Z</time>
      </trkpt>
      <trkpt lat="42.83208" lon="0.15945">
        <ele>2047.97</ele>
        <time>2018-05-11T06:38:30Z</time>
      </trkpt>
      <trkpt lat="42.83208" lon="0.15941">
        <ele>2047.93</ele>
        <time>2018-05-11T06:38:33Z</time>
      </trkpt>
      <trkpt lat="42.8321" lon="0.15936">
        <ele>2047.96</ele>
        <time>2018-05-11T06:38:48Z</time>
      </trkpt>
      <trkpt lat="42.83213" lon="0.15935">
        <ele>2048.05</ele>
        <time>2018-05-11T06:40:06Z</time>
      </trkpt>
      <trkpt lat="42.83212" lon="0.15934">
        <ele>2047.45</ele>
        <time>2018-05-11T06:40:43Z</time>
      </trkpt>
      <trkpt lat="42.8321" lon="0.15934">
        <ele>2048.41</ele>
        <time>2018-05-11T06:41:01Z</time>
      </trkpt>
      <trkpt lat="42.83211" lon="0.15932">
        <ele>2048.17</ele>
        <time>2018-05-11T06:41:29Z</time>
      </trkpt>
      <trkpt lat="42.83211" lon="0.15932">
        <ele>2046.95</ele>
        <time>2018-05-11T06:41:36Z</time>
      </trkpt>
      <trkpt lat="42.83212" lon="0.15934">
        <ele>2048.3</ele>
        <time>2018-05-11T06:42:18Z</time>
      </trkpt>
      <trkpt lat="42.83211" lon="0.15934">
        <ele>2048.28</ele>
        <time>2018-05-11T06:42:44Z</time>
      </trkpt>
      <trkpt lat="42.83211" lon="0.15931">
        <ele>2048.23</ele>
        <time>2018-05-11T06:43:03Z</time>
      </trkpt>
      <trkpt lat="42.83211" lon="0.1593">
        <ele>2048.13</ele>
        <time>2018-05-11T06:43:26Z</time>
      </trkpt>
      <trkpt lat="42.83212" lon="0.15931">
        <ele>2048.46</ele>
        <time>2018-05-11T06:43:46Z</time>
      </trkpt>
      <trkpt lat="42.83211" lon="0.15929">
        <ele>2048.97</ele>
        <time>2018-05-11T06:44:14Z</time>
      </trkpt>
      <trkpt lat="42.83211" lon="0.15927">
        <ele>2048.43</ele>
        <time>2018-05-11T06:44:16Z</time>
      </trkpt>
      <trkpt lat="42.83211" lon="0.15919">
        <ele>2049.26</ele>
        <time>2018-05-11T06:44:23Z</time>
      </trkpt>
      <trkpt lat="42.83212" lon="0.15917">
        <ele>2048.6</ele>
        <time>2018-05-11T06:44:25Z</time>
      </trkpt>
      <trkpt lat="42.83216" lon="0.15911">
        <ele>2050.51</ele>
        <time>2018-05-11T06:44:32Z</time>
      </trkpt>
      <trkpt lat="42.83227" lon="0.15916">
        <ele>2051.06</ele>
        <time>2018-05-11T06:44:45Z</time>
      </trkpt>
      <trkpt lat="42.8323" lon="0.15932">
        <ele>2053</ele>
        <time>2018-05-11T06:44:59Z</time>
      </trkpt>
      <trkpt lat="42.83236" lon="0.15951">
        <ele>2054.36</ele>
        <time>2018-05-11T06:45:16Z</time>
      </trkpt>
      <trkpt lat="42.83242" lon="0.15961">
        <ele>2054.56</ele>
        <time>2018-05-11T06:45:32Z</time>
      </trkpt>
      <trkpt lat="42.83245" lon="0.15967">
        <ele>2054.85</ele>
        <time>2018-05-11T06:45:39Z</time>
      </trkpt>
      <trkpt lat="42.83249" lon="0.15973">
        <ele>2056.21</ele>
        <time>2018-05-11T06:45:45Z</time>
      </trkpt>
      <trkpt lat="42.83261" lon="0.15989">
        <ele>2057.72</ele>
        <time>2018-05-11T06:46:03Z</time>
      </trkpt>
      <trkpt lat="42.83267" lon="0.16005">
        <ele>2058.68</ele>
        <time>2018-05-11T06:46:20Z</time>
      </trkpt>
      <trkpt lat="42.83265" lon="0.16014">
        <ele>2059.87</ele>
        <time>2018-05-11T06:46:34Z</time>
      </trkpt>
      <trkpt lat="42.83266" lon="0.16017">
        <ele>2060.06</ele>
        <time>2018-05-11T06:46:36Z</time>
      </trkpt>
      <trkpt lat="42.83268" lon="0.16029">
        <ele>2060.77</ele>
        <time>2018-05-11T06:46:47Z</time>
      </trkpt>
      <trkpt lat="42.83268" lon="0.16037">
        <ele>2061.18</ele>
        <time>2018-05-11T06:46:52Z</time>
      </trkpt>
      <trkpt lat="42.83267" lon="0.16055">
        <ele>2062.43</ele>
        <time>2018-05-11T06:47:08Z</time>
      </trkpt>
      <trkpt lat="42.83265" lon="0.16057">
        <ele>2062.29</ele>
        <time>2018-05-11T06:47:29Z</time>
      </trkpt>
      <trkpt lat="42.83259" lon="0.16091">
        <ele>2064.69</ele>
        <time>2018-05-11T06:47:48Z</time>
      </trkpt>
      <trkpt lat="42.83253" lon="0.16113">
        <ele>2065.4</ele>
        <time>2018-05-11T06:48:02Z</time>
      </trkpt>
      <trkpt lat="42.83254" lon="0.16125">
        <ele>2067.35</ele>
        <time>2018-05-11T06:48:15Z</time>
      </trkpt>
      <trkpt lat="42.83262" lon="0.16123">
        <ele>2067.51</ele>
        <time>2018-05-11T06:48:26Z</time>
      </trkpt>
      <trkpt lat="42.83265" lon="0.16121">
        <ele>2067.4</ele>
        <time>2018-05-11T06:48:29Z</time>
      </trkpt>
      <trkpt lat="42.83268" lon="0.16118">
        <ele>2067.34</ele>
        <time>2018-05-11T06:48:34Z</time>
      </trkpt>
      <trkpt lat="42.83269" lon="0.16102">
        <ele>2068.1</ele>
        <time>2018-05-11T06:48:47Z</time>
      </trkpt>
      <trkpt lat="42.83269" lon="0.16081">
        <ele>2069.68</ele>
        <time>2018-05-11T06:49:02Z</time>
      </trkpt>
      <trkpt lat="42.8327" lon="0.16064">
        <ele>2070.88</ele>
        <time>2018-05-11T06:49:14Z</time>
      </trkpt>
      <trkpt lat="42.83284" lon="0.1604">
        <ele>2072.05</ele>
        <time>2018-05-11T06:49:31Z</time>
      </trkpt>
      <trkpt lat="42.83288" lon="0.16029">
        <ele>2072.73</ele>
        <time>2018-05-11T06:49:40Z</time>
      </trkpt>
      <trkpt lat="42.83292" lon="0.1602">
        <ele>2072.81</ele>
        <time>2018-05-11T06:49:46Z</time>
      </trkpt>
      <trkpt lat="42.83296" lon="0.16011">
        <ele>2073.69</ele>
        <time>2018-05-11T06:49:52Z</time>
      </trkpt>
      <trkpt lat="42.83299" lon="0.16001">
        <ele>2074.17</ele>
        <time>2018-05-11T06:50:01Z</time>
      </trkpt>
      <trkpt lat="42.83299" lon="0.15999">
        <ele>2074.56</ele>
        <time>2018-05-11T06:50:03Z</time>
      </trkpt>
      <trkpt lat="42.83308" lon="0.15974">
        <ele>2075.5</ele>
        <time>2018-05-11T06:50:20Z</time>
      </trkpt>
      <trkpt lat="42.8331" lon="0.15959">
        <ele>2075.68</ele>
        <time>2018-05-11T06:50:30Z</time>
      </trkpt>
      <trkpt lat="42.83309" lon="0.15949">
        <ele>2076.94</ele>
        <time>2018-05-11T06:50:46Z</time>
      </trkpt>
      <trkpt lat="42.83308" lon="0.15947">
        <ele>2077.24</ele>
        <time>2018-05-11T06:50:50Z</time>
      </trkpt>
      <trkpt lat="42.83307" lon="0.15941">
        <ele>2077.6</ele>
        <time>2018-05-11T06:50:54Z</time>
      </trkpt>
      <trkpt lat="42.83304" lon="0.15914">
        <ele>2079.58</ele>
        <time>2018-05-11T06:51:12Z</time>
      </trkpt>
      <trkpt lat="42.83304" lon="0.15896">
        <ele>2080.37</ele>
        <time>2018-05-11T06:51:26Z</time>
      </trkpt>
      <trkpt lat="42.83306" lon="0.1589">
        <ele>2080.74</ele>
        <time>2018-05-11T06:51:40Z</time>
      </trkpt>
      <trkpt lat="42.83306" lon="0.15889">
        <ele>2080.94</ele>
        <time>2018-05-11T06:52:04Z</time>
      </trkpt>
      <trkpt lat="42.83307" lon="0.15888">
        <ele>2080.56</ele>
        <time>2018-05-11T06:52:37Z</time>
      </trkpt>
      <trkpt lat="42.83307" lon="0.15888">
        <ele>2080.92</ele>
        <time>2018-05-11T06:53:07Z</time>
      </trkpt>
      <trkpt lat="42.83307" lon="0.15888">
        <ele>2080.39</ele>
        <time>2018-05-11T06:53:37Z</time>
      </trkpt>
      <trkpt lat="42.83307" lon="0.15888">
        <ele>2080.17</ele>
        <time>2018-05-11T06:54:20Z</time>
      </trkpt>
      <trkpt lat="42.83307" lon="0.15889">
        <ele>2080.43</ele>
        <time>2018-05-11T06:54:48Z</time>
      </trkpt>
      <trkpt lat="42.83307" lon="0.15889">
        <ele>2080.26</ele>
        <time>2018-05-11T06:55:15Z</time>
      </trkpt>
      <trkpt lat="42.83309" lon="0.15886">
        <ele>2080.49</ele>
        <time>2018-05-11T06:55:51Z</time>
      </trkpt>
      <trkpt lat="42.83315" lon="0.15871">
        <ele>2081.44</ele>
        <time>2018-05-11T06:56:07Z</time>
      </trkpt>
      <trkpt lat="42.83324" lon="0.15856">
        <ele>2082.2</ele>
        <time>2018-05-11T06:56:25Z</time>
      </trkpt>
      <trkpt lat="42.83335" lon="0.15843">
        <ele>2083.16</ele>
        <time>2018-05-11T06:56:42Z</time>
      </trkpt>
      <trkpt lat="42.83344" lon="0.15832">
        <ele>2084.3</ele>
        <time>2018-05-11T06:56:56Z</time>
      </trkpt>
      <trkpt lat="42.83351" lon="0.15819">
        <ele>2085.51</ele>
        <time>2018-05-11T06:57:12Z</time>
      </trkpt>
      <trkpt lat="42.83358" lon="0.15805">
        <ele>2086.51</ele>
        <time>2018-05-11T06:57:28Z</time>
      </trkpt>
      <trkpt lat="42.83365" lon="0.15786">
        <ele>2087.84</ele>
        <time>2018-05-11T06:57:46Z</time>
      </trkpt>
      <trkpt lat="42.8337" lon="0.15768">
        <ele>2088.41</ele>
        <time>2018-05-11T06:58:05Z</time>
      </trkpt>
      <trkpt lat="42.8338" lon="0.15753">
        <ele>2089.87</ele>
        <time>2018-05-11T06:58:21Z</time>
      </trkpt>
      <trkpt lat="42.8338" lon="0.15752">
        <ele>2090.14</ele>
        <time>2018-05-11T06:58:22Z</time>
      </trkpt>
      <trkpt lat="42.83392" lon="0.1575">
        <ele>2091.88</ele>
        <time>2018-05-11T06:58:38Z</time>
      </trkpt>
      <trkpt lat="42.834" lon="0.15762">
        <ele>2093.89</ele>
        <time>2018-05-11T06:58:53Z</time>
      </trkpt>
      <trkpt lat="42.834" lon="0.15763">
        <ele>2093.88</ele>
        <time>2018-05-11T06:58:54Z</time>
      </trkpt>
      <trkpt lat="42.83403" lon="0.15774">
        <ele>2094.49</ele>
        <time>2018-05-11T06:59:04Z</time>
      </trkpt>
      <trkpt lat="42.83401" lon="0.15783">
        <ele>2094.82</ele>
        <time>2018-05-11T06:59:11Z</time>
      </trkpt>
      <trkpt lat="42.83391" lon="0.15805">
        <ele>2095.92</ele>
        <time>2018-05-11T06:59:30Z</time>
      </trkpt>
      <trkpt lat="42.83386" lon="0.1582">
        <ele>2097.02</ele>
        <time>2018-05-11T06:59:44Z</time>
      </trkpt>
      <trkpt lat="42.83378" lon="0.1584">
        <ele>2098.15</ele>
        <time>2018-05-11T07:00:04Z</time>
      </trkpt>
      <trkpt lat="42.83376" lon="0.15859">
        <ele>2099.25</ele>
        <time>2018-05-11T07:00:21Z</time>
      </trkpt>
      <trkpt lat="42.83376" lon="0.15862">
        <ele>2099.07</ele>
        <time>2018-05-11T07:00:23Z</time>
      </trkpt>
      <trkpt lat="42.83375" lon="0.15884">
        <ele>2100.57</ele>
        <time>2018-05-11T07:00:42Z</time>
      </trkpt>
      <trkpt lat="42.83374" lon="0.15904">
        <ele>2101.48</ele>
        <time>2018-05-11T07:00:59Z</time>
      </trkpt>
      <trkpt lat="42.83372" lon="0.15915">
        <ele>2101.43</ele>
        <time>2018-05-11T07:01:07Z</time>
      </trkpt>
      <trkpt lat="42.83371" lon="0.15932">
        <ele>2102.53</ele>
        <time>2018-05-11T07:01:21Z</time>
      </trkpt>
      <trkpt lat="42.83374" lon="0.15944">
        <ele>2103.54</ele>
        <time>2018-05-11T07:01:38Z</time>
      </trkpt>
      <trkpt lat="42.83377" lon="0.15944">
        <ele>2104.75</ele>
        <time>2018-05-11T07:01:43Z</time>
      </trkpt>
      <trkpt lat="42.83386" lon="0.15937">
        <ele>2105.14</ele>
        <time>2018-05-11T07:01:57Z</time>
      </trkpt>
      <trkpt lat="42.83394" lon="0.15919">
        <ele>2106.22</ele>
        <time>2018-05-11T07:02:14Z</time>
      </trkpt>
      <trkpt lat="42.83401" lon="0.15905">
        <ele>2107.32</ele>
        <time>2018-05-11T07:02:29Z</time>
      </trkpt>
      <trkpt lat="42.8341" lon="0.15891">
        <ele>2108.07</ele>
        <time>2018-05-11T07:02:44Z</time>
      </trkpt>
      <trkpt lat="42.83419" lon="0.15875">
        <ele>2109.17</ele>
        <time>2018-05-11T07:03:00Z</time>
      </trkpt>
      <trkpt lat="42.83428" lon="0.15859">
        <ele>2111.18</ele>
        <time>2018-05-11T07:03:18Z</time>
      </trkpt>
      <trkpt lat="42.83436" lon="0.15848">
        <ele>2112.43</ele>
        <time>2018-05-11T07:03:32Z</time>
      </trkpt>
      <trkpt lat="42.83438" lon="0.1584">
        <ele>2112.27</ele>
        <time>2018-05-11T07:03:40Z</time>
      </trkpt>
      <trkpt lat="42.83443" lon="0.15826">
        <ele>2113.66</ele>
        <time>2018-05-11T07:03:53Z</time>
      </trkpt>
      <trkpt lat="42.83449" lon="0.1581">
        <ele>2115.13</ele>
        <time>2018-05-11T07:04:09Z</time>
      </trkpt>
      <trkpt lat="42.83455" lon="0.15794">
        <ele>2115.96</ele>
        <time>2018-05-11T07:04:25Z</time>
      </trkpt>
      <trkpt lat="42.83462" lon="0.15778">
        <ele>2117.41</ele>
        <time>2018-05-11T07:04:41Z</time>
      </trkpt>
      <trkpt lat="42.8347" lon="0.15759">
        <ele>2119.21</ele>
        <time>2018-05-11T07:04:59Z</time>
      </trkpt>
      <trkpt lat="42.83475" lon="0.15745">
        <ele>2120.5</ele>
        <time>2018-05-11T07:05:13Z</time>
      </trkpt>
      <trkpt lat="42.83479" lon="0.1573">
        <ele>2121.49</ele>
        <time>2018-05-11T07:05:26Z</time>
      </trkpt>
      <trkpt lat="42.83488" lon="0.15711">
        <ele>2122.66</ele>
        <time>2018-05-11T07:05:44Z</time>
      </trkpt>
      <trkpt lat="42.83495" lon="0.15696">
        <ele>2124.54</ele>
        <time>2018-05-11T07:06:00Z</time>
      </trkpt>
      <trkpt lat="42.83502" lon="0.1568">
        <ele>2126.18</ele>
        <time>2018-05-11T07:06:17Z</time>
      </trkpt>
      <trkpt lat="42.83505" lon="0.15664">
        <ele>2127.71</ele>
        <time>2018-05-11T07:06:32Z</time>
      </trkpt>
      <trkpt lat="42.83506" lon="0.15655">
        <ele>2128.13</ele>
        <time>2018-05-11T07:06:40Z</time>
      </trkpt>
      <trkpt lat="42.83507" lon="0.15641">
        <ele>2128.76</ele>
        <time>2018-05-11T07:06:56Z</time>
      </trkpt>
      <trkpt lat="42.83505" lon="0.15633">
        <ele>2128.79</ele>
        <time>2018-05-11T07:07:10Z</time>
      </trkpt>
      <trkpt lat="42.83505" lon="0.1562">
        <ele>2130.33</ele>
        <time>2018-05-11T07:07:23Z</time>
      </trkpt>
      <trkpt lat="42.83506" lon="0.15607">
        <ele>2132.12</ele>
        <time>2018-05-11T07:07:34Z</time>
      </trkpt>
      <trkpt lat="42.83505" lon="0.15585">
        <ele>2134.07</ele>
        <time>2018-05-11T07:07:51Z</time>
      </trkpt>
      <trkpt lat="42.83501" lon="0.15567">
        <ele>2135.9</ele>
        <time>2018-05-11T07:08:07Z</time>
      </trkpt>
      <trkpt lat="42.835" lon="0.15562">
        <ele>2136.04</ele>
        <time>2018-05-11T07:08:12Z</time>
      </trkpt>
      <trkpt lat="42.83508" lon="0.15549">
        <ele>2137.83</ele>
        <time>2018-05-11T07:08:28Z</time>
      </trkpt>
      <trkpt lat="42.83513" lon="0.1555">
        <ele>2139.14</ele>
        <time>2018-05-11T07:08:37Z</time>
      </trkpt>
      <trkpt lat="42.83519" lon="0.15565">
        <ele>2139.48</ele>
        <time>2018-05-11T07:08:53Z</time>
      </trkpt>
      <trkpt lat="42.83525" lon="0.15581">
        <ele>2141.1</ele>
        <time>2018-05-11T07:09:07Z</time>
      </trkpt>
      <trkpt lat="42.83529" lon="0.15594">
        <ele>2141.78</ele>
        <time>2018-05-11T07:09:19Z</time>
      </trkpt>
      <trkpt lat="42.83533" lon="0.15612">
        <ele>2143.12</ele>
        <time>2018-05-11T07:09:36Z</time>
      </trkpt>
      <trkpt lat="42.83536" lon="0.15626">
        <ele>2144.17</ele>
        <time>2018-05-11T07:09:51Z</time>
      </trkpt>
      <trkpt lat="42.83535" lon="0.15628">
        <ele>2144.69</ele>
        <time>2018-05-11T07:10:10Z</time>
      </trkpt>
      <trkpt lat="42.83536" lon="0.15637">
        <ele>2144.15</ele>
        <time>2018-05-11T07:10:27Z</time>
      </trkpt>
      <trkpt lat="42.83538" lon="0.15647">
        <ele>2145.62</ele>
        <time>2018-05-11T07:10:40Z</time>
      </trkpt>
      <trkpt lat="42.8354" lon="0.15657">
        <ele>2145.9</ele>
        <time>2018-05-11T07:10:55Z</time>
      </trkpt>
      <trkpt lat="42.8354" lon="0.15658">
        <ele>2145.77</ele>
        <time>2018-05-11T07:10:56Z</time>
      </trkpt>
      <trkpt lat="42.83542" lon="0.15663">
        <ele>2146.77</ele>
        <time>2018-05-11T07:11:00Z</time>
      </trkpt>
      <trkpt lat="42.83543" lon="0.15681">
        <ele>2148.22</ele>
        <time>2018-05-11T07:11:14Z</time>
      </trkpt>
      <trkpt lat="42.83541" lon="0.15688">
        <ele>2148.83</ele>
        <time>2018-05-11T07:11:28Z</time>
      </trkpt>
      <trkpt lat="42.8354" lon="0.15694">
        <ele>2149.13</ele>
        <time>2018-05-11T07:11:53Z</time>
      </trkpt>
      <trkpt lat="42.8354" lon="0.15706">
        <ele>2150.35</ele>
        <time>2018-05-11T07:12:03Z</time>
      </trkpt>
      <trkpt lat="42.8354" lon="0.15713">
        <ele>2151.35</ele>
        <time>2018-05-11T07:12:08Z</time>
      </trkpt>
      <trkpt lat="42.83539" lon="0.15724">
        <ele>2151.74</ele>
        <time>2018-05-11T07:12:16Z</time>
      </trkpt>
      <trkpt lat="42.83539" lon="0.15732">
        <ele>2152.46</ele>
        <time>2018-05-11T07:12:22Z</time>
      </trkpt>
      <trkpt lat="42.83538" lon="0.15754">
        <ele>2153.73</ele>
        <time>2018-05-11T07:12:38Z</time>
      </trkpt>
      <trkpt lat="42.83535" lon="0.15777">
        <ele>2155.42</ele>
        <time>2018-05-11T07:12:55Z</time>
      </trkpt>
      <trkpt lat="42.83531" lon="0.15798">
        <ele>2157.23</ele>
        <time>2018-05-11T07:13:13Z</time>
      </trkpt>
      <trkpt lat="42.83527" lon="0.15816">
        <ele>2158.36</ele>
        <time>2018-05-11T07:13:30Z</time>
      </trkpt>
      <trkpt lat="42.83523" lon="0.15822">
        <ele>2159.12</ele>
        <time>2018-05-11T07:13:46Z</time>
      </trkpt>
      <trkpt lat="42.83519" lon="0.15843">
        <ele>2161.17</ele>
        <time>2018-05-11T07:14:03Z</time>
      </trkpt>
      <trkpt lat="42.83514" lon="0.15861">
        <ele>2162.19</ele>
        <time>2018-05-11T07:14:17Z</time>
      </trkpt>
      <trkpt lat="42.83511" lon="0.1588">
        <ele>2163.02</ele>
        <time>2018-05-11T07:14:34Z</time>
      </trkpt>
      <trkpt lat="42.83508" lon="0.15887">
        <ele>2163.9</ele>
        <time>2018-05-11T07:14:47Z</time>
      </trkpt>
      <trkpt lat="42.83506" lon="0.159">
        <ele>2164.71</ele>
        <time>2018-05-11T07:15:05Z</time>
      </trkpt>
      <trkpt lat="42.83505" lon="0.15917">
        <ele>2166.93</ele>
        <time>2018-05-11T07:15:22Z</time>
      </trkpt>
      <trkpt lat="42.83505" lon="0.15918">
        <ele>2167.18</ele>
        <time>2018-05-11T07:15:26Z</time>
      </trkpt>
      <trkpt lat="42.83506" lon="0.15935">
        <ele>2168.57</ele>
        <time>2018-05-11T07:15:41Z</time>
      </trkpt>
      <trkpt lat="42.83503" lon="0.1595">
        <ele>2170.46</ele>
        <time>2018-05-11T07:15:56Z</time>
      </trkpt>
      <trkpt lat="42.835" lon="0.15965">
        <ele>2170.86</ele>
        <time>2018-05-11T07:16:06Z</time>
      </trkpt>
      <trkpt lat="42.83495" lon="0.15989">
        <ele>2172.89</ele>
        <time>2018-05-11T07:16:24Z</time>
      </trkpt>
      <trkpt lat="42.83491" lon="0.16006">
        <ele>2174.19</ele>
        <time>2018-05-11T07:16:39Z</time>
      </trkpt>
      <trkpt lat="42.83487" lon="0.16026">
        <ele>2175.49</ele>
        <time>2018-05-11T07:16:56Z</time>
      </trkpt>
      <trkpt lat="42.83485" lon="0.16044">
        <ele>2177.26</ele>
        <time>2018-05-11T07:17:12Z</time>
      </trkpt>
      <trkpt lat="42.8349" lon="0.16049">
        <ele>2179.33</ele>
        <time>2018-05-11T07:17:28Z</time>
      </trkpt>
      <trkpt lat="42.83496" lon="0.16038">
        <ele>2179.82</ele>
        <time>2018-05-11T07:17:43Z</time>
      </trkpt>
      <trkpt lat="42.83497" lon="0.16033">
        <ele>2179.93</ele>
        <time>2018-05-11T07:17:48Z</time>
      </trkpt>
      <trkpt lat="42.83507" lon="0.16011">
        <ele>2181.92</ele>
        <time>2018-05-11T07:18:08Z</time>
      </trkpt>
      <trkpt lat="42.8352" lon="0.15993">
        <ele>2183.44</ele>
        <time>2018-05-11T07:18:28Z</time>
      </trkpt>
      <trkpt lat="42.83529" lon="0.15977">
        <ele>2183.86</ele>
        <time>2018-05-11T07:18:44Z</time>
      </trkpt>
      <trkpt lat="42.83539" lon="0.15962">
        <ele>2184.96</ele>
        <time>2018-05-11T07:19:01Z</time>
      </trkpt>
      <trkpt lat="42.83546" lon="0.15943">
        <ele>2186.53</ele>
        <time>2018-05-11T07:19:19Z</time>
      </trkpt>
      <trkpt lat="42.8355" lon="0.15924">
        <ele>2186.75</ele>
        <time>2018-05-11T07:19:34Z</time>
      </trkpt>
      <trkpt lat="42.83555" lon="0.15904">
        <ele>2187.87</ele>
        <time>2018-05-11T07:19:52Z</time>
      </trkpt>
      <trkpt lat="42.83561" lon="0.15884">
        <ele>2189.37</ele>
        <time>2018-05-11T07:20:10Z</time>
      </trkpt>
      <trkpt lat="42.83566" lon="0.15866">
        <ele>2190.75</ele>
        <time>2018-05-11T07:20:26Z</time>
      </trkpt>
      <trkpt lat="42.83572" lon="0.15849">
        <ele>2192.71</ele>
        <time>2018-05-11T07:20:45Z</time>
      </trkpt>
      <trkpt lat="42.83577" lon="0.15832">
        <ele>2192.81</ele>
        <time>2018-05-11T07:21:02Z</time>
      </trkpt>
      <trkpt lat="42.83585" lon="0.15814">
        <ele>2193.89</ele>
        <time>2018-05-11T07:21:20Z</time>
      </trkpt>
      <trkpt lat="42.83593" lon="0.158">
        <ele>2195.52</ele>
        <time>2018-05-11T07:21:38Z</time>
      </trkpt>
      <trkpt lat="42.83595" lon="0.15797">
        <ele>2196.15</ele>
        <time>2018-05-11T07:21:42Z</time>
      </trkpt>
      <trkpt lat="42.83599" lon="0.15791">
        <ele>2196.42</ele>
        <time>2018-05-11T07:21:49Z</time>
      </trkpt>
      <trkpt lat="42.8361" lon="0.15774">
        <ele>2197.71</ele>
        <time>2018-05-11T07:22:07Z</time>
      </trkpt>
      <trkpt lat="42.83622" lon="0.15758">
        <ele>2199.8</ele>
        <time>2018-05-11T07:22:26Z</time>
      </trkpt>
      <trkpt lat="42.83631" lon="0.15748">
        <ele>2201.1</ele>
        <time>2018-05-11T07:22:41Z</time>
      </trkpt>
      <trkpt lat="42.83643" lon="0.15737">
        <ele>2203.26</ele>
        <time>2018-05-11T07:22:59Z</time>
      </trkpt>
      <trkpt lat="42.83651" lon="0.15726">
        <ele>2204.48</ele>
        <time>2018-05-11T07:23:14Z</time>
      </trkpt>
      <trkpt lat="42.83662" lon="0.15718">
        <ele>2205.47</ele>
        <time>2018-05-11T07:23:28Z</time>
      </trkpt>
      <trkpt lat="42.83666" lon="0.15715">
        <ele>2206.23</ele>
        <time>2018-05-11T07:23:42Z</time>
      </trkpt>
      <trkpt lat="42.83668" lon="0.15714">
        <ele>2206.2</ele>
        <time>2018-05-11T07:24:03Z</time>
      </trkpt>
      <trkpt lat="42.83682" lon="0.15705">
        <ele>2206.09</ele>
        <time>2018-05-11T07:24:18Z</time>
      </trkpt>
      <trkpt lat="42.83689" lon="0.15701">
        <ele>2206.13</ele>
        <time>2018-05-11T07:24:25Z</time>
      </trkpt>
      <trkpt lat="42.83704" lon="0.15692">
        <ele>2206.16</ele>
        <time>2018-05-11T07:24:40Z</time>
      </trkpt>
      <trkpt lat="42.83722" lon="0.15686">
        <ele>2205.89</ele>
        <time>2018-05-11T07:24:56Z</time>
      </trkpt>
      <trkpt lat="42.83737" lon="0.15682">
        <ele>2206.19</ele>
        <time>2018-05-11T07:25:09Z</time>
      </trkpt>
      <trkpt lat="42.83757" lon="0.15676">
        <ele>2206.28</ele>
        <time>2018-05-11T07:25:27Z</time>
      </trkpt>
      <trkpt lat="42.83775" lon="0.1567">
        <ele>2205.27</ele>
        <time>2018-05-11T07:25:42Z</time>
      </trkpt>
      <trkpt lat="42.83793" lon="0.15661">
        <ele>2205.27</ele>
        <time>2018-05-11T07:25:58Z</time>
      </trkpt>
      <trkpt lat="42.83807" lon="0.15652">
        <ele>2205.35</ele>
        <time>2018-05-11T07:26:13Z</time>
      </trkpt>
      <trkpt lat="42.83822" lon="0.15642">
        <ele>2205.77</ele>
        <time>2018-05-11T07:26:31Z</time>
      </trkpt>
      <trkpt lat="42.83833" lon="0.15626">
        <ele>2204.71</ele>
        <time>2018-05-11T07:26:47Z</time>
      </trkpt>
      <trkpt lat="42.83842" lon="0.15602">
        <ele>2204.58</ele>
        <time>2018-05-11T07:27:06Z</time>
      </trkpt>
      <trkpt lat="42.83848" lon="0.15581">
        <ele>2204.18</ele>
        <time>2018-05-11T07:27:23Z</time>
      </trkpt>
      <trkpt lat="42.83853" lon="0.15557">
        <ele>2205.48</ele>
        <time>2018-05-11T07:27:43Z</time>
      </trkpt>
      <trkpt lat="42.83857" lon="0.15533">
        <ele>2205.76</ele>
        <time>2018-05-11T07:28:01Z</time>
      </trkpt>
      <trkpt lat="42.8386" lon="0.15516">
        <ele>2205.6</ele>
        <time>2018-05-11T07:28:17Z</time>
      </trkpt>
      <trkpt lat="42.83862" lon="0.15495">
        <ele>2206.42</ele>
        <time>2018-05-11T07:28:35Z</time>
      </trkpt>
      <trkpt lat="42.83863" lon="0.15474">
        <ele>2206.02</ele>
        <time>2018-05-11T07:28:51Z</time>
      </trkpt>
      <trkpt lat="42.83866" lon="0.15447">
        <ele>2205.22</ele>
        <time>2018-05-11T07:29:12Z</time>
      </trkpt>
      <trkpt lat="42.83867" lon="0.15436">
        <ele>2205.68</ele>
        <time>2018-05-11T07:29:20Z</time>
      </trkpt>
      <trkpt lat="42.83868" lon="0.15419">
        <ele>2205.13</ele>
        <time>2018-05-11T07:29:32Z</time>
      </trkpt>
      <trkpt lat="42.83869" lon="0.15413">
        <ele>2205.25</ele>
        <time>2018-05-11T07:29:36Z</time>
      </trkpt>
      <trkpt lat="42.83869" lon="0.15398">
        <ele>2204.47</ele>
        <time>2018-05-11T07:29:47Z</time>
      </trkpt>
      <trkpt lat="42.8387" lon="0.15371">
        <ele>2203.49</ele>
        <time>2018-05-11T07:30:05Z</time>
      </trkpt>
      <trkpt lat="42.83872" lon="0.15348">
        <ele>2203.23</ele>
        <time>2018-05-11T07:30:22Z</time>
      </trkpt>
      <trkpt lat="42.83873" lon="0.1534">
        <ele>2203.12</ele>
        <time>2018-05-11T07:30:28Z</time>
      </trkpt>
      <trkpt lat="42.83874" lon="0.15322">
        <ele>2202.31</ele>
        <time>2018-05-11T07:30:40Z</time>
      </trkpt>
      <trkpt lat="42.83875" lon="0.15297">
        <ele>2202.36</ele>
        <time>2018-05-11T07:30:58Z</time>
      </trkpt>
      <trkpt lat="42.83876" lon="0.15291">
        <ele>2202.6</ele>
        <time>2018-05-11T07:31:03Z</time>
      </trkpt>
      <trkpt lat="42.83876" lon="0.15288">
        <ele>2202.74</ele>
        <time>2018-05-11T07:31:05Z</time>
      </trkpt>
      <trkpt lat="42.83877" lon="0.15264">
        <ele>2202.43</ele>
        <time>2018-05-11T07:31:22Z</time>
      </trkpt>
      <trkpt lat="42.83878" lon="0.15259">
        <ele>2202.26</ele>
        <time>2018-05-11T07:31:26Z</time>
      </trkpt>
      <trkpt lat="42.83878" lon="0.15255">
        <ele>2202.76</ele>
        <time>2018-05-11T07:31:29Z</time>
      </trkpt>
      <trkpt lat="42.8388" lon="0.15249">
        <ele>2202.49</ele>
        <time>2018-05-11T07:31:34Z</time>
      </trkpt>
      <trkpt lat="42.83882" lon="0.15227">
        <ele>2202.73</ele>
        <time>2018-05-11T07:31:51Z</time>
      </trkpt>
      <trkpt lat="42.83884" lon="0.15209">
        <ele>2202.54</ele>
        <time>2018-05-11T07:32:05Z</time>
      </trkpt>
      <trkpt lat="42.83884" lon="0.15208">
        <ele>2202.77</ele>
        <time>2018-05-11T07:32:06Z</time>
      </trkpt>
      <trkpt lat="42.83889" lon="0.15184">
        <ele>2202.56</ele>
        <time>2018-05-11T07:32:24Z</time>
      </trkpt>
      <trkpt lat="42.83895" lon="0.15161">
        <ele>2202.63</ele>
        <time>2018-05-11T07:32:43Z</time>
      </trkpt>
      <trkpt lat="42.83899" lon="0.15137">
        <ele>2202.99</ele>
        <time>2018-05-11T07:33:01Z</time>
      </trkpt>
      <trkpt lat="42.83902" lon="0.15116">
        <ele>2203.38</ele>
        <time>2018-05-11T07:33:16Z</time>
      </trkpt>
      <trkpt lat="42.83906" lon="0.15099">
        <ele>2203.1</ele>
        <time>2018-05-11T07:33:29Z</time>
      </trkpt>
      <trkpt lat="42.8391" lon="0.15079">
        <ele>2202.84</ele>
        <time>2018-05-11T07:33:44Z</time>
      </trkpt>
      <trkpt lat="42.83906" lon="0.15062">
        <ele>2203.6</ele>
        <time>2018-05-11T07:34:00Z</time>
      </trkpt>
      <trkpt lat="42.83906" lon="0.15063">
        <ele>2202.44</ele>
        <time>2018-05-11T07:34:20Z</time>
      </trkpt>
      <trkpt lat="42.83906" lon="0.15062">
        <ele>2201.93</ele>
        <time>2018-05-11T07:34:49Z</time>
      </trkpt>
      <trkpt lat="42.83906" lon="0.15063">
        <ele>2203.12</ele>
        <time>2018-05-11T07:35:17Z</time>
      </trkpt>
      <trkpt lat="42.83907" lon="0.15064">
        <ele>2203.5</ele>
        <time>2018-05-11T07:35:44Z</time>
      </trkpt>
      <trkpt lat="42.83907" lon="0.15059">
        <ele>2204.14</ele>
        <time>2018-05-11T07:36:04Z</time>
      </trkpt>
      <trkpt lat="42.83906" lon="0.15056">
        <ele>2204.24</ele>
        <time>2018-05-11T07:36:10Z</time>
      </trkpt>
      <trkpt lat="42.83905" lon="0.15051">
        <ele>2204</ele>
        <time>2018-05-11T07:36:13Z</time>
      </trkpt>
      <trkpt lat="42.83896" lon="0.15025">
        <ele>2202.41</ele>
        <time>2018-05-11T07:36:31Z</time>
      </trkpt>
      <trkpt lat="42.83888" lon="0.15">
        <ele>2202.52</ele>
        <time>2018-05-11T07:36:50Z</time>
      </trkpt>
      <trkpt lat="42.83887" lon="0.14995">
        <ele>2201.94</ele>
        <time>2018-05-11T07:36:53Z</time>
      </trkpt>
      <trkpt lat="42.83876" lon="0.14969">
        <ele>2201.55</ele>
        <time>2018-05-11T07:37:11Z</time>
      </trkpt>
      <trkpt lat="42.83867" lon="0.14953">
        <ele>2201.5</ele>
        <time>2018-05-11T07:37:25Z</time>
      </trkpt>
      <trkpt lat="42.83858" lon="0.14942">
        <ele>2201.98</ele>
        <time>2018-05-11T07:37:40Z</time>
      </trkpt>
      <trkpt lat="42.83855" lon="0.14937">
        <ele>2201.33</ele>
        <time>2018-05-11T07:37:44Z</time>
      </trkpt>
      <trkpt lat="42.83851" lon="0.14911">
        <ele>2199.61</ele>
        <time>2018-05-11T07:37:59Z</time>
      </trkpt>
      <trkpt lat="42.8385" lon="0.14886">
        <ele>2198.16</ele>
        <time>2018-05-11T07:38:13Z</time>
      </trkpt>
      <trkpt lat="42.8385" lon="0.14858">
        <ele>2197.23</ele>
        <time>2018-05-11T07:38:28Z</time>
      </trkpt>
      <trkpt lat="42.83852" lon="0.14831">
        <ele>2195.6</ele>
        <time>2018-05-11T07:38:43Z</time>
      </trkpt>
      <trkpt lat="42.83852" lon="0.14828">
        <ele>2195.67</ele>
        <time>2018-05-11T07:38:45Z</time>
      </trkpt>
      <trkpt lat="42.83853" lon="0.14802">
        <ele>2194.84</ele>
        <time>2018-05-11T07:39:01Z</time>
      </trkpt>
      <trkpt lat="42.83854" lon="0.1477">
        <ele>2193.25</ele>
        <time>2018-05-11T07:39:18Z</time>
      </trkpt>
      <trkpt lat="42.83857" lon="0.14745">
        <ele>2192.83</ele>
        <time>2018-05-11T07:39:33Z</time>
      </trkpt>
      <trkpt lat="42.83858" lon="0.14728">
        <ele>2191.49</ele>
        <time>2018-05-11T07:39:43Z</time>
      </trkpt>
      <trkpt lat="42.8386" lon="0.14719">
        <ele>2191</ele>
        <time>2018-05-11T07:39:48Z</time>
      </trkpt>
      <trkpt lat="42.83861" lon="0.14715">
        <ele>2191.05</ele>
        <time>2018-05-11T07:39:51Z</time>
      </trkpt>
      <trkpt lat="42.83863" lon="0.14705">
        <ele>2190.83</ele>
        <time>2018-05-11T07:39:57Z</time>
      </trkpt>
      <trkpt lat="42.83873" lon="0.14676">
        <ele>2188.88</ele>
        <time>2018-05-11T07:40:14Z</time>
      </trkpt>
      <trkpt lat="42.83881" lon="0.14652">
        <ele>2187.58</ele>
        <time>2018-05-11T07:40:29Z</time>
      </trkpt>
      <trkpt lat="42.83885" lon="0.14638">
        <ele>2186.94</ele>
        <time>2018-05-11T07:40:39Z</time>
      </trkpt>
      <trkpt lat="42.8389" lon="0.14618">
        <ele>2186.55</ele>
        <time>2018-05-11T07:40:53Z</time>
      </trkpt>
      <trkpt lat="42.83897" lon="0.14599">
        <ele>2187.13</ele>
        <time>2018-05-11T07:41:08Z</time>
      </trkpt>
      <trkpt lat="42.83907" lon="0.14577">
        <ele>2187.75</ele>
        <time>2018-05-11T07:41:25Z</time>
      </trkpt>
      <trkpt lat="42.83915" lon="0.14556">
        <ele>2188.26</ele>
        <time>2018-05-11T07:41:42Z</time>
      </trkpt>
      <trkpt lat="42.83925" lon="0.14532">
        <ele>2187.74</ele>
        <time>2018-05-11T07:42:00Z</time>
      </trkpt>
      <trkpt lat="42.83935" lon="0.14512">
        <ele>2188.01</ele>
        <time>2018-05-11T07:42:17Z</time>
      </trkpt>
      <trkpt lat="42.83936" lon="0.14507">
        <ele>2187.19</ele>
        <time>2018-05-11T07:42:29Z</time>
      </trkpt>
      <trkpt lat="42.83945" lon="0.14487">
        <ele>2185.44</ele>
        <time>2018-05-11T07:42:43Z</time>
      </trkpt>
      <trkpt lat="42.83948" lon="0.14482">
        <ele>2184.47</ele>
        <time>2018-05-11T07:42:46Z</time>
      </trkpt>
      <trkpt lat="42.83952" lon="0.14475">
        <ele>2183.21</ele>
        <time>2018-05-11T07:42:51Z</time>
      </trkpt>
      <trkpt lat="42.83959" lon="0.14455">
        <ele>2181.18</ele>
        <time>2018-05-11T07:43:07Z</time>
      </trkpt>
      <trkpt lat="42.8397" lon="0.14438">
        <ele>2177.99</ele>
        <time>2018-05-11T07:43:19Z</time>
      </trkpt>
      <trkpt lat="42.83972" lon="0.14426">
        <ele>2176.07</ele>
        <time>2018-05-11T07:43:29Z</time>
      </trkpt>
      <trkpt lat="42.83966" lon="0.14416">
        <ele>2174.56</ele>
        <time>2018-05-11T07:43:41Z</time>
      </trkpt>
      <trkpt lat="42.83959" lon="0.14402">
        <ele>2170.62</ele>
        <time>2018-05-11T07:43:53Z</time>
      </trkpt>
      <trkpt lat="42.83958" lon="0.14401">
        <ele>2170.61</ele>
        <time>2018-05-11T07:43:54Z</time>
      </trkpt>
      <trkpt lat="42.83952" lon="0.14391">
        <ele>2167.49</ele>
        <time>2018-05-11T07:44:01Z</time>
      </trkpt>
      <trkpt lat="42.83948" lon="0.14388">
        <ele>2166.04</ele>
        <time>2018-05-11T07:44:05Z</time>
      </trkpt>
      <trkpt lat="42.83941" lon="0.14387">
        <ele>2166.39</ele>
        <time>2018-05-11T07:44:16Z</time>
      </trkpt>
      <trkpt lat="42.83942" lon="0.14377">
        <ele>2163.4</ele>
        <time>2018-05-11T07:44:21Z</time>
      </trkpt>
      <trkpt lat="42.83943" lon="0.14369">
        <ele>2161.53</ele>
        <time>2018-05-11T07:44:28Z</time>
      </trkpt>
      <trkpt lat="42.83942" lon="0.14362">
        <ele>2160.54</ele>
        <time>2018-05-11T07:44:42Z</time>
      </trkpt>
      <trkpt lat="42.83939" lon="0.14362">
        <ele>2159.11</ele>
        <time>2018-05-11T07:44:45Z</time>
      </trkpt>
      <trkpt lat="42.83925" lon="0.14367">
        <ele>2156.32</ele>
        <time>2018-05-11T07:44:59Z</time>
      </trkpt>
      <trkpt lat="42.83924" lon="0.14367">
        <ele>2156.43</ele>
        <time>2018-05-11T07:45:01Z</time>
      </trkpt>
      <trkpt lat="42.83914" lon="0.14362">
        <ele>2154.22</ele>
        <time>2018-05-11T07:45:06Z</time>
      </trkpt>
      <trkpt lat="42.83904" lon="0.1435">
        <ele>2153.5</ele>
        <time>2018-05-11T07:45:19Z</time>
      </trkpt>
      <trkpt lat="42.8389" lon="0.14327">
        <ele>2153.72</ele>
        <time>2018-05-11T07:45:37Z</time>
      </trkpt>
      <trkpt lat="42.83877" lon="0.14305">
        <ele>2153.5</ele>
        <time>2018-05-11T07:45:54Z</time>
      </trkpt>
      <trkpt lat="42.83867" lon="0.14277">
        <ele>2153.07</ele>
        <time>2018-05-11T07:46:13Z</time>
      </trkpt>
      <trkpt lat="42.83862" lon="0.14252">
        <ele>2152.59</ele>
        <time>2018-05-11T07:46:27Z</time>
      </trkpt>
      <trkpt lat="42.83864" lon="0.14236">
        <ele>2151.53</ele>
        <time>2018-05-11T07:46:40Z</time>
      </trkpt>
      <trkpt lat="42.83862" lon="0.14205">
        <ele>2148.38</ele>
        <time>2018-05-11T07:46:56Z</time>
      </trkpt>
      <trkpt lat="42.83861" lon="0.14173">
        <ele>2146.28</ele>
        <time>2018-05-11T07:47:13Z</time>
      </trkpt>
      <trkpt lat="42.83851" lon="0.14148">
        <ele>2146.4</ele>
        <time>2018-05-11T07:47:30Z</time>
      </trkpt>
      <trkpt lat="42.83839" lon="0.14133">
        <ele>2146</ele>
        <time>2018-05-11T07:47:44Z</time>
      </trkpt>
      <trkpt lat="42.83824" lon="0.14122">
        <ele>2146.96</ele>
        <time>2018-05-11T07:48:00Z</time>
      </trkpt>
      <trkpt lat="42.83814" lon="0.14111">
        <ele>2148.62</ele>
        <time>2018-05-11T07:48:14Z</time>
      </trkpt>
      <trkpt lat="42.83799" lon="0.1411">
        <ele>2147.67</ele>
        <time>2018-05-11T07:48:28Z</time>
      </trkpt>
      <trkpt lat="42.83793" lon="0.14108">
        <ele>2147.62</ele>
        <time>2018-05-11T07:48:34Z</time>
      </trkpt>
      <trkpt lat="42.8378" lon="0.1408">
        <ele>2147.05</ele>
        <time>2018-05-11T07:48:54Z</time>
      </trkpt>
      <trkpt lat="42.83765" lon="0.14064">
        <ele>2147.45</ele>
        <time>2018-05-11T07:49:13Z</time>
      </trkpt>
      <trkpt lat="42.83754" lon="0.14059">
        <ele>2149.31</ele>
        <time>2018-05-11T07:49:30Z</time>
      </trkpt>
      <trkpt lat="42.83754" lon="0.14056">
        <ele>2149.92</ele>
        <time>2018-05-11T07:49:58Z</time>
      </trkpt>
      <trkpt lat="42.83759" lon="0.14044">
        <ele>2152.88</ele>
        <time>2018-05-11T07:50:15Z</time>
      </trkpt>
      <trkpt lat="42.83764" lon="0.14031">
        <ele>2156.01</ele>
        <time>2018-05-11T07:50:34Z</time>
      </trkpt>
      <trkpt lat="42.83765" lon="0.14017">
        <ele>2159.13</ele>
        <time>2018-05-11T07:50:53Z</time>
      </trkpt>
      <trkpt lat="42.83765" lon="0.14003">
        <ele>2160.21</ele>
        <time>2018-05-11T07:51:10Z</time>
      </trkpt>
      <trkpt lat="42.83765" lon="0.1399">
        <ele>2163.52</ele>
        <time>2018-05-11T07:51:26Z</time>
      </trkpt>
      <trkpt lat="42.83762" lon="0.13973">
        <ele>2166.03</ele>
        <time>2018-05-11T07:51:48Z</time>
      </trkpt>
      <trkpt lat="42.83757" lon="0.13957">
        <ele>2167.92</ele>
        <time>2018-05-11T07:52:06Z</time>
      </trkpt>
      <trkpt lat="42.83751" lon="0.13943">
        <ele>2170.68</ele>
        <time>2018-05-11T07:52:25Z</time>
      </trkpt>
      <trkpt lat="42.83744" lon="0.13933">
        <ele>2173.44</ele>
        <time>2018-05-11T07:52:43Z</time>
      </trkpt>
      <trkpt lat="42.83734" lon="0.13936">
        <ele>2175.97</ele>
        <time>2018-05-11T07:53:01Z</time>
      </trkpt>
      <trkpt lat="42.83721" lon="0.13944">
        <ele>2178.08</ele>
        <time>2018-05-11T07:53:22Z</time>
      </trkpt>
      <trkpt lat="42.83709" lon="0.1395">
        <ele>2181.26</ele>
        <time>2018-05-11T07:53:43Z</time>
      </trkpt>
      <trkpt lat="42.837" lon="0.13954">
        <ele>2183.43</ele>
        <time>2018-05-11T07:54:01Z</time>
      </trkpt>
      <trkpt lat="42.83691" lon="0.13956">
        <ele>2186.25</ele>
        <time>2018-05-11T07:54:18Z</time>
      </trkpt>
      <trkpt lat="42.83681" lon="0.13956">
        <ele>2188.65</ele>
        <time>2018-05-11T07:54:37Z</time>
      </trkpt>
      <trkpt lat="42.83671" lon="0.1395">
        <ele>2192.02</ele>
        <time>2018-05-11T07:54:56Z</time>
      </trkpt>
      <trkpt lat="42.83662" lon="0.13942">
        <ele>2194.68</ele>
        <time>2018-05-11T07:55:15Z</time>
      </trkpt>
      <trkpt lat="42.83654" lon="0.13934">
        <ele>2197.57</ele>
        <time>2018-05-11T07:55:34Z</time>
      </trkpt>
      <trkpt lat="42.83646" lon="0.13926">
        <ele>2200.75</ele>
        <time>2018-05-11T07:55:54Z</time>
      </trkpt>
      <trkpt lat="42.83639" lon="0.13916">
        <ele>2203.75</ele>
        <time>2018-05-11T07:56:13Z</time>
      </trkpt>
      <trkpt lat="42.83632" lon="0.13905">
        <ele>2206.54</ele>
        <time>2018-05-11T07:56:31Z</time>
      </trkpt>
      <trkpt lat="42.83624" lon="0.13896">
        <ele>2208.82</ele>
        <time>2018-05-11T07:56:49Z</time>
      </trkpt>
      <trkpt lat="42.83617" lon="0.13885">
        <ele>2210.91</ele>
        <time>2018-05-11T07:57:08Z</time>
      </trkpt>
      <trkpt lat="42.83609" lon="0.13875">
        <ele>2212.45</ele>
        <time>2018-05-11T07:57:25Z</time>
      </trkpt>
      <trkpt lat="42.83597" lon="0.13868">
        <ele>2214.87</ele>
        <time>2018-05-11T07:57:45Z</time>
      </trkpt>
      <trkpt lat="42.83588" lon="0.13863">
        <ele>2216.24</ele>
        <time>2018-05-11T07:58:01Z</time>
      </trkpt>
      <trkpt lat="42.83578" lon="0.13853">
        <ele>2218.66</ele>
        <time>2018-05-11T07:58:19Z</time>
      </trkpt>
      <trkpt lat="42.8357" lon="0.13844">
        <ele>2220.72</ele>
        <time>2018-05-11T07:58:36Z</time>
      </trkpt>
      <trkpt lat="42.83563" lon="0.13833">
        <ele>2223.72</ele>
        <time>2018-05-11T07:58:55Z</time>
      </trkpt>
      <trkpt lat="42.83557" lon="0.13821">
        <ele>2226.75</ele>
        <time>2018-05-11T07:59:15Z</time>
      </trkpt>
      <trkpt lat="42.83556" lon="0.13817">
        <ele>2226.81</ele>
        <time>2018-05-11T07:59:34Z</time>
      </trkpt>
      <trkpt lat="42.83556" lon="0.13818">
        <ele>2227.33</ele>
        <time>2018-05-11T08:00:29Z</time>
      </trkpt>
      <trkpt lat="42.83557" lon="0.13817">
        <ele>2227.03</ele>
        <time>2018-05-11T08:01:23Z</time>
      </trkpt>
      <trkpt lat="42.83557" lon="0.13816">
        <ele>2226.31</ele>
        <time>2018-05-11T08:01:47Z</time>
      </trkpt>
      <trkpt lat="42.83556" lon="0.13818">
        <ele>2226.32</ele>
        <time>2018-05-11T08:02:28Z</time>
      </trkpt>
      <trkpt lat="42.83556" lon="0.13819">
        <ele>2226.66</ele>
        <time>2018-05-11T08:03:09Z</time>
      </trkpt>
      <trkpt lat="42.83557" lon="0.13819">
        <ele>2226.96</ele>
        <time>2018-05-11T08:03:41Z</time>
      </trkpt>
      <trkpt lat="42.83557" lon="0.13813">
        <ele>2228.63</ele>
        <time>2018-05-11T08:04:03Z</time>
      </trkpt>
      <trkpt lat="42.83556" lon="0.13811">
        <ele>2228.96</ele>
        <time>2018-05-11T08:04:20Z</time>
      </trkpt>
      <trkpt lat="42.83554" lon="0.13794">
        <ele>2231.84</ele>
        <time>2018-05-11T08:04:39Z</time>
      </trkpt>
      <trkpt lat="42.83555" lon="0.1378">
        <ele>2235.07</ele>
        <time>2018-05-11T08:04:54Z</time>
      </trkpt>
      <trkpt lat="42.83559" lon="0.13763">
        <ele>2238.01</ele>
        <time>2018-05-11T08:05:15Z</time>
      </trkpt>
      <trkpt lat="42.83555" lon="0.13764">
        <ele>2239.7</ele>
        <time>2018-05-11T08:05:29Z</time>
      </trkpt>
      <trkpt lat="42.83546" lon="0.13768">
        <ele>2241.25</ele>
        <time>2018-05-11T08:05:48Z</time>
      </trkpt>
      <trkpt lat="42.83542" lon="0.13772">
        <ele>2242.19</ele>
        <time>2018-05-11T08:06:03Z</time>
      </trkpt>
      <trkpt lat="42.83543" lon="0.13765">
        <ele>2243.69</ele>
        <time>2018-05-11T08:06:16Z</time>
      </trkpt>
      <trkpt lat="42.83547" lon="0.13749">
        <ele>2246.97</ele>
        <time>2018-05-11T08:06:34Z</time>
      </trkpt>
      <trkpt lat="42.8355" lon="0.13736">
        <ele>2249.11</ele>
        <time>2018-05-11T08:06:55Z</time>
      </trkpt>
      <trkpt lat="42.83549" lon="0.13731">
        <ele>2251.3</ele>
        <time>2018-05-11T08:07:13Z</time>
      </trkpt>
      <trkpt lat="42.83539" lon="0.13736">
        <ele>2253.28</ele>
        <time>2018-05-11T08:07:29Z</time>
      </trkpt>
      <trkpt lat="42.83532" lon="0.13741">
        <ele>2255.3</ele>
        <time>2018-05-11T08:07:49Z</time>
      </trkpt>
      <trkpt lat="42.83531" lon="0.1374">
        <ele>2256.93</ele>
        <time>2018-05-11T08:08:05Z</time>
      </trkpt>
      <trkpt lat="42.83532" lon="0.13725">
        <ele>2260.3</ele>
        <time>2018-05-11T08:08:25Z</time>
      </trkpt>
      <trkpt lat="42.83535" lon="0.13708">
        <ele>2263.38</ele>
        <time>2018-05-11T08:08:45Z</time>
      </trkpt>
      <trkpt lat="42.83534" lon="0.13697">
        <ele>2266.38</ele>
        <time>2018-05-11T08:09:02Z</time>
      </trkpt>
      <trkpt lat="42.83528" lon="0.13687">
        <ele>2268.34</ele>
        <time>2018-05-11T08:09:23Z</time>
      </trkpt>
      <trkpt lat="42.83517" lon="0.13677">
        <ele>2270.01</ele>
        <time>2018-05-11T08:09:41Z</time>
      </trkpt>
      <trkpt lat="42.83506" lon="0.13662">
        <ele>2270.19</ele>
        <time>2018-05-11T08:09:59Z</time>
      </trkpt>
      <trkpt lat="42.83498" lon="0.13648">
        <ele>2273.45</ele>
        <time>2018-05-11T08:10:21Z</time>
      </trkpt>
      <trkpt lat="42.83489" lon="0.1364">
        <ele>2276.68</ele>
        <time>2018-05-11T08:10:40Z</time>
      </trkpt>
      <trkpt lat="42.83481" lon="0.13631">
        <ele>2279.16</ele>
        <time>2018-05-11T08:11:00Z</time>
      </trkpt>
      <trkpt lat="42.83481" lon="0.13618">
        <ele>2281.55</ele>
        <time>2018-05-11T08:11:20Z</time>
      </trkpt>
      <trkpt lat="42.83479" lon="0.13608">
        <ele>2284.83</ele>
        <time>2018-05-11T08:11:36Z</time>
      </trkpt>
      <trkpt lat="42.83475" lon="0.13597">
        <ele>2287.38</ele>
        <time>2018-05-11T08:11:57Z</time>
      </trkpt>
      <trkpt lat="42.83469" lon="0.13587">
        <ele>2290.27</ele>
        <time>2018-05-11T08:12:17Z</time>
      </trkpt>
      <trkpt lat="42.83464" lon="0.13578">
        <ele>2293.22</ele>
        <time>2018-05-11T08:12:35Z</time>
      </trkpt>
      <trkpt lat="42.8346" lon="0.13569">
        <ele>2295.98</ele>
        <time>2018-05-11T08:12:54Z</time>
      </trkpt>
      <trkpt lat="42.83459" lon="0.13559">
        <ele>2298.2</ele>
        <time>2018-05-11T08:13:10Z</time>
      </trkpt>
      <trkpt lat="42.83459" lon="0.1355">
        <ele>2300.58</ele>
        <time>2018-05-11T08:13:30Z</time>
      </trkpt>
      <trkpt lat="42.83462" lon="0.13539">
        <ele>2303.11</ele>
        <time>2018-05-11T08:13:47Z</time>
      </trkpt>
      <trkpt lat="42.83466" lon="0.13528">
        <ele>2305.57</ele>
        <time>2018-05-11T08:14:05Z</time>
      </trkpt>
      <trkpt lat="42.83469" lon="0.13518">
        <ele>2307.63</ele>
        <time>2018-05-11T08:14:22Z</time>
      </trkpt>
      <trkpt lat="42.83473" lon="0.13512">
        <ele>2310.31</ele>
        <time>2018-05-11T08:14:42Z</time>
      </trkpt>
      <trkpt lat="42.83477" lon="0.135">
        <ele>2312.22</ele>
        <time>2018-05-11T08:14:59Z</time>
      </trkpt>
      <trkpt lat="42.83483" lon="0.13494">
        <ele>2315.22</ele>
        <time>2018-05-11T08:15:14Z</time>
      </trkpt>
      <trkpt lat="42.83489" lon="0.13489">
        <ele>2316.2</ele>
        <time>2018-05-11T08:15:29Z</time>
      </trkpt>
      <trkpt lat="42.83497" lon="0.13486">
        <ele>2317.52</ele>
        <time>2018-05-11T08:15:45Z</time>
      </trkpt>
      <trkpt lat="42.83504" lon="0.13485">
        <ele>2319.98</ele>
        <time>2018-05-11T08:16:02Z</time>
      </trkpt>
      <trkpt lat="42.83507" lon="0.13484">
        <ele>2320.64</ele>
        <time>2018-05-11T08:16:16Z</time>
      </trkpt>
      <trkpt lat="42.83504" lon="0.13472">
        <ele>2323.77</ele>
        <time>2018-05-11T08:16:33Z</time>
      </trkpt>
      <trkpt lat="42.83498" lon="0.13456">
        <ele>2326.68</ele>
        <time>2018-05-11T08:17:00Z</time>
      </trkpt>
      <trkpt lat="42.83495" lon="0.13445">
        <ele>2329.58</ele>
        <time>2018-05-11T08:17:20Z</time>
      </trkpt>
      <trkpt lat="42.83495" lon="0.13442">
        <ele>2331.35</ele>
        <time>2018-05-11T08:17:36Z</time>
      </trkpt>
      <trkpt lat="42.83506" lon="0.13445">
        <ele>2334.14</ele>
        <time>2018-05-11T08:17:54Z</time>
      </trkpt>
      <trkpt lat="42.83515" lon="0.13446">
        <ele>2335.94</ele>
        <time>2018-05-11T08:18:13Z</time>
      </trkpt>
      <trkpt lat="42.83524" lon="0.13449">
        <ele>2338.78</ele>
        <time>2018-05-11T08:18:33Z</time>
      </trkpt>
      <trkpt lat="42.83535" lon="0.13455">
        <ele>2340.21</ele>
        <time>2018-05-11T08:18:55Z</time>
      </trkpt>
      <trkpt lat="42.83545" lon="0.13457">
        <ele>2342.37</ele>
        <time>2018-05-11T08:19:16Z</time>
      </trkpt>
      <trkpt lat="42.83554" lon="0.13459">
        <ele>2345.38</ele>
        <time>2018-05-11T08:19:37Z</time>
      </trkpt>
      <trkpt lat="42.83561" lon="0.13464">
        <ele>2348.06</ele>
        <time>2018-05-11T08:19:56Z</time>
      </trkpt>
      <trkpt lat="42.83565" lon="0.13468">
        <ele>2349.15</ele>
        <time>2018-05-11T08:20:13Z</time>
      </trkpt>
      <trkpt lat="42.83567" lon="0.1346">
        <ele>2351.21</ele>
        <time>2018-05-11T08:20:27Z</time>
      </trkpt>
      <trkpt lat="42.83568" lon="0.13445">
        <ele>2354.45</ele>
        <time>2018-05-11T08:20:49Z</time>
      </trkpt>
      <trkpt lat="42.83565" lon="0.13434">
        <ele>2356.3</ele>
        <time>2018-05-11T08:21:12Z</time>
      </trkpt>
      <trkpt lat="42.83575" lon="0.13435">
        <ele>2358.75</ele>
        <time>2018-05-11T08:21:29Z</time>
      </trkpt>
      <trkpt lat="42.83585" lon="0.13435">
        <ele>2361.28</ele>
        <time>2018-05-11T08:21:48Z</time>
      </trkpt>
      <trkpt lat="42.83592" lon="0.1343">
        <ele>2363.9</ele>
        <time>2018-05-11T08:22:05Z</time>
      </trkpt>
      <trkpt lat="42.83599" lon="0.13424">
        <ele>2366.06</ele>
        <time>2018-05-11T08:22:23Z</time>
      </trkpt>
      <trkpt lat="42.83605" lon="0.13419">
        <ele>2368.44</ele>
        <time>2018-05-11T08:22:41Z</time>
      </trkpt>
      <trkpt lat="42.83611" lon="0.13418">
        <ele>2370.73</ele>
        <time>2018-05-11T08:22:57Z</time>
      </trkpt>
      <trkpt lat="42.83619" lon="0.13418">
        <ele>2373.09</ele>
        <time>2018-05-11T08:23:14Z</time>
      </trkpt>
      <trkpt lat="42.83626" lon="0.13419">
        <ele>2374.67</ele>
        <time>2018-05-11T08:23:30Z</time>
      </trkpt>
      <trkpt lat="42.83637" lon="0.1342">
        <ele>2377.27</ele>
        <time>2018-05-11T08:23:50Z</time>
      </trkpt>
      <trkpt lat="42.83649" lon="0.13418">
        <ele>2379.46</ele>
        <time>2018-05-11T08:24:11Z</time>
      </trkpt>
      <trkpt lat="42.83659" lon="0.13415">
        <ele>2381.84</ele>
        <time>2018-05-11T08:24:29Z</time>
      </trkpt>
      <trkpt lat="42.83669" lon="0.1341">
        <ele>2384.25</ele>
        <time>2018-05-11T08:24:49Z</time>
      </trkpt>
      <trkpt lat="42.83675" lon="0.13411">
        <ele>2386.06</ele>
        <time>2018-05-11T08:25:09Z</time>
      </trkpt>
      <trkpt lat="42.83686" lon="0.1341">
        <ele>2388.42</ele>
        <time>2018-05-11T08:25:28Z</time>
      </trkpt>
      <trkpt lat="42.83697" lon="0.13408">
        <ele>2390.97</ele>
        <time>2018-05-11T08:25:49Z</time>
      </trkpt>
      <trkpt lat="42.83705" lon="0.13409">
        <ele>2392.34</ele>
        <time>2018-05-11T08:26:07Z</time>
      </trkpt>
      <trkpt lat="42.83715" lon="0.13408">
        <ele>2394.87</ele>
        <time>2018-05-11T08:26:25Z</time>
      </trkpt>
      <trkpt lat="42.83724" lon="0.13403">
        <ele>2396.55</ele>
        <time>2018-05-11T08:26:45Z</time>
      </trkpt>
      <trkpt lat="42.83733" lon="0.13399">
        <ele>2397.8</ele>
        <time>2018-05-11T08:27:03Z</time>
      </trkpt>
      <trkpt lat="42.83744" lon="0.13404">
        <ele>2399.69</ele>
        <time>2018-05-11T08:27:23Z</time>
      </trkpt>
      <trkpt lat="42.83756" lon="0.13408">
        <ele>2402.84</ele>
        <time>2018-05-11T08:27:44Z</time>
      </trkpt>
      <trkpt lat="42.83766" lon="0.13409">
        <ele>2404.93</ele>
        <time>2018-05-11T08:28:02Z</time>
      </trkpt>
      <trkpt lat="42.83775" lon="0.13407">
        <ele>2407.57</ele>
        <time>2018-05-11T08:28:23Z</time>
      </trkpt>
      <trkpt lat="42.83785" lon="0.13403">
        <ele>2410.79</ele>
        <time>2018-05-11T08:28:45Z</time>
      </trkpt>
      <trkpt lat="42.83795" lon="0.13397">
        <ele>2413.83</ele>
        <time>2018-05-11T08:29:07Z</time>
      </trkpt>
      <trkpt lat="42.83801" lon="0.13394">
        <ele>2415.24</ele>
        <time>2018-05-11T08:29:24Z</time>
      </trkpt>
      <trkpt lat="42.83807" lon="0.13392">
        <ele>2416.92</ele>
        <time>2018-05-11T08:29:43Z</time>
      </trkpt>
      <trkpt lat="42.83814" lon="0.13389">
        <ele>2418.29</ele>
        <time>2018-05-11T08:29:59Z</time>
      </trkpt>
      <trkpt lat="42.83824" lon="0.13387">
        <ele>2420.9</ele>
        <time>2018-05-11T08:30:18Z</time>
      </trkpt>
      <trkpt lat="42.8383" lon="0.13388">
        <ele>2423.24</ele>
        <time>2018-05-11T08:30:34Z</time>
      </trkpt>
      <trkpt lat="42.83838" lon="0.1339">
        <ele>2425.31</ele>
        <time>2018-05-11T08:30:50Z</time>
      </trkpt>
      <trkpt lat="42.8385" lon="0.13389">
        <ele>2427.27</ele>
        <time>2018-05-11T08:31:07Z</time>
      </trkpt>
      <trkpt lat="42.83859" lon="0.13387">
        <ele>2427.51</ele>
        <time>2018-05-11T08:31:26Z</time>
      </trkpt>
      <trkpt lat="42.83869" lon="0.13384">
        <ele>2428.96</ele>
        <time>2018-05-11T08:31:43Z</time>
      </trkpt>
      <trkpt lat="42.83883" lon="0.1338">
        <ele>2431.65</ele>
        <time>2018-05-11T08:32:05Z</time>
      </trkpt>
      <trkpt lat="42.83888" lon="0.13379">
        <ele>2432.67</ele>
        <time>2018-05-11T08:32:22Z</time>
      </trkpt>
      <trkpt lat="42.83895" lon="0.1338">
        <ele>2434.82</ele>
        <time>2018-05-11T08:32:39Z</time>
      </trkpt>
      <trkpt lat="42.83901" lon="0.13377">
        <ele>2435.6</ele>
        <time>2018-05-11T08:32:56Z</time>
      </trkpt>
      <trkpt lat="42.83903" lon="0.13376">
        <ele>2435.86</ele>
        <time>2018-05-11T08:32:59Z</time>
      </trkpt>
      <trkpt lat="42.83916" lon="0.1336">
        <ele>2436.91</ele>
        <time>2018-05-11T08:33:17Z</time>
      </trkpt>
      <trkpt lat="42.83919" lon="0.13352">
        <ele>2437.26</ele>
        <time>2018-05-11T08:33:35Z</time>
      </trkpt>
      <trkpt lat="42.83919" lon="0.13352">
        <ele>2437.54</ele>
        <time>2018-05-11T08:34:11Z</time>
      </trkpt>
      <trkpt lat="42.83919" lon="0.13352">
        <ele>2437.12</ele>
        <time>2018-05-11T08:34:45Z</time>
      </trkpt>
      <trkpt lat="42.83918" lon="0.13352">
        <ele>2440.57</ele>
        <time>2018-05-11T08:35:12Z</time>
      </trkpt>
      <trkpt lat="42.83918" lon="0.13352">
        <ele>2440.57</ele>
        <time>2018-05-11T08:35:13Z</time>
      </trkpt>
      <trkpt lat="42.83918" lon="0.13352">
        <ele>2437.29</ele>
        <time>2018-05-11T08:35:17Z</time>
      </trkpt>
      <trkpt lat="42.83918" lon="0.13352">
        <ele>2437.29</ele>
        <time>2018-05-11T08:35:18Z</time>
      </trkpt>
      <trkpt lat="42.83918" lon="0.13352">
        <ele>2437.4</ele>
        <time>2018-05-11T08:35:45Z</time>
      </trkpt>
      <trkpt lat="42.83918" lon="0.13352">
        <ele>2435.98</ele>
        <time>2018-05-11T08:36:19Z</time>
      </trkpt>
      <trkpt lat="42.83918" lon="0.13352">
        <ele>2436.31</ele>
        <time>2018-05-11T08:37:07Z</time>
      </trkpt>
      <trkpt lat="42.83918" lon="0.13351">
        <ele>2436.54</ele>
        <time>2018-05-11T08:38:13Z</time>
      </trkpt>
      <trkpt lat="42.83918" lon="0.13351">
        <ele>2436.9</ele>
        <time>2018-05-11T08:39:18Z</time>
      </trkpt>
      <trkpt lat="42.83918" lon="0.13351">
        <ele>2436.68</ele>
        <time>2018-05-11T08:40:06Z</time>
      </trkpt>
      <trkpt lat="42.83917" lon="0.13352">
        <ele>2437.68</ele>
        <time>2018-05-11T08:40:25Z</time>
      </trkpt>
      <trkpt lat="42.83919" lon="0.13357">
        <ele>2437.97</ele>
        <time>2018-05-11T08:40:47Z</time>
      </trkpt>
      <trkpt lat="42.83917" lon="0.13357">
        <ele>2437.86</ele>
        <time>2018-05-11T08:41:23Z</time>
      </trkpt>
      <trkpt lat="42.83918" lon="0.13355">
        <ele>2437.75</ele>
        <time>2018-05-11T08:41:36Z</time>
      </trkpt>
      <trkpt lat="42.83917" lon="0.13348">
        <ele>2439.7</ele>
        <time>2018-05-11T08:41:53Z</time>
      </trkpt>
      <trkpt lat="42.83914" lon="0.13331">
        <ele>2443</ele>
        <time>2018-05-11T08:42:10Z</time>
      </trkpt>
      <trkpt lat="42.83913" lon="0.13316">
        <ele>2446.13</ele>
        <time>2018-05-11T08:42:30Z</time>
      </trkpt>
      <trkpt lat="42.83913" lon="0.13309">
        <ele>2447.7</ele>
        <time>2018-05-11T08:42:52Z</time>
      </trkpt>
      <trkpt lat="42.83913" lon="0.133">
        <ele>2449.17</ele>
        <time>2018-05-11T08:43:07Z</time>
      </trkpt>
      <trkpt lat="42.83913" lon="0.13285">
        <ele>2452.44</ele>
        <time>2018-05-11T08:43:28Z</time>
      </trkpt>
      <trkpt lat="42.83913" lon="0.13277">
        <ele>2453.67</ele>
        <time>2018-05-11T08:43:52Z</time>
      </trkpt>
      <trkpt lat="42.83912" lon="0.13266">
        <ele>2456.36</ele>
        <time>2018-05-11T08:44:13Z</time>
      </trkpt>
      <trkpt lat="42.83911" lon="0.13261">
        <ele>2457.36</ele>
        <time>2018-05-11T08:44:32Z</time>
      </trkpt>
      <trkpt lat="42.83911" lon="0.13239">
        <ele>2458.03</ele>
        <time>2018-05-11T08:44:51Z</time>
      </trkpt>
      <trkpt lat="42.8391" lon="0.13231">
        <ele>2458.84</ele>
        <time>2018-05-11T08:45:09Z</time>
      </trkpt>
      <trkpt lat="42.83906" lon="0.13222">
        <ele>2460.03</ele>
        <time>2018-05-11T08:45:26Z</time>
      </trkpt>
      <trkpt lat="42.83898" lon="0.13206">
        <ele>2460.79</ele>
        <time>2018-05-11T08:45:46Z</time>
      </trkpt>
      <trkpt lat="42.83891" lon="0.13192">
        <ele>2462.22</ele>
        <time>2018-05-11T08:46:04Z</time>
      </trkpt>
      <trkpt lat="42.83887" lon="0.13183">
        <ele>2463.4</ele>
        <time>2018-05-11T08:46:21Z</time>
      </trkpt>
      <trkpt lat="42.83877" lon="0.13164">
        <ele>2464.2</ele>
        <time>2018-05-11T08:46:44Z</time>
      </trkpt>
      <trkpt lat="42.83871" lon="0.13155">
        <ele>2465.25</ele>
        <time>2018-05-11T08:47:00Z</time>
      </trkpt>
      <trkpt lat="42.83864" lon="0.13143">
        <ele>2465.64</ele>
        <time>2018-05-11T08:47:15Z</time>
      </trkpt>
      <trkpt lat="42.83858" lon="0.13138">
        <ele>2465.84</ele>
        <time>2018-05-11T08:47:29Z</time>
      </trkpt>
      <trkpt lat="42.83858" lon="0.13137">
        <ele>2466.49</ele>
        <time>2018-05-11T08:47:30Z</time>
      </trkpt>
      <trkpt lat="42.83855" lon="0.13131">
        <ele>2466.17</ele>
        <time>2018-05-11T08:47:36Z</time>
      </trkpt>
      <trkpt lat="42.83853" lon="0.13128">
        <ele>2466.07</ele>
        <time>2018-05-11T08:47:39Z</time>
      </trkpt>
      <trkpt lat="42.83842" lon="0.13113">
        <ele>2468.5</ele>
        <time>2018-05-11T08:47:57Z</time>
      </trkpt>
      <trkpt lat="42.83842" lon="0.13092">
        <ele>2469.9</ele>
        <time>2018-05-11T08:48:17Z</time>
      </trkpt>
      <trkpt lat="42.83845" lon="0.13081">
        <ele>2472.6</ele>
        <time>2018-05-11T08:48:33Z</time>
      </trkpt>
      <trkpt lat="42.83851" lon="0.13064">
        <ele>2474.91</ele>
        <time>2018-05-11T08:48:50Z</time>
      </trkpt>
      <trkpt lat="42.83858" lon="0.13045">
        <ele>2476</ele>
        <time>2018-05-11T08:49:09Z</time>
      </trkpt>
      <trkpt lat="42.83862" lon="0.1304">
        <ele>2475.86</ele>
        <time>2018-05-11T08:49:26Z</time>
      </trkpt>
      <trkpt lat="42.83869" lon="0.13034">
        <ele>2478.89</ele>
        <time>2018-05-11T08:49:46Z</time>
      </trkpt>
      <trkpt lat="42.83876" lon="0.13032">
        <ele>2480.53</ele>
        <time>2018-05-11T08:50:04Z</time>
      </trkpt>
      <trkpt lat="42.83883" lon="0.1303">
        <ele>2481.87</ele>
        <time>2018-05-11T08:50:18Z</time>
      </trkpt>
      <trkpt lat="42.83889" lon="0.13023">
        <ele>2484.22</ele>
        <time>2018-05-11T08:50:36Z</time>
      </trkpt>
      <trkpt lat="42.83894" lon="0.1301">
        <ele>2486.78</ele>
        <time>2018-05-11T08:50:57Z</time>
      </trkpt>
      <trkpt lat="42.83897" lon="0.12996">
        <ele>2489.21</ele>
        <time>2018-05-11T08:51:19Z</time>
      </trkpt>
      <trkpt lat="42.83899" lon="0.12983">
        <ele>2490.89</ele>
        <time>2018-05-11T08:51:39Z</time>
      </trkpt>
      <trkpt lat="42.83903" lon="0.12967">
        <ele>2493.4</ele>
        <time>2018-05-11T08:52:00Z</time>
      </trkpt>
      <trkpt lat="42.83909" lon="0.12953">
        <ele>2495.69</ele>
        <time>2018-05-11T08:52:20Z</time>
      </trkpt>
      <trkpt lat="42.83915" lon="0.12941">
        <ele>2497.94</ele>
        <time>2018-05-11T08:52:40Z</time>
      </trkpt>
      <trkpt lat="42.8392" lon="0.12932">
        <ele>2499.98</ele>
        <time>2018-05-11T08:52:59Z</time>
      </trkpt>
      <trkpt lat="42.83924" lon="0.12924">
        <ele>2502.88</ele>
        <time>2018-05-11T08:53:22Z</time>
      </trkpt>
      <trkpt lat="42.83929" lon="0.12912">
        <ele>2505.76</ele>
        <time>2018-05-11T08:53:41Z</time>
      </trkpt>
      <trkpt lat="42.83935" lon="0.12899">
        <ele>2508.49</ele>
        <time>2018-05-11T08:54:01Z</time>
      </trkpt>
      <trkpt lat="42.83938" lon="0.12885">
        <ele>2511.13</ele>
        <time>2018-05-11T08:54:20Z</time>
      </trkpt>
      <trkpt lat="42.83936" lon="0.12877">
        <ele>2513.06</ele>
        <time>2018-05-11T08:54:38Z</time>
      </trkpt>
      <trkpt lat="42.83927" lon="0.12877">
        <ele>2516.12</ele>
        <time>2018-05-11T08:54:58Z</time>
      </trkpt>
      <trkpt lat="42.83923" lon="0.12879">
        <ele>2517.06</ele>
        <time>2018-05-11T08:55:21Z</time>
      </trkpt>
      <trkpt lat="42.83923" lon="0.12872">
        <ele>2519</ele>
        <time>2018-05-11T08:55:37Z</time>
      </trkpt>
      <trkpt lat="42.83925" lon="0.12858">
        <ele>2522.78</ele>
        <time>2018-05-11T08:55:55Z</time>
      </trkpt>
      <trkpt lat="42.83925" lon="0.12857">
        <ele>2523.06</ele>
        <time>2018-05-11T08:55:56Z</time>
      </trkpt>
      <trkpt lat="42.83926" lon="0.12844">
        <ele>2525.03</ele>
        <time>2018-05-11T08:56:16Z</time>
      </trkpt>
      <trkpt lat="42.83924" lon="0.1284">
        <ele>2526.91</ele>
        <time>2018-05-11T08:56:33Z</time>
      </trkpt>
      <trkpt lat="42.83916" lon="0.12842">
        <ele>2529.77</ele>
        <time>2018-05-11T08:56:51Z</time>
      </trkpt>
      <trkpt lat="42.83914" lon="0.1284">
        <ele>2530.73</ele>
        <time>2018-05-11T08:57:12Z</time>
      </trkpt>
      <trkpt lat="42.83915" lon="0.12824">
        <ele>2533.66</ele>
        <time>2018-05-11T08:57:34Z</time>
      </trkpt>
      <trkpt lat="42.83916" lon="0.12813">
        <ele>2535.1</ele>
        <time>2018-05-11T08:57:56Z</time>
      </trkpt>
      <trkpt lat="42.83917" lon="0.12801">
        <ele>2537.55</ele>
        <time>2018-05-11T08:58:15Z</time>
      </trkpt>
      <trkpt lat="42.8392" lon="0.12786">
        <ele>2540.73</ele>
        <time>2018-05-11T08:58:35Z</time>
      </trkpt>
      <trkpt lat="42.83921" lon="0.12776">
        <ele>2542.36</ele>
        <time>2018-05-11T08:58:54Z</time>
      </trkpt>
      <trkpt lat="42.83922" lon="0.12769">
        <ele>2542.88</ele>
        <time>2018-05-11T08:59:26Z</time>
      </trkpt>
      <trkpt lat="42.83921" lon="0.12758">
        <ele>2545.94</ele>
        <time>2018-05-11T08:59:44Z</time>
      </trkpt>
      <trkpt lat="42.83921" lon="0.12745">
        <ele>2548.74</ele>
        <time>2018-05-11T09:00:04Z</time>
      </trkpt>
      <trkpt lat="42.83921" lon="0.12738">
        <ele>2551.39</ele>
        <time>2018-05-11T09:00:29Z</time>
      </trkpt>
      <trkpt lat="42.83921" lon="0.1273">
        <ele>2552.7</ele>
        <time>2018-05-11T09:01:06Z</time>
      </trkpt>
      <trkpt lat="42.83919" lon="0.12716">
        <ele>2556.37</ele>
        <time>2018-05-11T09:01:25Z</time>
      </trkpt>
      <trkpt lat="42.83919" lon="0.12704">
        <ele>2559.63</ele>
        <time>2018-05-11T09:01:46Z</time>
      </trkpt>
      <trkpt lat="42.83919" lon="0.12691">
        <ele>2562.97</ele>
        <time>2018-05-11T09:02:07Z</time>
      </trkpt>
      <trkpt lat="42.8392" lon="0.12681">
        <ele>2565.17</ele>
        <time>2018-05-11T09:02:28Z</time>
      </trkpt>
      <trkpt lat="42.83919" lon="0.12671">
        <ele>2568.06</ele>
        <time>2018-05-11T09:02:53Z</time>
      </trkpt>
      <trkpt lat="42.83921" lon="0.12658">
        <ele>2571.07</ele>
        <time>2018-05-11T09:03:11Z</time>
      </trkpt>
      <trkpt lat="42.83924" lon="0.12648">
        <ele>2573.57</ele>
        <time>2018-05-11T09:03:32Z</time>
      </trkpt>
      <trkpt lat="42.83925" lon="0.12637">
        <ele>2576.1</ele>
        <time>2018-05-11T09:03:57Z</time>
      </trkpt>
      <trkpt lat="42.83926" lon="0.12626">
        <ele>2579.1</ele>
        <time>2018-05-11T09:04:13Z</time>
      </trkpt>
      <trkpt lat="42.83927" lon="0.12622">
        <ele>2580.32</ele>
        <time>2018-05-11T09:04:41Z</time>
      </trkpt>
      <trkpt lat="42.83926" lon="0.12612">
        <ele>2582.81</ele>
        <time>2018-05-11T09:05:16Z</time>
      </trkpt>
      <trkpt lat="42.83927" lon="0.126">
        <ele>2585.82</ele>
        <time>2018-05-11T09:05:37Z</time>
      </trkpt>
      <trkpt lat="42.83928" lon="0.12588">
        <ele>2588.82</ele>
        <time>2018-05-11T09:05:56Z</time>
      </trkpt>
      <trkpt lat="42.8393" lon="0.12574">
        <ele>2592.24</ele>
        <time>2018-05-11T09:06:17Z</time>
      </trkpt>
      <trkpt lat="42.83933" lon="0.12561">
        <ele>2595.21</ele>
        <time>2018-05-11T09:06:38Z</time>
      </trkpt>
      <trkpt lat="42.83935" lon="0.1255">
        <ele>2597.24</ele>
        <time>2018-05-11T09:06:56Z</time>
      </trkpt>
      <trkpt lat="42.83936" lon="0.12536">
        <ele>2599.91</ele>
        <time>2018-05-11T09:07:15Z</time>
      </trkpt>
      <trkpt lat="42.83935" lon="0.12523">
        <ele>2601.35</ele>
        <time>2018-05-11T09:07:32Z</time>
      </trkpt>
      <trkpt lat="42.83935" lon="0.12511">
        <ele>2602.84</ele>
        <time>2018-05-11T09:07:50Z</time>
      </trkpt>
      <trkpt lat="42.83938" lon="0.12499">
        <ele>2603.93</ele>
        <time>2018-05-11T09:08:08Z</time>
      </trkpt>
      <trkpt lat="42.83941" lon="0.12483">
        <ele>2607.15</ele>
        <time>2018-05-11T09:08:29Z</time>
      </trkpt>
      <trkpt lat="42.83946" lon="0.12471">
        <ele>2609.24</ele>
        <time>2018-05-11T09:08:47Z</time>
      </trkpt>
      <trkpt lat="42.8395" lon="0.12464">
        <ele>2611.37</ele>
        <time>2018-05-11T09:09:05Z</time>
      </trkpt>
      <trkpt lat="42.83954" lon="0.12454">
        <ele>2614.54</ele>
        <time>2018-05-11T09:09:22Z</time>
      </trkpt>
      <trkpt lat="42.83958" lon="0.12444">
        <ele>2616.62</ele>
        <time>2018-05-11T09:09:39Z</time>
      </trkpt>
      <trkpt lat="42.83962" lon="0.12435">
        <ele>2618.69</ele>
        <time>2018-05-11T09:09:56Z</time>
      </trkpt>
      <trkpt lat="42.83963" lon="0.12425">
        <ele>2621.56</ele>
        <time>2018-05-11T09:10:15Z</time>
      </trkpt>
      <trkpt lat="42.83964" lon="0.12414">
        <ele>2624.23</ele>
        <time>2018-05-11T09:10:34Z</time>
      </trkpt>
      <trkpt lat="42.83967" lon="0.12404">
        <ele>2626.55</ele>
        <time>2018-05-11T09:10:51Z</time>
      </trkpt>
      <trkpt lat="42.83969" lon="0.12394">
        <ele>2629.38</ele>
        <time>2018-05-11T09:11:11Z</time>
      </trkpt>
      <trkpt lat="42.83971" lon="0.12381">
        <ele>2632.51</ele>
        <time>2018-05-11T09:11:31Z</time>
      </trkpt>
      <trkpt lat="42.83972" lon="0.12377">
        <ele>2632.75</ele>
        <time>2018-05-11T09:11:47Z</time>
      </trkpt>
      <trkpt lat="42.83972" lon="0.12376">
        <ele>2632.18</ele>
        <time>2018-05-11T09:12:01Z</time>
      </trkpt>
      <trkpt lat="42.83973" lon="0.12376">
        <ele>2632.66</ele>
        <time>2018-05-11T09:12:30Z</time>
      </trkpt>
      <trkpt lat="42.83971" lon="0.12377">
        <ele>2632.85</ele>
        <time>2018-05-11T09:12:57Z</time>
      </trkpt>
      <trkpt lat="42.83973" lon="0.12373">
        <ele>2633.54</ele>
        <time>2018-05-11T09:13:23Z</time>
      </trkpt>
      <trkpt lat="42.83976" lon="0.12362">
        <ele>2634.93</ele>
        <time>2018-05-11T09:13:41Z</time>
      </trkpt>
      <trkpt lat="42.83979" lon="0.1235">
        <ele>2637.29</ele>
        <time>2018-05-11T09:14:02Z</time>
      </trkpt>
      <trkpt lat="42.83981" lon="0.12347">
        <ele>2637.22</ele>
        <time>2018-05-11T09:14:23Z</time>
      </trkpt>
      <trkpt lat="42.83983" lon="0.12337">
        <ele>2639.49</ele>
        <time>2018-05-11T09:14:51Z</time>
      </trkpt>
      <trkpt lat="42.83987" lon="0.12321">
        <ele>2642.42</ele>
        <time>2018-05-11T09:15:14Z</time>
      </trkpt>
      <trkpt lat="42.83989" lon="0.12311">
        <ele>2644.57</ele>
        <time>2018-05-11T09:15:32Z</time>
      </trkpt>
      <trkpt lat="42.83992" lon="0.12299">
        <ele>2646.43</ele>
        <time>2018-05-11T09:15:52Z</time>
      </trkpt>
      <trkpt lat="42.83994" lon="0.12289">
        <ele>2647.88</ele>
        <time>2018-05-11T09:16:10Z</time>
      </trkpt>
      <trkpt lat="42.83996" lon="0.1228">
        <ele>2649.01</ele>
        <time>2018-05-11T09:16:28Z</time>
      </trkpt>
      <trkpt lat="42.83997" lon="0.12277">
        <ele>2649.54</ele>
        <time>2018-05-11T09:16:52Z</time>
      </trkpt>
      <trkpt lat="42.83999" lon="0.12265">
        <ele>2651.81</ele>
        <time>2018-05-11T09:17:09Z</time>
      </trkpt>
      <trkpt lat="42.84002" lon="0.12253">
        <ele>2654.61</ele>
        <time>2018-05-11T09:17:26Z</time>
      </trkpt>
      <trkpt lat="42.84007" lon="0.12243">
        <ele>2657.15</ele>
        <time>2018-05-11T09:17:43Z</time>
      </trkpt>
      <trkpt lat="42.84012" lon="0.12231">
        <ele>2659.21</ele>
        <time>2018-05-11T09:18:02Z</time>
      </trkpt>
      <trkpt lat="42.84016" lon="0.12221">
        <ele>2661.65</ele>
        <time>2018-05-11T09:18:20Z</time>
      </trkpt>
      <trkpt lat="42.84021" lon="0.12212">
        <ele>2663.5</ele>
        <time>2018-05-11T09:18:36Z</time>
      </trkpt>
      <trkpt lat="42.84027" lon="0.12197">
        <ele>2665.16</ele>
        <time>2018-05-11T09:18:59Z</time>
      </trkpt>
      <trkpt lat="42.8403" lon="0.12186">
        <ele>2666.5</ele>
        <time>2018-05-11T09:19:15Z</time>
      </trkpt>
      <trkpt lat="42.84035" lon="0.12173">
        <ele>2667.5</ele>
        <time>2018-05-11T09:19:34Z</time>
      </trkpt>
      <trkpt lat="42.84038" lon="0.1216">
        <ele>2670.38</ele>
        <time>2018-05-11T09:19:54Z</time>
      </trkpt>
      <trkpt lat="42.84041" lon="0.1214">
        <ele>2672.05</ele>
        <time>2018-05-11T09:20:21Z</time>
      </trkpt>
      <trkpt lat="42.84043" lon="0.12122">
        <ele>2673.9</ele>
        <time>2018-05-11T09:20:42Z</time>
      </trkpt>
      <trkpt lat="42.84045" lon="0.12108">
        <ele>2675.57</ele>
        <time>2018-05-11T09:21:03Z</time>
      </trkpt>
      <trkpt lat="42.84046" lon="0.12095">
        <ele>2677.76</ele>
        <time>2018-05-11T09:21:22Z</time>
      </trkpt>
      <trkpt lat="42.84045" lon="0.12084">
        <ele>2679.23</ele>
        <time>2018-05-11T09:21:41Z</time>
      </trkpt>
      <trkpt lat="42.84045" lon="0.12083">
        <ele>2679.59</ele>
        <time>2018-05-11T09:22:09Z</time>
      </trkpt>
      <trkpt lat="42.84042" lon="0.12073">
        <ele>2682.07</ele>
        <time>2018-05-11T09:22:45Z</time>
      </trkpt>
      <trkpt lat="42.8404" lon="0.12071">
        <ele>2682.32</ele>
        <time>2018-05-11T09:23:13Z</time>
      </trkpt>
      <trkpt lat="42.8404" lon="0.12072">
        <ele>2682.37</ele>
        <time>2018-05-11T09:24:13Z</time>
      </trkpt>
      <trkpt lat="42.8404" lon="0.12072">
        <ele>2682.52</ele>
        <time>2018-05-11T09:24:54Z</time>
      </trkpt>
      <trkpt lat="42.8404" lon="0.12071">
        <ele>2682.5</ele>
        <time>2018-05-11T09:25:23Z</time>
      </trkpt>
      <trkpt lat="42.84041" lon="0.12069">
        <ele>2682.92</ele>
        <time>2018-05-11T09:26:20Z</time>
      </trkpt>
      <trkpt lat="42.8404" lon="0.12068">
        <ele>2682.83</ele>
        <time>2018-05-11T09:27:08Z</time>
      </trkpt>
      <trkpt lat="42.8404" lon="0.12068">
        <ele>2682.5</ele>
        <time>2018-05-11T09:27:53Z</time>
      </trkpt>
      <trkpt lat="42.8404" lon="0.12068">
        <ele>2682.64</ele>
        <time>2018-05-11T09:28:28Z</time>
      </trkpt>
      <trkpt lat="42.84036" lon="0.12062">
        <ele>2684.78</ele>
        <time>2018-05-11T09:28:53Z</time>
      </trkpt>
      <trkpt lat="42.8403" lon="0.12051">
        <ele>2687.9</ele>
        <time>2018-05-11T09:29:12Z</time>
      </trkpt>
      <trkpt lat="42.84029" lon="0.1204">
        <ele>2690.97</ele>
        <time>2018-05-11T09:29:30Z</time>
      </trkpt>
      <trkpt lat="42.8403" lon="0.12029">
        <ele>2694.02</ele>
        <time>2018-05-11T09:29:45Z</time>
      </trkpt>
      <trkpt lat="42.84028" lon="0.12013">
        <ele>2697.07</ele>
        <time>2018-05-11T09:30:07Z</time>
      </trkpt>
      <trkpt lat="42.84024" lon="0.12001">
        <ele>2700.26</ele>
        <time>2018-05-11T09:30:26Z</time>
      </trkpt>
      <trkpt lat="42.84021" lon="0.11994">
        <ele>2700.74</ele>
        <time>2018-05-11T09:30:45Z</time>
      </trkpt>
      <trkpt lat="42.84015" lon="0.11978">
        <ele>2703.17</ele>
        <time>2018-05-11T09:31:03Z</time>
      </trkpt>
      <trkpt lat="42.84007" lon="0.11957">
        <ele>2706.09</ele>
        <time>2018-05-11T09:31:27Z</time>
      </trkpt>
      <trkpt lat="42.84003" lon="0.1194">
        <ele>2708.11</ele>
        <time>2018-05-11T09:31:46Z</time>
      </trkpt>
      <trkpt lat="42.83998" lon="0.11919">
        <ele>2709.55</ele>
        <time>2018-05-11T09:32:08Z</time>
      </trkpt>
      <trkpt lat="42.83996" lon="0.11904">
        <ele>2712.56</ele>
        <time>2018-05-11T09:32:25Z</time>
      </trkpt>
      <trkpt lat="42.83995" lon="0.1189">
        <ele>2715.38</ele>
        <time>2018-05-11T09:32:47Z</time>
      </trkpt>
      <trkpt lat="42.83994" lon="0.11882">
        <ele>2716.85</ele>
        <time>2018-05-11T09:33:08Z</time>
      </trkpt>
      <trkpt lat="42.83993" lon="0.11869">
        <ele>2720.01</ele>
        <time>2018-05-11T09:33:24Z</time>
      </trkpt>
      <trkpt lat="42.83993" lon="0.11858">
        <ele>2722.09</ele>
        <time>2018-05-11T09:33:47Z</time>
      </trkpt>
      <trkpt lat="42.83992" lon="0.11849">
        <ele>2724.04</ele>
        <time>2018-05-11T09:34:04Z</time>
      </trkpt>
      <trkpt lat="42.83991" lon="0.11836">
        <ele>2726.86</ele>
        <time>2018-05-11T09:34:22Z</time>
      </trkpt>
      <trkpt lat="42.83991" lon="0.11831">
        <ele>2728.29</ele>
        <time>2018-05-11T09:34:45Z</time>
      </trkpt>
      <trkpt lat="42.83992" lon="0.11814">
        <ele>2731.38</ele>
        <time>2018-05-11T09:35:06Z</time>
      </trkpt>
      <trkpt lat="42.83992" lon="0.11796">
        <ele>2734.42</ele>
        <time>2018-05-11T09:35:27Z</time>
      </trkpt>
      <trkpt lat="42.83991" lon="0.11789">
        <ele>2735.43</ele>
        <time>2018-05-11T09:35:53Z</time>
      </trkpt>
      <trkpt lat="42.8399" lon="0.11778">
        <ele>2738.77</ele>
        <time>2018-05-11T09:36:11Z</time>
      </trkpt>
      <trkpt lat="42.83989" lon="0.11767">
        <ele>2741.37</ele>
        <time>2018-05-11T09:36:29Z</time>
      </trkpt>
      <trkpt lat="42.83989" lon="0.11755">
        <ele>2743.57</ele>
        <time>2018-05-11T09:36:48Z</time>
      </trkpt>
      <trkpt lat="42.83988" lon="0.1175">
        <ele>2744.13</ele>
        <time>2018-05-11T09:37:09Z</time>
      </trkpt>
      <trkpt lat="42.83987" lon="0.11739">
        <ele>2746.83</ele>
        <time>2018-05-11T09:37:29Z</time>
      </trkpt>
      <trkpt lat="42.83987" lon="0.11724">
        <ele>2749.92</ele>
        <time>2018-05-11T09:37:47Z</time>
      </trkpt>
      <trkpt lat="42.83987" lon="0.11716">
        <ele>2751.61</ele>
        <time>2018-05-11T09:38:04Z</time>
      </trkpt>
      <trkpt lat="42.83987" lon="0.11702">
        <ele>2754.68</ele>
        <time>2018-05-11T09:38:22Z</time>
      </trkpt>
      <trkpt lat="42.83988" lon="0.1169">
        <ele>2757.43</ele>
        <time>2018-05-11T09:38:42Z</time>
      </trkpt>
      <trkpt lat="42.83989" lon="0.11677">
        <ele>2759.28</ele>
        <time>2018-05-11T09:39:05Z</time>
      </trkpt>
      <trkpt lat="42.83984" lon="0.11675">
        <ele>2761.13</ele>
        <time>2018-05-11T09:39:34Z</time>
      </trkpt>
      <trkpt lat="42.83975" lon="0.11674">
        <ele>2764.86</ele>
        <time>2018-05-11T09:39:51Z</time>
      </trkpt>
      <trkpt lat="42.83973" lon="0.11675">
        <ele>2764.61</ele>
        <time>2018-05-11T09:40:09Z</time>
      </trkpt>
      <trkpt lat="42.83967" lon="0.11676">
        <ele>2766.05</ele>
        <time>2018-05-11T09:40:26Z</time>
      </trkpt>
      <trkpt lat="42.83962" lon="0.11678">
        <ele>2768.37</ele>
        <time>2018-05-11T09:40:43Z</time>
      </trkpt>
      <trkpt lat="42.8396" lon="0.11668">
        <ele>2770.57</ele>
        <time>2018-05-11T09:41:04Z</time>
      </trkpt>
      <trkpt lat="42.83958" lon="0.11653">
        <ele>2773.88</ele>
        <time>2018-05-11T09:41:21Z</time>
      </trkpt>
      <trkpt lat="42.83958" lon="0.11642">
        <ele>2775.31</ele>
        <time>2018-05-11T09:41:35Z</time>
      </trkpt>
      <trkpt lat="42.83959" lon="0.1163">
        <ele>2777.37</ele>
        <time>2018-05-11T09:41:51Z</time>
      </trkpt>
      <trkpt lat="42.83964" lon="0.11617">
        <ele>2780.47</ele>
        <time>2018-05-11T09:42:11Z</time>
      </trkpt>
      <trkpt lat="42.83965" lon="0.11611">
        <ele>2782.27</ele>
        <time>2018-05-11T09:42:28Z</time>
      </trkpt>
      <trkpt lat="42.83957" lon="0.11608">
        <ele>2784.09</ele>
        <time>2018-05-11T09:42:53Z</time>
      </trkpt>
      <trkpt lat="42.83952" lon="0.11606">
        <ele>2786.89</ele>
        <time>2018-05-11T09:43:03Z</time>
      </trkpt>
      <trkpt lat="42.83945" lon="0.11604">
        <ele>2788.81</ele>
        <time>2018-05-11T09:43:25Z</time>
      </trkpt>
      <trkpt lat="42.83935" lon="0.11603">
        <ele>2790.62</ele>
        <time>2018-05-11T09:43:49Z</time>
      </trkpt>
      <trkpt lat="42.83927" lon="0.11602">
        <ele>2793.37</ele>
        <time>2018-05-11T09:44:07Z</time>
      </trkpt>
      <trkpt lat="42.83922" lon="0.11602">
        <ele>2795.17</ele>
        <time>2018-05-11T09:44:26Z</time>
      </trkpt>
      <trkpt lat="42.83921" lon="0.11594">
        <ele>2796.7</ele>
        <time>2018-05-11T09:44:48Z</time>
      </trkpt>
      <trkpt lat="42.83919" lon="0.11586">
        <ele>2799.71</ele>
        <time>2018-05-11T09:45:03Z</time>
      </trkpt>
      <trkpt lat="42.83919" lon="0.11583">
        <ele>2800.47</ele>
        <time>2018-05-11T09:45:20Z</time>
      </trkpt>
      <trkpt lat="42.83918" lon="0.11572">
        <ele>2803.04</ele>
        <time>2018-05-11T09:45:45Z</time>
      </trkpt>
      <trkpt lat="42.83917" lon="0.11563">
        <ele>2806.24</ele>
        <time>2018-05-11T09:46:01Z</time>
      </trkpt>
      <trkpt lat="42.8391" lon="0.1156">
        <ele>2809.12</ele>
        <time>2018-05-11T09:46:18Z</time>
      </trkpt>
      <trkpt lat="42.83906" lon="0.1156">
        <ele>2809.7</ele>
        <time>2018-05-11T09:46:35Z</time>
      </trkpt>
      <trkpt lat="42.83898" lon="0.1156">
        <ele>2811.99</ele>
        <time>2018-05-11T09:46:58Z</time>
      </trkpt>
      <trkpt lat="42.83892" lon="0.11553">
        <ele>2814.31</ele>
        <time>2018-05-11T09:47:15Z</time>
      </trkpt>
      <trkpt lat="42.83892" lon="0.11554">
        <ele>2814.62</ele>
        <time>2018-05-11T09:47:38Z</time>
      </trkpt>
      <trkpt lat="42.8389" lon="0.11543">
        <ele>2816.87</ele>
        <time>2018-05-11T09:48:13Z</time>
      </trkpt>
      <trkpt lat="42.8389" lon="0.11527">
        <ele>2819.52</ele>
        <time>2018-05-11T09:48:31Z</time>
      </trkpt>
      <trkpt lat="42.83891" lon="0.11517">
        <ele>2822.55</ele>
        <time>2018-05-11T09:48:46Z</time>
      </trkpt>
      <trkpt lat="42.83892" lon="0.11514">
        <ele>2822.23</ele>
        <time>2018-05-11T09:49:07Z</time>
      </trkpt>
      <trkpt lat="42.83883" lon="0.11515">
        <ele>2825.37</ele>
        <time>2018-05-11T09:49:23Z</time>
      </trkpt>
      <trkpt lat="42.83871" lon="0.11517">
        <ele>2829.03</ele>
        <time>2018-05-11T09:49:42Z</time>
      </trkpt>
      <trkpt lat="42.83865" lon="0.1152">
        <ele>2830.11</ele>
        <time>2018-05-11T09:50:01Z</time>
      </trkpt>
      <trkpt lat="42.83857" lon="0.11524">
        <ele>2832.27</ele>
        <time>2018-05-11T09:50:23Z</time>
      </trkpt>
      <trkpt lat="42.8386" lon="0.11515">
        <ele>2832.75</ele>
        <time>2018-05-11T09:50:44Z</time>
      </trkpt>
      <trkpt lat="42.83863" lon="0.11507">
        <ele>2833.58</ele>
        <time>2018-05-11T09:50:54Z</time>
      </trkpt>
      <trkpt lat="42.83872" lon="0.11491">
        <ele>2835.5</ele>
        <time>2018-05-11T09:51:13Z</time>
      </trkpt>
      <trkpt lat="42.83881" lon="0.11479">
        <ele>2837.5</ele>
        <time>2018-05-11T09:51:32Z</time>
      </trkpt>
      <trkpt lat="42.83879" lon="0.11479">
        <ele>2838.61</ele>
        <time>2018-05-11T09:51:48Z</time>
      </trkpt>
      <trkpt lat="42.83864" lon="0.11485">
        <ele>2840.8</ele>
        <time>2018-05-11T09:52:09Z</time>
      </trkpt>
      <trkpt lat="42.83855" lon="0.11488">
        <ele>2842.52</ele>
        <time>2018-05-11T09:52:27Z</time>
      </trkpt>
      <trkpt lat="42.83854" lon="0.11487">
        <ele>2842.06</ele>
        <time>2018-05-11T09:52:46Z</time>
      </trkpt>
      <trkpt lat="42.8386" lon="0.11475">
        <ele>2844.17</ele>
        <time>2018-05-11T09:53:01Z</time>
      </trkpt>
      <trkpt lat="42.83869" lon="0.11463">
        <ele>2846.22</ele>
        <time>2018-05-11T09:53:19Z</time>
      </trkpt>
      <trkpt lat="42.8387" lon="0.1146">
        <ele>2848.21</ele>
        <time>2018-05-11T09:53:37Z</time>
      </trkpt>
      <trkpt lat="42.83855" lon="0.1146">
        <ele>2850.27</ele>
        <time>2018-05-11T09:54:00Z</time>
      </trkpt>
      <trkpt lat="42.83848" lon="0.11461">
        <ele>2851.11</ele>
        <time>2018-05-11T09:54:09Z</time>
      </trkpt>
      <trkpt lat="42.8384" lon="0.11464">
        <ele>2852.04</ele>
        <time>2018-05-11T09:54:26Z</time>
      </trkpt>
      <trkpt lat="42.83835" lon="0.11465">
        <ele>2853.69</ele>
        <time>2018-05-11T09:54:42Z</time>
      </trkpt>
      <trkpt lat="42.83835" lon="0.11462">
        <ele>2854.79</ele>
        <time>2018-05-11T09:54:59Z</time>
      </trkpt>
      <trkpt lat="42.83839" lon="0.11447">
        <ele>2857</ele>
        <time>2018-05-11T09:55:17Z</time>
      </trkpt>
      <trkpt lat="42.83841" lon="0.11437">
        <ele>2859.44</ele>
        <time>2018-05-11T09:55:36Z</time>
      </trkpt>
      <trkpt lat="42.83842" lon="0.11433">
        <ele>2860.08</ele>
        <time>2018-05-11T09:56:05Z</time>
      </trkpt>
      <trkpt lat="42.83842" lon="0.11429">
        <ele>2862.23</ele>
        <time>2018-05-11T09:56:24Z</time>
      </trkpt>
      <trkpt lat="42.83828" lon="0.11432">
        <ele>2864.28</ele>
        <time>2018-05-11T09:56:42Z</time>
      </trkpt>
      <trkpt lat="42.83824" lon="0.11433">
        <ele>2865.78</ele>
        <time>2018-05-11T09:57:00Z</time>
      </trkpt>
      <trkpt lat="42.83827" lon="0.11421">
        <ele>2868.37</ele>
        <time>2018-05-11T09:57:22Z</time>
      </trkpt>
      <trkpt lat="42.83832" lon="0.11407">
        <ele>2871.18</ele>
        <time>2018-05-11T09:57:42Z</time>
      </trkpt>
      <trkpt lat="42.83835" lon="0.114">
        <ele>2872.1</ele>
        <time>2018-05-11T09:58:00Z</time>
      </trkpt>
      <trkpt lat="42.83842" lon="0.1139">
        <ele>2874.2</ele>
        <time>2018-05-11T09:58:21Z</time>
      </trkpt>
      <trkpt lat="42.83845" lon="0.11384">
        <ele>2875.77</ele>
        <time>2018-05-11T09:58:40Z</time>
      </trkpt>
      <trkpt lat="42.83845" lon="0.11383">
        <ele>2874.93</ele>
        <time>2018-05-11T09:58:59Z</time>
      </trkpt>
      <trkpt lat="42.83845" lon="0.11384">
        <ele>2874.73</ele>
        <time>2018-05-11T09:59:18Z</time>
      </trkpt>
      <trkpt lat="42.83845" lon="0.11383">
        <ele>2875.14</ele>
        <time>2018-05-11T09:59:49Z</time>
      </trkpt>
      <trkpt lat="42.83845" lon="0.11381">
        <ele>2875.7</ele>
        <time>2018-05-11T10:00:06Z</time>
      </trkpt>
      <trkpt lat="42.83845" lon="0.11381">
        <ele>2876.08</ele>
        <time>2018-05-11T10:00:29Z</time>
      </trkpt>
      <trkpt lat="42.83845" lon="0.11383">
        <ele>2875.72</ele>
        <time>2018-05-11T10:00:57Z</time>
      </trkpt>
      <trkpt lat="42.83845" lon="0.11384">
        <ele>2876.01</ele>
        <time>2018-05-11T10:01:15Z</time>
      </trkpt>
      <trkpt lat="42.83842" lon="0.11381">
        <ele>2876.87</ele>
        <time>2018-05-11T10:01:46Z</time>
      </trkpt>
      <trkpt lat="42.83832" lon="0.11379">
        <ele>2879.39</ele>
        <time>2018-05-11T10:02:06Z</time>
      </trkpt>
      <trkpt lat="42.83822" lon="0.1138">
        <ele>2882.51</ele>
        <time>2018-05-11T10:02:25Z</time>
      </trkpt>
      <trkpt lat="42.83816" lon="0.11382">
        <ele>2884.1</ele>
        <time>2018-05-11T10:02:42Z</time>
      </trkpt>
      <trkpt lat="42.83808" lon="0.11388">
        <ele>2887.07</ele>
        <time>2018-05-11T10:03:00Z</time>
      </trkpt>
      <trkpt lat="42.83803" lon="0.11393">
        <ele>2888.36</ele>
        <time>2018-05-11T10:03:17Z</time>
      </trkpt>
      <trkpt lat="42.83798" lon="0.114">
        <ele>2890.18</ele>
        <time>2018-05-11T10:03:36Z</time>
      </trkpt>
      <trkpt lat="42.83792" lon="0.11406">
        <ele>2892.73</ele>
        <time>2018-05-11T10:03:56Z</time>
      </trkpt>
      <trkpt lat="42.8379" lon="0.11409">
        <ele>2893.89</ele>
        <time>2018-05-11T10:04:11Z</time>
      </trkpt>
      <trkpt lat="42.83786" lon="0.11413">
        <ele>2895.4</ele>
        <time>2018-05-11T10:04:45Z</time>
      </trkpt>
      <trkpt lat="42.83786" lon="0.11408">
        <ele>2896.41</ele>
        <time>2018-05-11T10:05:03Z</time>
      </trkpt>
      <trkpt lat="42.83787" lon="0.11398">
        <ele>2898.02</ele>
        <time>2018-05-11T10:05:21Z</time>
      </trkpt>
      <trkpt lat="42.83789" lon="0.1139">
        <ele>2899.09</ele>
        <time>2018-05-11T10:05:42Z</time>
      </trkpt>
      <trkpt lat="42.83789" lon="0.11387">
        <ele>2900.14</ele>
        <time>2018-05-11T10:06:02Z</time>
      </trkpt>
      <trkpt lat="42.83786" lon="0.11391">
        <ele>2901.49</ele>
        <time>2018-05-11T10:06:10Z</time>
      </trkpt>
      <trkpt lat="42.83785" lon="0.11395">
        <ele>2902.02</ele>
        <time>2018-05-11T10:06:35Z</time>
      </trkpt>
      <trkpt lat="42.83786" lon="0.1139">
        <ele>2902.95</ele>
        <time>2018-05-11T10:06:50Z</time>
      </trkpt>
      <trkpt lat="42.83787" lon="0.11384">
        <ele>2904.09</ele>
        <time>2018-05-11T10:07:08Z</time>
      </trkpt>
      <trkpt lat="42.83783" lon="0.11388">
        <ele>2904.99</ele>
        <time>2018-05-11T10:07:25Z</time>
      </trkpt>
      <trkpt lat="42.83776" lon="0.11398">
        <ele>2908.16</ele>
        <time>2018-05-11T10:07:45Z</time>
      </trkpt>
      <trkpt lat="42.83771" lon="0.11401">
        <ele>2908.3</ele>
        <time>2018-05-11T10:08:11Z</time>
      </trkpt>
      <trkpt lat="42.8377" lon="0.11394">
        <ele>2910.14</ele>
        <time>2018-05-11T10:08:26Z</time>
      </trkpt>
      <trkpt lat="42.83771" lon="0.1138">
        <ele>2912.84</ele>
        <time>2018-05-11T10:08:48Z</time>
      </trkpt>
      <trkpt lat="42.83774" lon="0.11374">
        <ele>2913.92</ele>
        <time>2018-05-11T10:09:04Z</time>
      </trkpt>
      <trkpt lat="42.83777" lon="0.11364">
        <ele>2915.2</ele>
        <time>2018-05-11T10:09:23Z</time>
      </trkpt>
      <trkpt lat="42.83775" lon="0.11367">
        <ele>2916.41</ele>
        <time>2018-05-11T10:09:41Z</time>
      </trkpt>
      <trkpt lat="42.83769" lon="0.11376">
        <ele>2919.04</ele>
        <time>2018-05-11T10:09:59Z</time>
      </trkpt>
      <trkpt lat="42.83766" lon="0.1138">
        <ele>2920.5</ele>
        <time>2018-05-11T10:10:18Z</time>
      </trkpt>
      <trkpt lat="42.83761" lon="0.11388">
        <ele>2923.78</ele>
        <time>2018-05-11T10:10:35Z</time>
      </trkpt>
      <trkpt lat="42.83759" lon="0.1139">
        <ele>2924.29</ele>
        <time>2018-05-11T10:10:52Z</time>
      </trkpt>
      <trkpt lat="42.83754" lon="0.11397">
        <ele>2926.8</ele>
        <time>2018-05-11T10:11:15Z</time>
      </trkpt>
      <trkpt lat="42.83746" lon="0.11406">
        <ele>2929.69</ele>
        <time>2018-05-11T10:11:36Z</time>
      </trkpt>
      <trkpt lat="42.83742" lon="0.1141">
        <ele>2931.64</ele>
        <time>2018-05-11T10:11:58Z</time>
      </trkpt>
      <trkpt lat="42.83736" lon="0.11418">
        <ele>2934.31</ele>
        <time>2018-05-11T10:12:18Z</time>
      </trkpt>
      <trkpt lat="42.83728" lon="0.1143">
        <ele>2937.14</ele>
        <time>2018-05-11T10:12:38Z</time>
      </trkpt>
      <trkpt lat="42.83724" lon="0.11436">
        <ele>2938.37</ele>
        <time>2018-05-11T10:12:57Z</time>
      </trkpt>
      <trkpt lat="42.83718" lon="0.11444">
        <ele>2940.83</ele>
        <time>2018-05-11T10:13:20Z</time>
      </trkpt>
      <trkpt lat="42.83712" lon="0.11453">
        <ele>2942.91</ele>
        <time>2018-05-11T10:13:39Z</time>
      </trkpt>
      <trkpt lat="42.83707" lon="0.11462">
        <ele>2945.73</ele>
        <time>2018-05-11T10:14:04Z</time>
      </trkpt>
      <trkpt lat="42.83705" lon="0.11464">
        <ele>2946.58</ele>
        <time>2018-05-11T10:14:29Z</time>
      </trkpt>
      <trkpt lat="42.83702" lon="0.11465">
        <ele>2947.88</ele>
        <time>2018-05-11T10:14:47Z</time>
      </trkpt>
      <trkpt lat="42.83701" lon="0.11453">
        <ele>2950.76</ele>
        <time>2018-05-11T10:15:07Z</time>
      </trkpt>
      <trkpt lat="42.83701" lon="0.11446">
        <ele>2952.02</ele>
        <time>2018-05-11T10:15:21Z</time>
      </trkpt>
      <trkpt lat="42.83701" lon="0.11445">
        <ele>2952.25</ele>
        <time>2018-05-11T10:15:22Z</time>
      </trkpt>
      <trkpt lat="42.83699" lon="0.11438">
        <ele>2953.49</ele>
        <time>2018-05-11T10:15:36Z</time>
      </trkpt>
      <trkpt lat="42.83696" lon="0.1144">
        <ele>2955.3</ele>
        <time>2018-05-11T10:15:53Z</time>
      </trkpt>
      <trkpt lat="42.83691" lon="0.11449">
        <ele>2957.48</ele>
        <time>2018-05-11T10:16:12Z</time>
      </trkpt>
      <trkpt lat="42.83686" lon="0.11455">
        <ele>2959.76</ele>
        <time>2018-05-11T10:16:30Z</time>
      </trkpt>
      <trkpt lat="42.83684" lon="0.1146">
        <ele>2960.38</ele>
        <time>2018-05-11T10:16:51Z</time>
      </trkpt>
      <trkpt lat="42.83683" lon="0.11462">
        <ele>2961.68</ele>
        <time>2018-05-11T10:16:54Z</time>
      </trkpt>
      <trkpt lat="42.83683" lon="0.11462">
        <ele>2961.75</ele>
        <time>2018-05-11T10:17:30Z</time>
      </trkpt>
      <trkpt lat="42.83681" lon="0.11462">
        <ele>2963.25</ele>
        <time>2018-05-11T10:17:52Z</time>
      </trkpt>
      <trkpt lat="42.83678" lon="0.11449">
        <ele>2965.49</ele>
        <time>2018-05-11T10:18:11Z</time>
      </trkpt>
      <trkpt lat="42.83676" lon="0.11437">
        <ele>2968.63</ele>
        <time>2018-05-11T10:18:30Z</time>
      </trkpt>
      <trkpt lat="42.83674" lon="0.11428">
        <ele>2970.22</ele>
        <time>2018-05-11T10:18:49Z</time>
      </trkpt>
      <trkpt lat="42.83672" lon="0.11423">
        <ele>2971.12</ele>
        <time>2018-05-11T10:19:03Z</time>
      </trkpt>
      <trkpt lat="42.83673" lon="0.1142">
        <ele>2971.86</ele>
        <time>2018-05-11T10:19:25Z</time>
      </trkpt>
      <trkpt lat="42.83672" lon="0.1141">
        <ele>2974.56</ele>
        <time>2018-05-11T10:19:51Z</time>
      </trkpt>
      <trkpt lat="42.83672" lon="0.11398">
        <ele>2976.71</ele>
        <time>2018-05-11T10:20:07Z</time>
      </trkpt>
      <trkpt lat="42.83673" lon="0.11387">
        <ele>2979.76</ele>
        <time>2018-05-11T10:20:24Z</time>
      </trkpt>
      <trkpt lat="42.83673" lon="0.11377">
        <ele>2981.53</ele>
        <time>2018-05-11T10:20:41Z</time>
      </trkpt>
      <trkpt lat="42.83673" lon="0.11371">
        <ele>2982.68</ele>
        <time>2018-05-11T10:20:57Z</time>
      </trkpt>
      <trkpt lat="42.83673" lon="0.11366">
        <ele>2984.19</ele>
        <time>2018-05-11T10:21:16Z</time>
      </trkpt>
      <trkpt lat="42.83675" lon="0.11355">
        <ele>2986.32</ele>
        <time>2018-05-11T10:21:32Z</time>
      </trkpt>
      <trkpt lat="42.83676" lon="0.11346">
        <ele>2988.57</ele>
        <time>2018-05-11T10:21:49Z</time>
      </trkpt>
      <trkpt lat="42.83678" lon="0.11341">
        <ele>2990.18</ele>
        <time>2018-05-11T10:22:08Z</time>
      </trkpt>
      <trkpt lat="42.83678" lon="0.1133">
        <ele>2992.29</ele>
        <time>2018-05-11T10:22:26Z</time>
      </trkpt>
      <trkpt lat="42.83678" lon="0.11324">
        <ele>2993.29</ele>
        <time>2018-05-11T10:22:43Z</time>
      </trkpt>
      <trkpt lat="42.83677" lon="0.11324">
        <ele>2994.77</ele>
        <time>2018-05-11T10:23:01Z</time>
      </trkpt>
      <trkpt lat="42.8367" lon="0.11332">
        <ele>2996.56</ele>
        <time>2018-05-11T10:23:18Z</time>
      </trkpt>
      <trkpt lat="42.83665" lon="0.11338">
        <ele>2998.06</ele>
        <time>2018-05-11T10:23:38Z</time>
      </trkpt>
      <trkpt lat="42.83656" lon="0.11347">
        <ele>3000.84</ele>
        <time>2018-05-11T10:23:59Z</time>
      </trkpt>
      <trkpt lat="42.83648" lon="0.11356">
        <ele>3001.88</ele>
        <time>2018-05-11T10:24:23Z</time>
      </trkpt>
      <trkpt lat="42.83641" lon="0.11363">
        <ele>3004.97</ele>
        <time>2018-05-11T10:24:44Z</time>
      </trkpt>
      <trkpt lat="42.83633" lon="0.11371">
        <ele>3006.86</ele>
        <time>2018-05-11T10:25:07Z</time>
      </trkpt>
      <trkpt lat="42.83627" lon="0.11379">
        <ele>3010.21</ele>
        <time>2018-05-11T10:25:27Z</time>
      </trkpt>
      <trkpt lat="42.8362" lon="0.11389">
        <ele>3012.92</ele>
        <time>2018-05-11T10:25:48Z</time>
      </trkpt>
      <trkpt lat="42.83614" lon="0.114">
        <ele>3014.84</ele>
        <time>2018-05-11T10:26:10Z</time>
      </trkpt>
      <trkpt lat="42.8361" lon="0.11407">
        <ele>3017.97</ele>
        <time>2018-05-11T10:26:25Z</time>
      </trkpt>
      <trkpt lat="42.8361" lon="0.11407">
        <ele>3017.91</ele>
        <time>2018-05-11T10:26:55Z</time>
      </trkpt>
      <trkpt lat="42.8361" lon="0.11407">
        <ele>3018.38</ele>
        <time>2018-05-11T10:27:19Z</time>
      </trkpt>
      <trkpt lat="42.83611" lon="0.11408">
        <ele>3017.4</ele>
        <time>2018-05-11T10:27:41Z</time>
      </trkpt>
      <trkpt lat="42.83611" lon="0.11407">
        <ele>3017.34</ele>
        <time>2018-05-11T10:28:08Z</time>
      </trkpt>
      <trkpt lat="42.83611" lon="0.11407">
        <ele>3017.9</ele>
        <time>2018-05-11T10:28:52Z</time>
      </trkpt>
      <trkpt lat="42.83612" lon="0.11407">
        <ele>3018.65</ele>
        <time>2018-05-11T10:29:31Z</time>
      </trkpt>
      <trkpt lat="42.83612" lon="0.11408">
        <ele>3017.51</ele>
        <time>2018-05-11T10:30:05Z</time>
      </trkpt>
      <trkpt lat="42.8361" lon="0.11408">
        <ele>3018.19</ele>
        <time>2018-05-11T10:30:56Z</time>
      </trkpt>
      <trkpt lat="42.8361" lon="0.11408">
        <ele>3018.42</ele>
        <time>2018-05-11T10:31:34Z</time>
      </trkpt>
      <trkpt lat="42.8361" lon="0.11407">
        <ele>3018.12</ele>
        <time>2018-05-11T10:32:21Z</time>
      </trkpt>
      <trkpt lat="42.8361" lon="0.11408">
        <ele>3018.93</ele>
        <time>2018-05-11T10:33:06Z</time>
      </trkpt>
      <trkpt lat="42.8361" lon="0.11407">
        <ele>3018.4</ele>
        <time>2018-05-11T10:33:48Z</time>
      </trkpt>
      <trkpt lat="42.8361" lon="0.11406">
        <ele>3019.66</ele>
        <time>2018-05-11T10:34:36Z</time>
      </trkpt>
      <trkpt lat="42.8361" lon="0.11407">
        <ele>3018.6</ele>
        <time>2018-05-11T10:35:28Z</time>
      </trkpt>
      <trkpt lat="42.83611" lon="0.11407">
        <ele>3019.11</ele>
        <time>2018-05-11T10:36:17Z</time>
      </trkpt>
      <trkpt lat="42.83612" lon="0.11408">
        <ele>3020.67</ele>
        <time>2018-05-11T10:36:56Z</time>
      </trkpt>
      <trkpt lat="42.83612" lon="0.11407">
        <ele>3020.5</ele>
        <time>2018-05-11T10:37:19Z</time>
      </trkpt>
      <trkpt lat="42.83612" lon="0.11407">
        <ele>3016.79</ele>
        <time>2018-05-11T10:37:24Z</time>
      </trkpt>
      <trkpt lat="42.83612" lon="0.11407">
        <ele>3021.86</ele>
        <time>2018-05-11T10:37:25Z</time>
      </trkpt>
      <trkpt lat="42.83612" lon="0.11407">
        <ele>3018.34</ele>
        <time>2018-05-11T10:37:27Z</time>
      </trkpt>
      <trkpt lat="42.83612" lon="0.11406">
        <ele>3014.19</ele>
        <time>2018-05-11T10:37:28Z</time>
      </trkpt>
      <trkpt lat="42.83612" lon="0.11406">
        <ele>3023.69</ele>
        <time>2018-05-11T10:37:29Z</time>
      </trkpt>
      <trkpt lat="42.83612" lon="0.11406">
        <ele>3018.69</ele>
        <time>2018-05-11T10:37:31Z</time>
      </trkpt>
      <trkpt lat="42.83612" lon="0.11406">
        <ele>3018.84</ele>
        <time>2018-05-11T10:37:32Z</time>
      </trkpt>
      <trkpt lat="42.83607" lon="0.1141">
        <ele>3020.66</ele>
        <time>2018-05-11T10:38:09Z</time>
      </trkpt>
      <trkpt lat="42.8361" lon="0.1141">
        <ele>3020.63</ele>
        <time>2018-05-11T10:38:35Z</time>
      </trkpt>
      <trkpt lat="42.83611" lon="0.11409">
        <ele>3020.02</ele>
        <time>2018-05-11T10:39:03Z</time>
      </trkpt>
      <trkpt lat="42.83609" lon="0.11408">
        <ele>3022.73</ele>
        <time>2018-05-11T10:39:19Z</time>
      </trkpt>
      <trkpt lat="42.83603" lon="0.11411">
        <ele>3023.49</ele>
        <time>2018-05-11T10:39:40Z</time>
      </trkpt>
      <trkpt lat="42.83598" lon="0.1141">
        <ele>3027.03</ele>
        <time>2018-05-11T10:39:55Z</time>
      </trkpt>
      <trkpt lat="42.83593" lon="0.11416">
        <ele>3029.06</ele>
        <time>2018-05-11T10:40:23Z</time>
      </trkpt>
      <trkpt lat="42.83592" lon="0.11419">
        <ele>3030.39</ele>
        <time>2018-05-11T10:40:39Z</time>
      </trkpt>
      <trkpt lat="42.83587" lon="0.11419">
        <ele>3032.64</ele>
        <time>2018-05-11T10:40:55Z</time>
      </trkpt>
      <trkpt lat="42.83584" lon="0.11419">
        <ele>3035.87</ele>
        <time>2018-05-11T10:41:12Z</time>
      </trkpt>
      <trkpt lat="42.83581" lon="0.1142">
        <ele>3037.56</ele>
        <time>2018-05-11T10:41:34Z</time>
      </trkpt>
      <trkpt lat="42.83583" lon="0.11419">
        <ele>3036.98</ele>
        <time>2018-05-11T10:41:43Z</time>
      </trkpt>
      <trkpt lat="42.83579" lon="0.11421">
        <ele>3041.9</ele>
        <time>2018-05-11T10:42:03Z</time>
      </trkpt>
      <trkpt lat="42.83576" lon="0.1142">
        <ele>3043.33</ele>
        <time>2018-05-11T10:42:30Z</time>
      </trkpt>
      <trkpt lat="42.83572" lon="0.11423">
        <ele>3043.35</ele>
        <time>2018-05-11T10:42:54Z</time>
      </trkpt>
      <trkpt lat="42.83568" lon="0.11424">
        <ele>3046.71</ele>
        <time>2018-05-11T10:43:12Z</time>
      </trkpt>
      <trkpt lat="42.83565" lon="0.11428">
        <ele>3048.67</ele>
        <time>2018-05-11T10:43:34Z</time>
      </trkpt>
      <trkpt lat="42.83564" lon="0.11424">
        <ele>3051.71</ele>
        <time>2018-05-11T10:43:58Z</time>
      </trkpt>
      <trkpt lat="42.83561" lon="0.11424">
        <ele>3054.31</ele>
        <time>2018-05-11T10:44:08Z</time>
      </trkpt>
      <trkpt lat="42.83557" lon="0.11423">
        <ele>3054.77</ele>
        <time>2018-05-11T10:44:29Z</time>
      </trkpt>
      <trkpt lat="42.83554" lon="0.11424">
        <ele>3056.57</ele>
        <time>2018-05-11T10:44:52Z</time>
      </trkpt>
      <trkpt lat="42.83553" lon="0.11426">
        <ele>3058.72</ele>
        <time>2018-05-11T10:45:11Z</time>
      </trkpt>
      <trkpt lat="42.83549" lon="0.11434">
        <ele>3060.57</ele>
        <time>2018-05-11T10:45:36Z</time>
      </trkpt>
      <trkpt lat="42.83547" lon="0.11447">
        <ele>3064.37</ele>
        <time>2018-05-11T10:45:51Z</time>
      </trkpt>
      <trkpt lat="42.83545" lon="0.11455">
        <ele>3062.59</ele>
        <time>2018-05-11T10:46:03Z</time>
      </trkpt>
      <trkpt lat="42.83546" lon="0.11459">
        <ele>3065.81</ele>
        <time>2018-05-11T10:46:14Z</time>
      </trkpt>
      <trkpt lat="42.83545" lon="0.1146">
        <ele>3063.91</ele>
        <time>2018-05-11T10:46:19Z</time>
      </trkpt>
      <trkpt lat="42.83545" lon="0.11461">
        <ele>3068.1</ele>
        <time>2018-05-11T10:46:20Z</time>
      </trkpt>
      <trkpt lat="42.83545" lon="0.11462">
        <ele>3065.69</ele>
        <time>2018-05-11T10:46:21Z</time>
      </trkpt>
      <trkpt lat="42.83545" lon="0.11462">
        <ele>3059.68</ele>
        <time>2018-05-11T10:46:23Z</time>
      </trkpt>
      <trkpt lat="42.83545" lon="0.11462">
        <ele>3071.13</ele>
        <time>2018-05-11T10:46:24Z</time>
      </trkpt>
      <trkpt lat="42.83545" lon="0.11462">
        <ele>3065.55</ele>
        <time>2018-05-11T10:46:25Z</time>
      </trkpt>
      <trkpt lat="42.83546" lon="0.11464">
        <ele>3068.58</ele>
        <time>2018-05-11T10:46:41Z</time>
      </trkpt>
      <trkpt lat="42.83546" lon="0.11464">
        <ele>3067.27</ele>
        <time>2018-05-11T10:46:43Z</time>
      </trkpt>
      <trkpt lat="42.8354" lon="0.11464">
        <ele>3069.07</ele>
        <time>2018-05-11T10:46:51Z</time>
      </trkpt>
      <trkpt lat="42.83539" lon="0.11472">
        <ele>3074.94</ele>
        <time>2018-05-11T10:47:05Z</time>
      </trkpt>
      <trkpt lat="42.83539" lon="0.11473">
        <ele>3071.48</ele>
        <time>2018-05-11T10:47:06Z</time>
      </trkpt>
      <trkpt lat="42.8354" lon="0.11475">
        <ele>3066.83</ele>
        <time>2018-05-11T10:47:11Z</time>
      </trkpt>
      <trkpt lat="42.8354" lon="0.11475">
        <ele>3074.69</ele>
        <time>2018-05-11T10:47:12Z</time>
      </trkpt>
      <trkpt lat="42.8354" lon="0.11475">
        <ele>3070.74</ele>
        <time>2018-05-11T10:47:13Z</time>
      </trkpt>
      <trkpt lat="42.83542" lon="0.11482">
        <ele>3068.36</ele>
        <time>2018-05-11T10:47:29Z</time>
      </trkpt>
      <trkpt lat="42.83542" lon="0.11482">
        <ele>3071.76</ele>
        <time>2018-05-11T10:47:30Z</time>
      </trkpt>
      <trkpt lat="42.83543" lon="0.11482">
        <ele>3076.02</ele>
        <time>2018-05-11T10:47:36Z</time>
      </trkpt>
      <trkpt lat="42.83543" lon="0.11482">
        <ele>3072.99</ele>
        <time>2018-05-11T10:47:37Z</time>
      </trkpt>
      <trkpt lat="42.83543" lon="0.11482">
        <ele>3069.89</ele>
        <time>2018-05-11T10:47:38Z</time>
      </trkpt>
      <trkpt lat="42.83543" lon="0.11483">
        <ele>3075.53</ele>
        <time>2018-05-11T10:47:39Z</time>
      </trkpt>
      <trkpt lat="42.83543" lon="0.11487">
        <ele>3071.78</ele>
        <time>2018-05-11T10:47:42Z</time>
      </trkpt>
      <trkpt lat="42.83543" lon="0.1149">
        <ele>3075.23</ele>
        <time>2018-05-11T10:47:44Z</time>
      </trkpt>
      <trkpt lat="42.83543" lon="0.1149">
        <ele>3069.66</ele>
        <time>2018-05-11T10:47:45Z</time>
      </trkpt>
      <trkpt lat="42.83542" lon="0.11491">
        <ele>3078.44</ele>
        <time>2018-05-11T10:47:46Z</time>
      </trkpt>
      <trkpt lat="42.83542" lon="0.11491">
        <ele>3073.98</ele>
        <time>2018-05-11T10:47:47Z</time>
      </trkpt>
      <trkpt lat="42.83542" lon="0.11492">
        <ele>3069.75</ele>
        <time>2018-05-11T10:47:51Z</time>
      </trkpt>
      <trkpt lat="42.83542" lon="0.11492">
        <ele>3076.89</ele>
        <time>2018-05-11T10:47:52Z</time>
      </trkpt>
      <trkpt lat="42.83541" lon="0.11493">
        <ele>3072.87</ele>
        <time>2018-05-11T10:48:01Z</time>
      </trkpt>
      <trkpt lat="42.83541" lon="0.11494">
        <ele>3076.05</ele>
        <time>2018-05-11T10:48:03Z</time>
      </trkpt>
      <trkpt lat="42.83541" lon="0.11494">
        <ele>3071.91</ele>
        <time>2018-05-11T10:48:05Z</time>
      </trkpt>
      <trkpt lat="42.83541" lon="0.11494">
        <ele>3076.78</ele>
        <time>2018-05-11T10:48:06Z</time>
      </trkpt>
      <trkpt lat="42.83541" lon="0.11494">
        <ele>3068.34</ele>
        <time>2018-05-11T10:48:08Z</time>
      </trkpt>
      <trkpt lat="42.83541" lon="0.11495">
        <ele>3082.13</ele>
        <time>2018-05-11T10:48:09Z</time>
      </trkpt>
      <trkpt lat="42.83542" lon="0.11495">
        <ele>3077.64</ele>
        <time>2018-05-11T10:48:10Z</time>
      </trkpt>
      <trkpt lat="42.83542" lon="0.11497">
        <ele>3076.15</ele>
        <time>2018-05-11T10:48:12Z</time>
      </trkpt>
      <trkpt lat="42.83546" lon="0.11506">
        <ele>3076.58</ele>
        <time>2018-05-11T10:48:33Z</time>
      </trkpt>
      <trkpt lat="42.83547" lon="0.11506">
        <ele>3076.81</ele>
        <time>2018-05-11T10:48:34Z</time>
      </trkpt>
      <trkpt lat="42.83543" lon="0.11508">
        <ele>3075.84</ele>
        <time>2018-05-11T10:48:44Z</time>
      </trkpt>
      <trkpt lat="42.83543" lon="0.11508">
        <ele>3079.59</ele>
        <time>2018-05-11T10:48:51Z</time>
      </trkpt>
      <trkpt lat="42.83542" lon="0.11507">
        <ele>3079.59</ele>
        <time>2018-05-11T10:48:52Z</time>
      </trkpt>
      <trkpt lat="42.83542" lon="0.11507">
        <ele>3077.17</ele>
        <time>2018-05-11T10:48:53Z</time>
      </trkpt>
      <trkpt lat="42.8354" lon="0.11504">
        <ele>3073.89</ele>
        <time>2018-05-11T10:48:55Z</time>
      </trkpt>
      <trkpt lat="42.8354" lon="0.11504">
        <ele>3081.17</ele>
        <time>2018-05-11T10:48:56Z</time>
      </trkpt>
      <trkpt lat="42.83541" lon="0.11504">
        <ele>3078.65</ele>
        <time>2018-05-11T10:48:57Z</time>
      </trkpt>
      <trkpt lat="42.83542" lon="0.11503">
        <ele>3073.3</ele>
        <time>2018-05-11T10:49:02Z</time>
      </trkpt>
      <trkpt lat="42.83543" lon="0.11503">
        <ele>3083.27</ele>
        <time>2018-05-11T10:49:03Z</time>
      </trkpt>
      <trkpt lat="42.83543" lon="0.11503">
        <ele>3079.1</ele>
        <time>2018-05-11T10:49:04Z</time>
      </trkpt>
      <trkpt lat="42.83539" lon="0.11501">
        <ele>3081.46</ele>
        <time>2018-05-11T10:49:23Z</time>
      </trkpt>
      <trkpt lat="42.83539" lon="0.11507">
        <ele>3082.74</ele>
        <time>2018-05-11T10:49:44Z</time>
      </trkpt>
      <trkpt lat="42.8354" lon="0.1151">
        <ele>3082.98</ele>
        <time>2018-05-11T10:50:15Z</time>
      </trkpt>
      <trkpt lat="42.8354" lon="0.1151">
        <ele>3078.42</ele>
        <time>2018-05-11T10:50:24Z</time>
      </trkpt>
      <trkpt lat="42.8354" lon="0.1151">
        <ele>3082.47</ele>
        <time>2018-05-11T10:50:25Z</time>
      </trkpt>
      <trkpt lat="42.83541" lon="0.11511">
        <ele>3087.06</ele>
        <time>2018-05-11T10:50:27Z</time>
      </trkpt>
      <trkpt lat="42.83541" lon="0.11511">
        <ele>3082.9</ele>
        <time>2018-05-11T10:50:28Z</time>
      </trkpt>
      <trkpt lat="42.8354" lon="0.11511">
        <ele>3082.43</ele>
        <time>2018-05-11T10:50:57Z</time>
      </trkpt>
      <trkpt lat="42.83539" lon="0.11507">
        <ele>3083.04</ele>
        <time>2018-05-11T10:51:25Z</time>
      </trkpt>
      <trkpt lat="42.83539" lon="0.11511">
        <ele>3082.33</ele>
        <time>2018-05-11T10:51:52Z</time>
      </trkpt>
      <trkpt lat="42.8354" lon="0.11512">
        <ele>3083.22</ele>
        <time>2018-05-11T10:52:26Z</time>
      </trkpt>
      <trkpt lat="42.83539" lon="0.11514">
        <ele>3083.05</ele>
        <time>2018-05-11T10:52:56Z</time>
      </trkpt>
      <trkpt lat="42.83538" lon="0.11514">
        <ele>3083.24</ele>
        <time>2018-05-11T10:53:26Z</time>
      </trkpt>
      <trkpt lat="42.83537" lon="0.11515">
        <ele>3083.62</ele>
        <time>2018-05-11T10:53:56Z</time>
      </trkpt>
      <trkpt lat="42.83538" lon="0.11515">
        <ele>3084.05</ele>
        <time>2018-05-11T10:54:31Z</time>
      </trkpt>
      <trkpt lat="42.83538" lon="0.11516">
        <ele>3083.93</ele>
        <time>2018-05-11T10:54:57Z</time>
      </trkpt>
      <trkpt lat="42.83538" lon="0.11515">
        <ele>3084.14</ele>
        <time>2018-05-11T10:55:27Z</time>
      </trkpt>
      <trkpt lat="42.83538" lon="0.11514">
        <ele>3083.72</ele>
        <time>2018-05-11T10:56:04Z</time>
      </trkpt>
      <trkpt lat="42.8354" lon="0.1151">
        <ele>3083.82</ele>
        <time>2018-05-11T10:56:32Z</time>
      </trkpt>
      <trkpt lat="42.83541" lon="0.11504">
        <ele>3082.28</ele>
        <time>2018-05-11T10:56:55Z</time>
      </trkpt>
      <trkpt lat="42.83541" lon="0.115">
        <ele>3081.71</ele>
        <time>2018-05-11T10:57:28Z</time>
      </trkpt>
      <trkpt lat="42.83541" lon="0.11498">
        <ele>3082.58</ele>
        <time>2018-05-11T10:57:43Z</time>
      </trkpt>
      <trkpt lat="42.83541" lon="0.11497">
        <ele>3080.79</ele>
        <time>2018-05-11T10:57:46Z</time>
      </trkpt>
      <trkpt lat="42.8354" lon="0.11498">
        <ele>3076.73</ele>
        <time>2018-05-11T10:57:57Z</time>
      </trkpt>
      <trkpt lat="42.8354" lon="0.11498">
        <ele>3085.48</ele>
        <time>2018-05-11T10:57:58Z</time>
      </trkpt>
      <trkpt lat="42.83541" lon="0.11498">
        <ele>3082.42</ele>
        <time>2018-05-11T10:57:59Z</time>
      </trkpt>
      <trkpt lat="42.83541" lon="0.11497">
        <ele>3078.59</ele>
        <time>2018-05-11T10:58:03Z</time>
      </trkpt>
      <trkpt lat="42.83541" lon="0.11497">
        <ele>3081.71</ele>
        <time>2018-05-11T10:58:04Z</time>
      </trkpt>
      <trkpt lat="42.8354" lon="0.11497">
        <ele>3079.61</ele>
        <time>2018-05-11T10:58:07Z</time>
      </trkpt>
      <trkpt lat="42.8354" lon="0.11499">
        <ele>3080.91</ele>
        <time>2018-05-11T10:58:34Z</time>
      </trkpt>
      <trkpt lat="42.83541" lon="0.11501">
        <ele>3082.18</ele>
        <time>2018-05-11T10:58:47Z</time>
      </trkpt>
      <trkpt lat="42.83541" lon="0.11501">
        <ele>3078.53</ele>
        <time>2018-05-11T10:58:49Z</time>
      </trkpt>
      <trkpt lat="42.83541" lon="0.11501">
        <ele>3078.43</ele>
        <time>2018-05-11T10:58:52Z</time>
      </trkpt>
      <trkpt lat="42.83541" lon="0.11501">
        <ele>3079.27</ele>
        <time>2018-05-11T10:58:54Z</time>
      </trkpt>
      <trkpt lat="42.83541" lon="0.11501">
        <ele>3082.41</ele>
        <time>2018-05-11T10:58:56Z</time>
      </trkpt>
      <trkpt lat="42.83541" lon="0.11501">
        <ele>3078.74</ele>
        <time>2018-05-11T10:58:57Z</time>
      </trkpt>
      <trkpt lat="42.83539" lon="0.11496">
        <ele>3077.83</ele>
        <time>2018-05-11T10:59:21Z</time>
      </trkpt>
      <trkpt lat="42.8354" lon="0.11494">
        <ele>3077.75</ele>
        <time>2018-05-11T10:59:50Z</time>
      </trkpt>
      <trkpt lat="42.83539" lon="0.11494">
        <ele>3078.22</ele>
        <time>2018-05-11T10:59:56Z</time>
      </trkpt>
      <trkpt lat="42.8354" lon="0.11494">
        <ele>3077.12</ele>
        <time>2018-05-11T11:00:15Z</time>
      </trkpt>
      <trkpt lat="42.8354" lon="0.11495">
        <ele>3072.66</ele>
        <time>2018-05-11T11:00:16Z</time>
      </trkpt>
      <trkpt lat="42.83541" lon="0.11495">
        <ele>3079.05</ele>
        <time>2018-05-11T11:00:17Z</time>
      </trkpt>
      <trkpt lat="42.83541" lon="0.11494">
        <ele>3078.69</ele>
        <time>2018-05-11T11:00:20Z</time>
      </trkpt>
      <trkpt lat="42.8354" lon="0.11491">
        <ele>3075.79</ele>
        <time>2018-05-11T11:00:27Z</time>
      </trkpt>
      <trkpt lat="42.8354" lon="0.11491">
        <ele>3080.02</ele>
        <time>2018-05-11T11:00:30Z</time>
      </trkpt>
      <trkpt lat="42.8354" lon="0.11491">
        <ele>3077.53</ele>
        <time>2018-05-11T11:00:31Z</time>
      </trkpt>
      <trkpt lat="42.8354" lon="0.11491">
        <ele>3083.04</ele>
        <time>2018-05-11T11:00:33Z</time>
      </trkpt>
      <trkpt lat="42.83539" lon="0.11491">
        <ele>3077.05</ele>
        <time>2018-05-11T11:00:34Z</time>
      </trkpt>
      <trkpt lat="42.83539" lon="0.11492">
        <ele>3076.72</ele>
        <time>2018-05-11T11:00:35Z</time>
      </trkpt>
      <trkpt lat="42.8354" lon="0.11493">
        <ele>3077.42</ele>
        <time>2018-05-11T11:00:52Z</time>
      </trkpt>
      <trkpt lat="42.8354" lon="0.11493">
        <ele>3076.34</ele>
        <time>2018-05-11T11:00:54Z</time>
      </trkpt>
      <trkpt lat="42.83541" lon="0.11494">
        <ele>3080.96</ele>
        <time>2018-05-11T11:01:05Z</time>
      </trkpt>
      <trkpt lat="42.83541" lon="0.11494">
        <ele>3076.61</ele>
        <time>2018-05-11T11:01:06Z</time>
      </trkpt>
      <trkpt lat="42.83541" lon="0.11493">
        <ele>3071.6</ele>
        <time>2018-05-11T11:01:15Z</time>
      </trkpt>
      <trkpt lat="42.83541" lon="0.11493">
        <ele>3080.4</ele>
        <time>2018-05-11T11:01:16Z</time>
      </trkpt>
      <trkpt lat="42.83541" lon="0.11492">
        <ele>3075.47</ele>
        <time>2018-05-11T11:01:17Z</time>
      </trkpt>
      <trkpt lat="42.83542" lon="0.11488">
        <ele>3069.35</ele>
        <time>2018-05-11T11:01:37Z</time>
      </trkpt>
      <trkpt lat="42.83542" lon="0.11488">
        <ele>3079.27</ele>
        <time>2018-05-11T11:01:38Z</time>
      </trkpt>
      <trkpt lat="42.83542" lon="0.11488">
        <ele>3072.74</ele>
        <time>2018-05-11T11:01:39Z</time>
      </trkpt>
      <trkpt lat="42.83542" lon="0.11484">
        <ele>3073.12</ele>
        <time>2018-05-11T11:02:00Z</time>
      </trkpt>
      <trkpt lat="42.83544" lon="0.11477">
        <ele>3069.68</ele>
        <time>2018-05-11T11:02:21Z</time>
      </trkpt>
      <trkpt lat="42.83545" lon="0.11477">
        <ele>3073.22</ele>
        <time>2018-05-11T11:02:37Z</time>
      </trkpt>
      <trkpt lat="42.83546" lon="0.11477">
        <ele>3070.94</ele>
        <time>2018-05-11T11:02:38Z</time>
      </trkpt>
      <trkpt lat="42.83546" lon="0.11478">
        <ele>3068.9</ele>
        <time>2018-05-11T11:02:40Z</time>
      </trkpt>
      <trkpt lat="42.83548" lon="0.11478">
        <ele>3068.37</ele>
        <time>2018-05-11T11:02:47Z</time>
      </trkpt>
      <trkpt lat="42.83551" lon="0.11476">
        <ele>3062.05</ele>
        <time>2018-05-11T11:03:01Z</time>
      </trkpt>
      <trkpt lat="42.83553" lon="0.11476">
        <ele>3067.66</ele>
        <time>2018-05-11T11:03:03Z</time>
      </trkpt>
      <trkpt lat="42.83554" lon="0.11476">
        <ele>3066.68</ele>
        <time>2018-05-11T11:03:05Z</time>
      </trkpt>
      <trkpt lat="42.83554" lon="0.11464">
        <ele>3065</ele>
        <time>2018-05-11T11:03:30Z</time>
      </trkpt>
      <trkpt lat="42.83556" lon="0.11456">
        <ele>3061.9</ele>
        <time>2018-05-11T11:03:44Z</time>
      </trkpt>
      <trkpt lat="42.83556" lon="0.11456">
        <ele>3061.65</ele>
        <time>2018-05-11T11:03:45Z</time>
      </trkpt>
      <trkpt lat="42.83558" lon="0.11451">
        <ele>3060.91</ele>
        <time>2018-05-11T11:04:05Z</time>
      </trkpt>
      <trkpt lat="42.83561" lon="0.11443">
        <ele>3057.75</ele>
        <time>2018-05-11T11:04:23Z</time>
      </trkpt>
      <trkpt lat="42.83561" lon="0.1144">
        <ele>3054.62</ele>
        <time>2018-05-11T11:04:41Z</time>
      </trkpt>
      <trkpt lat="42.83564" lon="0.1144">
        <ele>3053.11</ele>
        <time>2018-05-11T11:05:00Z</time>
      </trkpt>
      <trkpt lat="42.83567" lon="0.1144">
        <ele>3050.75</ele>
        <time>2018-05-11T11:05:12Z</time>
      </trkpt>
      <trkpt lat="42.8357" lon="0.11435">
        <ele>3048.18</ele>
        <time>2018-05-11T11:05:35Z</time>
      </trkpt>
      <trkpt lat="42.83573" lon="0.11432">
        <ele>3044.76</ele>
        <time>2018-05-11T11:05:47Z</time>
      </trkpt>
      <trkpt lat="42.83576" lon="0.11432">
        <ele>3042.94</ele>
        <time>2018-05-11T11:05:53Z</time>
      </trkpt>
      <trkpt lat="42.8358" lon="0.11428">
        <ele>3039.62</ele>
        <time>2018-05-11T11:06:02Z</time>
      </trkpt>
      <trkpt lat="42.83584" lon="0.11426">
        <ele>3035.52</ele>
        <time>2018-05-11T11:06:12Z</time>
      </trkpt>
      <trkpt lat="42.83588" lon="0.11423">
        <ele>3032.09</ele>
        <time>2018-05-11T11:06:24Z</time>
      </trkpt>
      <trkpt lat="42.83591" lon="0.11422">
        <ele>3030.84</ele>
        <time>2018-05-11T11:06:30Z</time>
      </trkpt>
      <trkpt lat="42.83596" lon="0.11417">
        <ele>3027.16</ele>
        <time>2018-05-11T11:06:42Z</time>
      </trkpt>
      <trkpt lat="42.83603" lon="0.11411">
        <ele>3024.38</ele>
        <time>2018-05-11T11:06:54Z</time>
      </trkpt>
      <trkpt lat="42.83609" lon="0.11409">
        <ele>3020.95</ele>
        <time>2018-05-11T11:07:04Z</time>
      </trkpt>
      <trkpt lat="42.83609" lon="0.11407">
        <ele>3021.19</ele>
        <time>2018-05-11T11:07:12Z</time>
      </trkpt>
      <trkpt lat="42.83609" lon="0.11407">
        <ele>3018.02</ele>
        <time>2018-05-11T11:07:13Z</time>
      </trkpt>
      <trkpt lat="42.83609" lon="0.11407">
        <ele>3023.16</ele>
        <time>2018-05-11T11:07:14Z</time>
      </trkpt>
      <trkpt lat="42.83609" lon="0.11407">
        <ele>3021.45</ele>
        <time>2018-05-11T11:07:17Z</time>
      </trkpt>
      <trkpt lat="42.83608" lon="0.11407">
        <ele>3021.53</ele>
        <time>2018-05-11T11:07:45Z</time>
      </trkpt>
      <trkpt lat="42.83608" lon="0.11407">
        <ele>3021.21</ele>
        <time>2018-05-11T11:08:15Z</time>
      </trkpt>
      <trkpt lat="42.83608" lon="0.11408">
        <ele>3021.02</ele>
        <time>2018-05-11T11:08:49Z</time>
      </trkpt>
      <trkpt lat="42.83609" lon="0.11408">
        <ele>3020.92</ele>
        <time>2018-05-11T11:09:19Z</time>
      </trkpt>
      <trkpt lat="42.83609" lon="0.11408">
        <ele>3010.39</ele>
        <time>2018-05-11T11:09:45Z</time>
      </trkpt>
      <trkpt lat="42.83609" lon="0.11408">
        <ele>3030.44</ele>
        <time>2018-05-11T11:09:46Z</time>
      </trkpt>
      <trkpt lat="42.83609" lon="0.11408">
        <ele>3021.05</ele>
        <time>2018-05-11T11:09:47Z</time>
      </trkpt>
      <trkpt lat="42.83609" lon="0.11408">
        <ele>3020.43</ele>
        <time>2018-05-11T11:09:49Z</time>
      </trkpt>
      <trkpt lat="42.83607" lon="0.11408">
        <ele>3020.64</ele>
        <time>2018-05-11T11:10:18Z</time>
      </trkpt>
      <trkpt lat="42.83608" lon="0.11408">
        <ele>3020.34</ele>
        <time>2018-05-11T11:10:47Z</time>
      </trkpt>
      <trkpt lat="42.83609" lon="0.11406">
        <ele>3013.85</ele>
        <time>2018-05-11T11:11:03Z</time>
      </trkpt>
      <trkpt lat="42.83609" lon="0.11406">
        <ele>3019.58</ele>
        <time>2018-05-11T11:11:04Z</time>
      </trkpt>
      <trkpt lat="42.83608" lon="0.11394">
        <ele>3031.05</ele>
        <time>2018-05-11T11:11:20Z</time>
      </trkpt>
      <trkpt lat="42.83608" lon="0.11393">
        <ele>3021.06</ele>
        <time>2018-05-11T11:11:21Z</time>
      </trkpt>
      <trkpt lat="42.8361" lon="0.11404">
        <ele>3016.38</ele>
        <time>2018-05-11T11:11:23Z</time>
      </trkpt>
      <trkpt lat="42.8361" lon="0.11404">
        <ele>3019.79</ele>
        <time>2018-05-11T11:11:24Z</time>
      </trkpt>
      <trkpt lat="42.8361" lon="0.11404">
        <ele>3023.74</ele>
        <time>2018-05-11T11:11:26Z</time>
      </trkpt>
      <trkpt lat="42.8361" lon="0.11404">
        <ele>3020.26</ele>
        <time>2018-05-11T11:11:27Z</time>
      </trkpt>
      <trkpt lat="42.83609" lon="0.11408">
        <ele>3020.21</ele>
        <time>2018-05-11T11:11:58Z</time>
      </trkpt>
      <trkpt lat="42.83608" lon="0.11408">
        <ele>3020</ele>
        <time>2018-05-11T11:12:25Z</time>
      </trkpt>
      <trkpt lat="42.83608" lon="0.11407">
        <ele>3020.88</ele>
        <time>2018-05-11T11:12:55Z</time>
      </trkpt>
      <trkpt lat="42.83609" lon="0.11406">
        <ele>3015.56</ele>
        <time>2018-05-11T11:13:26Z</time>
      </trkpt>
      <trkpt lat="42.83608" lon="0.11406">
        <ele>3020.7</ele>
        <time>2018-05-11T11:13:27Z</time>
      </trkpt>
      <trkpt lat="42.83608" lon="0.11405">
        <ele>3015.2</ele>
        <time>2018-05-11T11:13:35Z</time>
      </trkpt>
      <trkpt lat="42.83608" lon="0.11405">
        <ele>3024.92</ele>
        <time>2018-05-11T11:13:36Z</time>
      </trkpt>
      <trkpt lat="42.83608" lon="0.11404">
        <ele>3021.61</ele>
        <time>2018-05-11T11:13:37Z</time>
      </trkpt>
      <trkpt lat="42.83609" lon="0.11406">
        <ele>3020.66</ele>
        <time>2018-05-11T11:14:05Z</time>
      </trkpt>
      <trkpt lat="42.83608" lon="0.11407">
        <ele>3016.28</ele>
        <time>2018-05-11T11:14:25Z</time>
      </trkpt>
      <trkpt lat="42.83609" lon="0.11406">
        <ele>3020.47</ele>
        <time>2018-05-11T11:14:26Z</time>
      </trkpt>
      <trkpt lat="42.83609" lon="0.11397">
        <ele>3019.81</ele>
        <time>2018-05-11T11:14:45Z</time>
      </trkpt>
      <trkpt lat="42.8361" lon="0.11393">
        <ele>3022.49</ele>
        <time>2018-05-11T11:14:50Z</time>
      </trkpt>
      <trkpt lat="42.83611" lon="0.11395">
        <ele>3027.49</ele>
        <time>2018-05-11T11:14:51Z</time>
      </trkpt>
      <trkpt lat="42.83611" lon="0.11399">
        <ele>3021.04</ele>
        <time>2018-05-11T11:14:52Z</time>
      </trkpt>
      <trkpt lat="42.83611" lon="0.114">
        <ele>3021</ele>
        <time>2018-05-11T11:14:53Z</time>
      </trkpt>
      <trkpt lat="42.83605" lon="0.11414">
        <ele>3020.26</ele>
        <time>2018-05-11T11:15:29Z</time>
      </trkpt>
      <trkpt lat="42.83607" lon="0.11409">
        <ele>3017.2</ele>
        <time>2018-05-11T11:15:52Z</time>
      </trkpt>
      <trkpt lat="42.83607" lon="0.11409">
        <ele>3020.69</ele>
        <time>2018-05-11T11:15:53Z</time>
      </trkpt>
      <trkpt lat="42.83606" lon="0.11408">
        <ele>3017.52</ele>
        <time>2018-05-11T11:16:05Z</time>
      </trkpt>
      <trkpt lat="42.83606" lon="0.11408">
        <ele>3021.28</ele>
        <time>2018-05-11T11:16:06Z</time>
      </trkpt>
      <trkpt lat="42.83606" lon="0.11408">
        <ele>3017.96</ele>
        <time>2018-05-11T11:16:19Z</time>
      </trkpt>
      <trkpt lat="42.83606" lon="0.11407">
        <ele>3021.34</ele>
        <time>2018-05-11T11:16:21Z</time>
      </trkpt>
      <trkpt lat="42.83606" lon="0.11406">
        <ele>3016.02</ele>
        <time>2018-05-11T11:16:24Z</time>
      </trkpt>
      <trkpt lat="42.83605" lon="0.11406">
        <ele>3022.16</ele>
        <time>2018-05-11T11:16:25Z</time>
      </trkpt>
      <trkpt lat="42.83605" lon="0.11405">
        <ele>3018.54</ele>
        <time>2018-05-11T11:16:26Z</time>
      </trkpt>
      <trkpt lat="42.83605" lon="0.11404">
        <ele>3023.22</ele>
        <time>2018-05-11T11:16:27Z</time>
      </trkpt>
      <trkpt lat="42.83604" lon="0.11404">
        <ele>3018.31</ele>
        <time>2018-05-11T11:16:29Z</time>
      </trkpt>
      <trkpt lat="42.83605" lon="0.11403">
        <ele>3021.4</ele>
        <time>2018-05-11T11:16:33Z</time>
      </trkpt>
      <trkpt lat="42.83606" lon="0.11401">
        <ele>3019.88</ele>
        <time>2018-05-11T11:16:55Z</time>
      </trkpt>
      <trkpt lat="42.83606" lon="0.11402">
        <ele>3024.51</ele>
        <time>2018-05-11T11:16:56Z</time>
      </trkpt>
      <trkpt lat="42.83606" lon="0.11403">
        <ele>3027.88</ele>
        <time>2018-05-11T11:16:59Z</time>
      </trkpt>
      <trkpt lat="42.83605" lon="0.11403">
        <ele>3024</ele>
        <time>2018-05-11T11:17:00Z</time>
      </trkpt>
      <trkpt lat="42.83606" lon="0.11404">
        <ele>3018.61</ele>
        <time>2018-05-11T11:17:01Z</time>
      </trkpt>
      <trkpt lat="42.83606" lon="0.11405">
        <ele>3021.68</ele>
        <time>2018-05-11T11:17:02Z</time>
      </trkpt>
      <trkpt lat="42.83607" lon="0.11407">
        <ele>3014.18</ele>
        <time>2018-05-11T11:17:13Z</time>
      </trkpt>
      <trkpt lat="42.83607" lon="0.11407">
        <ele>3021.71</ele>
        <time>2018-05-11T11:17:14Z</time>
      </trkpt>
      <trkpt lat="42.83607" lon="0.11407">
        <ele>3021.96</ele>
        <time>2018-05-11T11:17:15Z</time>
      </trkpt>
      <trkpt lat="42.83607" lon="0.11407">
        <ele>3018.42</ele>
        <time>2018-05-11T11:17:22Z</time>
      </trkpt>
      <trkpt lat="42.83607" lon="0.11407">
        <ele>3021.57</ele>
        <time>2018-05-11T11:17:23Z</time>
      </trkpt>
      <trkpt lat="42.83607" lon="0.11405">
        <ele>3013.77</ele>
        <time>2018-05-11T11:17:33Z</time>
      </trkpt>
      <trkpt lat="42.83607" lon="0.11405">
        <ele>3024</ele>
        <time>2018-05-11T11:17:34Z</time>
      </trkpt>
      <trkpt lat="42.83607" lon="0.11405">
        <ele>3018.87</ele>
        <time>2018-05-11T11:17:36Z</time>
      </trkpt>
      <trkpt lat="42.83608" lon="0.11405">
        <ele>3020.63</ele>
        <time>2018-05-11T11:17:37Z</time>
      </trkpt>
      <trkpt lat="42.83608" lon="0.11405">
        <ele>3023.84</ele>
        <time>2018-05-11T11:17:40Z</time>
      </trkpt>
      <trkpt lat="42.83608" lon="0.11405">
        <ele>3020.73</ele>
        <time>2018-05-11T11:17:42Z</time>
      </trkpt>
      <trkpt lat="42.83609" lon="0.11405">
        <ele>3014.71</ele>
        <time>2018-05-11T11:17:48Z</time>
      </trkpt>
      <trkpt lat="42.83609" lon="0.11405">
        <ele>3026.33</ele>
        <time>2018-05-11T11:17:49Z</time>
      </trkpt>
      <trkpt lat="42.83609" lon="0.11405">
        <ele>3018.73</ele>
        <time>2018-05-11T11:17:50Z</time>
      </trkpt>
      <trkpt lat="42.83609" lon="0.11405">
        <ele>3025.61</ele>
        <time>2018-05-11T11:17:51Z</time>
      </trkpt>
      <trkpt lat="42.83609" lon="0.11405">
        <ele>3020.76</ele>
        <time>2018-05-11T11:17:52Z</time>
      </trkpt>
      <trkpt lat="42.83609" lon="0.11405">
        <ele>3024.58</ele>
        <time>2018-05-11T11:17:58Z</time>
      </trkpt>
      <trkpt lat="42.83609" lon="0.11405">
        <ele>3021.48</ele>
        <time>2018-05-11T11:17:59Z</time>
      </trkpt>
      <trkpt lat="42.83609" lon="0.11409">
        <ele>3021.19</ele>
        <time>2018-05-11T11:18:23Z</time>
      </trkpt>
      <trkpt lat="42.83609" lon="0.11407">
        <ele>3021.25</ele>
        <time>2018-05-11T11:18:54Z</time>
      </trkpt>
      <trkpt lat="42.83608" lon="0.11406">
        <ele>3020.89</ele>
        <time>2018-05-11T11:19:33Z</time>
      </trkpt>
      <trkpt lat="42.83608" lon="0.11407">
        <ele>3021.87</ele>
        <time>2018-05-11T11:19:39Z</time>
      </trkpt>
      <trkpt lat="42.83609" lon="0.11409">
        <ele>3020.61</ele>
        <time>2018-05-11T11:20:10Z</time>
      </trkpt>
      <trkpt lat="42.83608" lon="0.11408">
        <ele>3020.7</ele>
        <time>2018-05-11T11:20:46Z</time>
      </trkpt>
      <trkpt lat="42.83609" lon="0.11409">
        <ele>3021.61</ele>
        <time>2018-05-11T11:21:22Z</time>
      </trkpt>
      <trkpt lat="42.83609" lon="0.11408">
        <ele>3021.42</ele>
        <time>2018-05-11T11:21:45Z</time>
      </trkpt>
      <trkpt lat="42.83609" lon="0.11409">
        <ele>3021.55</ele>
        <time>2018-05-11T11:22:14Z</time>
      </trkpt>
      <trkpt lat="42.83609" lon="0.11409">
        <ele>3021.74</ele>
        <time>2018-05-11T11:22:43Z</time>
      </trkpt>
      <trkpt lat="42.83609" lon="0.11407">
        <ele>3021.03</ele>
        <time>2018-05-11T11:23:09Z</time>
      </trkpt>
      <trkpt lat="42.8361" lon="0.1141">
        <ele>3021.63</ele>
        <time>2018-05-11T11:23:32Z</time>
      </trkpt>
      <trkpt lat="42.83617" lon="0.11406">
        <ele>3017.85</ele>
        <time>2018-05-11T11:23:36Z</time>
      </trkpt>
      <trkpt lat="42.83626" lon="0.11404">
        <ele>3013.27</ele>
        <time>2018-05-11T11:23:42Z</time>
      </trkpt>
      <trkpt lat="42.83626" lon="0.11405">
        <ele>3013.41</ele>
        <time>2018-05-11T11:23:43Z</time>
      </trkpt>
      <trkpt lat="42.83632" lon="0.11408">
        <ele>3009.33</ele>
        <time>2018-05-11T11:23:46Z</time>
      </trkpt>
      <trkpt lat="42.83634" lon="0.11405">
        <ele>3006.7</ele>
        <time>2018-05-11T11:23:47Z</time>
      </trkpt>
      <trkpt lat="42.83638" lon="0.11399">
        <ele>3005.29</ele>
        <time>2018-05-11T11:23:49Z</time>
      </trkpt>
      <trkpt lat="42.8364" lon="0.11396">
        <ele>3003.6</ele>
        <time>2018-05-11T11:23:51Z</time>
      </trkpt>
      <trkpt lat="42.83644" lon="0.11391">
        <ele>3001.34</ele>
        <time>2018-05-11T11:23:55Z</time>
      </trkpt>
      <trkpt lat="42.83646" lon="0.11389">
        <ele>3000.34</ele>
        <time>2018-05-11T11:23:57Z</time>
      </trkpt>
      <trkpt lat="42.83651" lon="0.11391">
        <ele>2996.87</ele>
        <time>2018-05-11T11:24:00Z</time>
      </trkpt>
      <trkpt lat="42.83656" lon="0.11407">
        <ele>2991.73</ele>
        <time>2018-05-11T11:24:07Z</time>
      </trkpt>
      <trkpt lat="42.83662" lon="0.11407">
        <ele>2987.95</ele>
        <time>2018-05-11T11:24:10Z</time>
      </trkpt>
      <trkpt lat="42.83664" lon="0.11418">
        <ele>2983.86</ele>
        <time>2018-05-11T11:24:13Z</time>
      </trkpt>
      <trkpt lat="42.83667" lon="0.11418">
        <ele>2980.55</ele>
        <time>2018-05-11T11:24:14Z</time>
      </trkpt>
      <trkpt lat="42.83672" lon="0.11414">
        <ele>2977.56</ele>
        <time>2018-05-11T11:24:18Z</time>
      </trkpt>
      <trkpt lat="42.83672" lon="0.11414">
        <ele>2977.62</ele>
        <time>2018-05-11T11:24:50Z</time>
      </trkpt>
      <trkpt lat="42.83672" lon="0.11413">
        <ele>2978.32</ele>
        <time>2018-05-11T11:25:11Z</time>
      </trkpt>
      <trkpt lat="42.8368" lon="0.11415">
        <ele>2973.12</ele>
        <time>2018-05-11T11:25:14Z</time>
      </trkpt>
      <trkpt lat="42.8368" lon="0.11423">
        <ele>2971.52</ele>
        <time>2018-05-11T11:25:16Z</time>
      </trkpt>
      <trkpt lat="42.8368" lon="0.11428">
        <ele>2970.38</ele>
        <time>2018-05-11T11:25:18Z</time>
      </trkpt>
      <trkpt lat="42.8368" lon="0.1143">
        <ele>2970.12</ele>
        <time>2018-05-11T11:25:29Z</time>
      </trkpt>
      <trkpt lat="42.8369" lon="0.11434">
        <ele>2966.13</ele>
        <time>2018-05-11T11:25:33Z</time>
      </trkpt>
      <trkpt lat="42.83697" lon="0.11441">
        <ele>2959.85</ele>
        <time>2018-05-11T11:25:35Z</time>
      </trkpt>
      <trkpt lat="42.83701" lon="0.1145">
        <ele>2955.96</ele>
        <time>2018-05-11T11:25:37Z</time>
      </trkpt>
      <trkpt lat="42.83709" lon="0.1145">
        <ele>2952.5</ele>
        <time>2018-05-11T11:25:39Z</time>
      </trkpt>
      <trkpt lat="42.83713" lon="0.11454">
        <ele>2949.48</ele>
        <time>2018-05-11T11:25:40Z</time>
      </trkpt>
      <trkpt lat="42.83714" lon="0.11459">
        <ele>2947.83</ele>
        <time>2018-05-11T11:25:41Z</time>
      </trkpt>
      <trkpt lat="42.83723" lon="0.11466">
        <ele>2941.27</ele>
        <time>2018-05-11T11:25:45Z</time>
      </trkpt>
      <trkpt lat="42.83725" lon="0.11462">
        <ele>2941.02</ele>
        <time>2018-05-11T11:25:46Z</time>
      </trkpt>
      <trkpt lat="42.83733" lon="0.11446">
        <ele>2937.46</ele>
        <time>2018-05-11T11:25:49Z</time>
      </trkpt>
      <trkpt lat="42.83736" lon="0.11438">
        <ele>2936.82</ele>
        <time>2018-05-11T11:25:51Z</time>
      </trkpt>
      <trkpt lat="42.83742" lon="0.11427">
        <ele>2935.3</ele>
        <time>2018-05-11T11:25:54Z</time>
      </trkpt>
      <trkpt lat="42.83751" lon="0.11412">
        <ele>2932.18</ele>
        <time>2018-05-11T11:26:01Z</time>
      </trkpt>
      <trkpt lat="42.83758" lon="0.11416">
        <ele>2926.34</ele>
        <time>2018-05-11T11:26:04Z</time>
      </trkpt>
      <trkpt lat="42.83765" lon="0.11422">
        <ele>2920.67</ele>
        <time>2018-05-11T11:26:07Z</time>
      </trkpt>
      <trkpt lat="42.8377" lon="0.11416">
        <ele>2918.43</ele>
        <time>2018-05-11T11:26:09Z</time>
      </trkpt>
      <trkpt lat="42.83776" lon="0.11416">
        <ele>2914.21</ele>
        <time>2018-05-11T11:26:12Z</time>
      </trkpt>
      <trkpt lat="42.83777" lon="0.11424">
        <ele>2910.59</ele>
        <time>2018-05-11T11:26:14Z</time>
      </trkpt>
      <trkpt lat="42.83783" lon="0.11429">
        <ele>2905.33</ele>
        <time>2018-05-11T11:26:16Z</time>
      </trkpt>
      <trkpt lat="42.83787" lon="0.11427">
        <ele>2901.91</ele>
        <time>2018-05-11T11:26:17Z</time>
      </trkpt>
      <trkpt lat="42.83794" lon="0.11434">
        <ele>2895.69</ele>
        <time>2018-05-11T11:26:20Z</time>
      </trkpt>
      <trkpt lat="42.83793" lon="0.11442">
        <ele>2892.66</ele>
        <time>2018-05-11T11:26:22Z</time>
      </trkpt>
      <trkpt lat="42.83795" lon="0.11453">
        <ele>2889.1</ele>
        <time>2018-05-11T11:26:26Z</time>
      </trkpt>
      <trkpt lat="42.83797" lon="0.11454">
        <ele>2887.46</ele>
        <time>2018-05-11T11:26:29Z</time>
      </trkpt>
      <trkpt lat="42.83796" lon="0.1145">
        <ele>2888.4</ele>
        <time>2018-05-11T11:27:01Z</time>
      </trkpt>
      <trkpt lat="42.83796" lon="0.11449">
        <ele>2889.02</ele>
        <time>2018-05-11T11:27:36Z</time>
      </trkpt>
      <trkpt lat="42.83795" lon="0.11448">
        <ele>2888.79</ele>
        <time>2018-05-11T11:28:08Z</time>
      </trkpt>
      <trkpt lat="42.83794" lon="0.11446">
        <ele>2888.47</ele>
        <time>2018-05-11T11:28:35Z</time>
      </trkpt>
      <trkpt lat="42.83794" lon="0.11446">
        <ele>2888.72</ele>
        <time>2018-05-11T11:28:40Z</time>
      </trkpt>
      <trkpt lat="42.83803" lon="0.1145">
        <ele>2884.34</ele>
        <time>2018-05-11T11:28:44Z</time>
      </trkpt>
      <trkpt lat="42.8381" lon="0.11458">
        <ele>2880.08</ele>
        <time>2018-05-11T11:28:46Z</time>
      </trkpt>
      <trkpt lat="42.83818" lon="0.11467">
        <ele>2874.84</ele>
        <time>2018-05-11T11:28:48Z</time>
      </trkpt>
      <trkpt lat="42.83827" lon="0.11476">
        <ele>2869.78</ele>
        <time>2018-05-11T11:28:50Z</time>
      </trkpt>
      <trkpt lat="42.8383" lon="0.11482">
        <ele>2867.28</ele>
        <time>2018-05-11T11:28:51Z</time>
      </trkpt>
      <trkpt lat="42.83846" lon="0.11502">
        <ele>2856.35</ele>
        <time>2018-05-11T11:28:55Z</time>
      </trkpt>
      <trkpt lat="42.8385" lon="0.11507">
        <ele>2853.15</ele>
        <time>2018-05-11T11:28:56Z</time>
      </trkpt>
      <trkpt lat="42.83864" lon="0.11513">
        <ele>2847.56</ele>
        <time>2018-05-11T11:28:59Z</time>
      </trkpt>
      <trkpt lat="42.8387" lon="0.11526">
        <ele>2841.67</ele>
        <time>2018-05-11T11:29:01Z</time>
      </trkpt>
      <trkpt lat="42.8388" lon="0.11539">
        <ele>2835.69</ele>
        <time>2018-05-11T11:29:03Z</time>
      </trkpt>
      <trkpt lat="42.83902" lon="0.11561">
        <ele>2825.67</ele>
        <time>2018-05-11T11:29:07Z</time>
      </trkpt>
      <trkpt lat="42.83905" lon="0.11571">
        <ele>2822.61</ele>
        <time>2018-05-11T11:29:08Z</time>
      </trkpt>
      <trkpt lat="42.83905" lon="0.11581">
        <ele>2820.58</ele>
        <time>2018-05-11T11:29:09Z</time>
      </trkpt>
      <trkpt lat="42.83919" lon="0.11603">
        <ele>2813.44</ele>
        <time>2018-05-11T11:29:13Z</time>
      </trkpt>
      <trkpt lat="42.83923" lon="0.1161">
        <ele>2809.83</ele>
        <time>2018-05-11T11:29:14Z</time>
      </trkpt>
      <trkpt lat="42.83926" lon="0.11617">
        <ele>2806.78</ele>
        <time>2018-05-11T11:29:15Z</time>
      </trkpt>
      <trkpt lat="42.83936" lon="0.11626">
        <ele>2801.54</ele>
        <time>2018-05-11T11:29:17Z</time>
      </trkpt>
      <trkpt lat="42.8394" lon="0.11634">
        <ele>2798.39</ele>
        <time>2018-05-11T11:29:18Z</time>
      </trkpt>
      <trkpt lat="42.83946" lon="0.11639">
        <ele>2795.24</ele>
        <time>2018-05-11T11:29:19Z</time>
      </trkpt>
      <trkpt lat="42.83952" lon="0.11644">
        <ele>2791.31</ele>
        <time>2018-05-11T11:29:20Z</time>
      </trkpt>
      <trkpt lat="42.83956" lon="0.1166">
        <ele>2786.56</ele>
        <time>2018-05-11T11:29:22Z</time>
      </trkpt>
      <trkpt lat="42.83967" lon="0.11666">
        <ele>2782.21</ele>
        <time>2018-05-11T11:29:24Z</time>
      </trkpt>
      <trkpt lat="42.83973" lon="0.11675">
        <ele>2778.3</ele>
        <time>2018-05-11T11:29:26Z</time>
      </trkpt>
      <trkpt lat="42.83979" lon="0.1168">
        <ele>2775.3</ele>
        <time>2018-05-11T11:29:28Z</time>
      </trkpt>
      <trkpt lat="42.83981" lon="0.11678">
        <ele>2775.75</ele>
        <time>2018-05-11T11:29:46Z</time>
      </trkpt>
      <trkpt lat="42.83981" lon="0.11676">
        <ele>2774.92</ele>
        <time>2018-05-11T11:30:19Z</time>
      </trkpt>
      <trkpt lat="42.83981" lon="0.11676">
        <ele>2775.45</ele>
        <time>2018-05-11T11:30:29Z</time>
      </trkpt>
      <trkpt lat="42.83989" lon="0.11688">
        <ele>2770.76</ele>
        <time>2018-05-11T11:30:33Z</time>
      </trkpt>
      <trkpt lat="42.83997" lon="0.11698">
        <ele>2768.21</ele>
        <time>2018-05-11T11:30:35Z</time>
      </trkpt>
      <trkpt lat="42.84022" lon="0.11724">
        <ele>2759.57</ele>
        <time>2018-05-11T11:30:39Z</time>
      </trkpt>
      <trkpt lat="42.84037" lon="0.11735">
        <ele>2755.92</ele>
        <time>2018-05-11T11:30:41Z</time>
      </trkpt>
      <trkpt lat="42.84046" lon="0.1175">
        <ele>2751.88</ele>
        <time>2018-05-11T11:30:43Z</time>
      </trkpt>
      <trkpt lat="42.84056" lon="0.11762">
        <ele>2748.26</ele>
        <time>2018-05-11T11:30:45Z</time>
      </trkpt>
      <trkpt lat="42.84068" lon="0.11769">
        <ele>2744.71</ele>
        <time>2018-05-11T11:30:47Z</time>
      </trkpt>
      <trkpt lat="42.84074" lon="0.11773">
        <ele>2743.13</ele>
        <time>2018-05-11T11:30:48Z</time>
      </trkpt>
      <trkpt lat="42.84095" lon="0.11789">
        <ele>2737.48</ele>
        <time>2018-05-11T11:30:51Z</time>
      </trkpt>
      <trkpt lat="42.84114" lon="0.11794">
        <ele>2735.9</ele>
        <time>2018-05-11T11:30:54Z</time>
      </trkpt>
      <trkpt lat="42.84132" lon="0.11802">
        <ele>2732.23</ele>
        <time>2018-05-11T11:30:57Z</time>
      </trkpt>
      <trkpt lat="42.8416" lon="0.11837">
        <ele>2725.84</ele>
        <time>2018-05-11T11:31:03Z</time>
      </trkpt>
      <trkpt lat="42.84169" lon="0.11874">
        <ele>2721.6</ele>
        <time>2018-05-11T11:31:07Z</time>
      </trkpt>
      <trkpt lat="42.84176" lon="0.11893">
        <ele>2719.22</ele>
        <time>2018-05-11T11:31:12Z</time>
      </trkpt>
      <trkpt lat="42.84196" lon="0.11924">
        <ele>2715.55</ele>
        <time>2018-05-11T11:31:18Z</time>
      </trkpt>
      <trkpt lat="42.84213" lon="0.11946">
        <ele>2714.1</ele>
        <time>2018-05-11T11:31:28Z</time>
      </trkpt>
      <trkpt lat="42.84213" lon="0.11943">
        <ele>2714.35</ele>
        <time>2018-05-11T11:32:01Z</time>
      </trkpt>
      <trkpt lat="42.84213" lon="0.11942">
        <ele>2713.92</ele>
        <time>2018-05-11T11:32:15Z</time>
      </trkpt>
      <trkpt lat="42.84216" lon="0.11957">
        <ele>2710.21</ele>
        <time>2018-05-11T11:32:20Z</time>
      </trkpt>
      <trkpt lat="42.84218" lon="0.1197">
        <ele>2705.77</ele>
        <time>2018-05-11T11:32:22Z</time>
      </trkpt>
      <trkpt lat="42.84223" lon="0.11983">
        <ele>2699.9</ele>
        <time>2018-05-11T11:32:24Z</time>
      </trkpt>
      <trkpt lat="42.84229" lon="0.11986">
        <ele>2696.7</ele>
        <time>2018-05-11T11:32:25Z</time>
      </trkpt>
      <trkpt lat="42.84232" lon="0.11992">
        <ele>2694.83</ele>
        <time>2018-05-11T11:32:26Z</time>
      </trkpt>
      <trkpt lat="42.84246" lon="0.12015">
        <ele>2683.97</ele>
        <time>2018-05-11T11:32:30Z</time>
      </trkpt>
      <trkpt lat="42.84251" lon="0.12018">
        <ele>2680.92</ele>
        <time>2018-05-11T11:32:31Z</time>
      </trkpt>
      <trkpt lat="42.84257" lon="0.12029">
        <ele>2676.34</ele>
        <time>2018-05-11T11:32:33Z</time>
      </trkpt>
      <trkpt lat="42.84262" lon="0.12034">
        <ele>2673.04</ele>
        <time>2018-05-11T11:32:34Z</time>
      </trkpt>
      <trkpt lat="42.8427" lon="0.12046">
        <ele>2668.32</ele>
        <time>2018-05-11T11:32:36Z</time>
      </trkpt>
      <trkpt lat="42.8428" lon="0.12057">
        <ele>2663.62</ele>
        <time>2018-05-11T11:32:38Z</time>
      </trkpt>
      <trkpt lat="42.84285" lon="0.12063">
        <ele>2660.5</ele>
        <time>2018-05-11T11:32:39Z</time>
      </trkpt>
      <trkpt lat="42.84298" lon="0.12067">
        <ele>2657.15</ele>
        <time>2018-05-11T11:32:41Z</time>
      </trkpt>
      <trkpt lat="42.8432" lon="0.12069">
        <ele>2654.75</ele>
        <time>2018-05-11T11:32:44Z</time>
      </trkpt>
      <trkpt lat="42.84337" lon="0.12081">
        <ele>2647.41</ele>
        <time>2018-05-11T11:32:47Z</time>
      </trkpt>
      <trkpt lat="42.84346" lon="0.12096">
        <ele>2642.82</ele>
        <time>2018-05-11T11:32:49Z</time>
      </trkpt>
      <trkpt lat="42.84358" lon="0.12104">
        <ele>2639.55</ele>
        <time>2018-05-11T11:32:51Z</time>
      </trkpt>
      <trkpt lat="42.84363" lon="0.1211">
        <ele>2636.13</ele>
        <time>2018-05-11T11:32:52Z</time>
      </trkpt>
      <trkpt lat="42.84371" lon="0.12116">
        <ele>2632.45</ele>
        <time>2018-05-11T11:32:54Z</time>
      </trkpt>
      <trkpt lat="42.84372" lon="0.12115">
        <ele>2632.52</ele>
        <time>2018-05-11T11:32:55Z</time>
      </trkpt>
      <trkpt lat="42.84372" lon="0.12113">
        <ele>2632.74</ele>
        <time>2018-05-11T11:33:12Z</time>
      </trkpt>
      <trkpt lat="42.84371" lon="0.12112">
        <ele>2632.98</ele>
        <time>2018-05-11T11:33:47Z</time>
      </trkpt>
      <trkpt lat="42.84371" lon="0.12111">
        <ele>2633.29</ele>
        <time>2018-05-11T11:34:20Z</time>
      </trkpt>
      <trkpt lat="42.84371" lon="0.12111">
        <ele>2632.81</ele>
        <time>2018-05-11T11:34:49Z</time>
      </trkpt>
      <trkpt lat="42.84378" lon="0.12107">
        <ele>2632.16</ele>
        <time>2018-05-11T11:34:53Z</time>
      </trkpt>
      <trkpt lat="42.84395" lon="0.1209">
        <ele>2628.61</ele>
        <time>2018-05-11T11:35:00Z</time>
      </trkpt>
      <trkpt lat="42.84401" lon="0.12085">
        <ele>2627.62</ele>
        <time>2018-05-11T11:35:02Z</time>
      </trkpt>
      <trkpt lat="42.8441" lon="0.12075">
        <ele>2625.6</ele>
        <time>2018-05-11T11:35:05Z</time>
      </trkpt>
      <trkpt lat="42.84425" lon="0.12083">
        <ele>2616.52</ele>
        <time>2018-05-11T11:35:09Z</time>
      </trkpt>
      <trkpt lat="42.84432" lon="0.12093">
        <ele>2610.99</ele>
        <time>2018-05-11T11:35:11Z</time>
      </trkpt>
      <trkpt lat="42.84433" lon="0.12101">
        <ele>2607.94</ele>
        <time>2018-05-11T11:35:12Z</time>
      </trkpt>
      <trkpt lat="42.84434" lon="0.12114">
        <ele>2604.02</ele>
        <time>2018-05-11T11:35:14Z</time>
      </trkpt>
      <trkpt lat="42.84435" lon="0.12118">
        <ele>2600.98</ele>
        <time>2018-05-11T11:35:15Z</time>
      </trkpt>
      <trkpt lat="42.84443" lon="0.12119">
        <ele>2597.58</ele>
        <time>2018-05-11T11:35:16Z</time>
      </trkpt>
      <trkpt lat="42.84457" lon="0.12123">
        <ele>2591.9</ele>
        <time>2018-05-11T11:35:19Z</time>
      </trkpt>
      <trkpt lat="42.84453" lon="0.12133">
        <ele>2587.78</ele>
        <time>2018-05-11T11:35:21Z</time>
      </trkpt>
      <trkpt lat="42.84451" lon="0.12136">
        <ele>2587</ele>
        <time>2018-05-11T11:35:23Z</time>
      </trkpt>
      <trkpt lat="42.8445" lon="0.12138">
        <ele>2587.92</ele>
        <time>2018-05-11T11:35:29Z</time>
      </trkpt>
      <trkpt lat="42.8445" lon="0.12138">
        <ele>2587.65</ele>
        <time>2018-05-11T11:35:39Z</time>
      </trkpt>
      <trkpt lat="42.84458" lon="0.12142">
        <ele>2583.96</ele>
        <time>2018-05-11T11:35:42Z</time>
      </trkpt>
      <trkpt lat="42.84462" lon="0.12141">
        <ele>2582.8</ele>
        <time>2018-05-11T11:35:43Z</time>
      </trkpt>
      <trkpt lat="42.84479" lon="0.12139">
        <ele>2579.2</ele>
        <time>2018-05-11T11:35:48Z</time>
      </trkpt>
      <trkpt lat="42.84478" lon="0.12139">
        <ele>2578.53</ele>
        <time>2018-05-11T11:36:08Z</time>
      </trkpt>
      <trkpt lat="42.84476" lon="0.12138">
        <ele>2578.57</ele>
        <time>2018-05-11T11:37:07Z</time>
      </trkpt>
      <trkpt lat="42.84477" lon="0.12138">
        <ele>2577.57</ele>
        <time>2018-05-11T11:37:31Z</time>
      </trkpt>
      <trkpt lat="42.84485" lon="0.12139">
        <ele>2575.63</ele>
        <time>2018-05-11T11:37:36Z</time>
      </trkpt>
      <trkpt lat="42.84485" lon="0.12146">
        <ele>2571.05</ele>
        <time>2018-05-11T11:37:38Z</time>
      </trkpt>
      <trkpt lat="42.84482" lon="0.12157">
        <ele>2566.01</ele>
        <time>2018-05-11T11:37:41Z</time>
      </trkpt>
      <trkpt lat="42.84488" lon="0.12161">
        <ele>2562.76</ele>
        <time>2018-05-11T11:37:43Z</time>
      </trkpt>
      <trkpt lat="42.84488" lon="0.12166">
        <ele>2559.49</ele>
        <time>2018-05-11T11:37:44Z</time>
      </trkpt>
      <trkpt lat="42.84485" lon="0.12173">
        <ele>2555.64</ele>
        <time>2018-05-11T11:37:46Z</time>
      </trkpt>
      <trkpt lat="42.84483" lon="0.12182">
        <ele>2552.37</ele>
        <time>2018-05-11T11:37:49Z</time>
      </trkpt>
      <trkpt lat="42.84487" lon="0.12186">
        <ele>2548.21</ele>
        <time>2018-05-11T11:37:50Z</time>
      </trkpt>
      <trkpt lat="42.84491" lon="0.12187">
        <ele>2545.12</ele>
        <time>2018-05-11T11:37:51Z</time>
      </trkpt>
      <trkpt lat="42.845" lon="0.12191">
        <ele>2541.56</ele>
        <time>2018-05-11T11:37:54Z</time>
      </trkpt>
      <trkpt lat="42.84499" lon="0.12197">
        <ele>2537.68</ele>
        <time>2018-05-11T11:37:55Z</time>
      </trkpt>
      <trkpt lat="42.84496" lon="0.12201">
        <ele>2536.09</ele>
        <time>2018-05-11T11:37:56Z</time>
      </trkpt>
      <trkpt lat="42.8449" lon="0.1221">
        <ele>2531.96</ele>
        <time>2018-05-11T11:37:59Z</time>
      </trkpt>
      <trkpt lat="42.84491" lon="0.12222">
        <ele>2525.25</ele>
        <time>2018-05-11T11:38:02Z</time>
      </trkpt>
      <trkpt lat="42.84492" lon="0.12228">
        <ele>2522.22</ele>
        <time>2018-05-11T11:38:04Z</time>
      </trkpt>
      <trkpt lat="42.84493" lon="0.12232">
        <ele>2520.38</ele>
        <time>2018-05-11T11:38:06Z</time>
      </trkpt>
      <trkpt lat="42.84494" lon="0.12236">
        <ele>2518.07</ele>
        <time>2018-05-11T11:38:09Z</time>
      </trkpt>
      <trkpt lat="42.84495" lon="0.12237">
        <ele>2516.29</ele>
        <time>2018-05-11T11:38:13Z</time>
      </trkpt>
      <trkpt lat="42.84495" lon="0.12239">
        <ele>2517.2</ele>
        <time>2018-05-11T11:38:30Z</time>
      </trkpt>
      <trkpt lat="42.84497" lon="0.12239">
        <ele>2516.64</ele>
        <time>2018-05-11T11:38:50Z</time>
      </trkpt>
      <trkpt lat="42.84498" lon="0.12238">
        <ele>2515.99</ele>
        <time>2018-05-11T11:39:17Z</time>
      </trkpt>
      <trkpt lat="42.84497" lon="0.12237">
        <ele>2516.26</ele>
        <time>2018-05-11T11:39:41Z</time>
      </trkpt>
      <trkpt lat="42.84495" lon="0.12238">
        <ele>2515.82</ele>
        <time>2018-05-11T11:39:57Z</time>
      </trkpt>
      <trkpt lat="42.84494" lon="0.12238">
        <ele>2515.84</ele>
        <time>2018-05-11T11:40:31Z</time>
      </trkpt>
      <trkpt lat="42.84494" lon="0.12237">
        <ele>2515.54</ele>
        <time>2018-05-11T11:41:01Z</time>
      </trkpt>
      <trkpt lat="42.84492" lon="0.12232">
        <ele>2518.65</ele>
        <time>2018-05-11T11:41:14Z</time>
      </trkpt>
      <trkpt lat="42.84491" lon="0.12227">
        <ele>2521.32</ele>
        <time>2018-05-11T11:41:31Z</time>
      </trkpt>
      <trkpt lat="42.84492" lon="0.1222">
        <ele>2523.31</ele>
        <time>2018-05-11T11:41:51Z</time>
      </trkpt>
      <trkpt lat="42.84493" lon="0.12218">
        <ele>2524.59</ele>
        <time>2018-05-11T11:42:09Z</time>
      </trkpt>
      <trkpt lat="42.84492" lon="0.1222">
        <ele>2524.21</ele>
        <time>2018-05-11T11:42:13Z</time>
      </trkpt>
      <trkpt lat="42.84492" lon="0.12226">
        <ele>2520.75</ele>
        <time>2018-05-11T11:42:24Z</time>
      </trkpt>
      <trkpt lat="42.84493" lon="0.12231">
        <ele>2517.61</ele>
        <time>2018-05-11T11:42:34Z</time>
      </trkpt>
      <trkpt lat="42.84493" lon="0.12238">
        <ele>2514.93</ele>
        <time>2018-05-11T11:42:49Z</time>
      </trkpt>
      <trkpt lat="42.84493" lon="0.12238">
        <ele>2515.27</ele>
        <time>2018-05-11T11:43:12Z</time>
      </trkpt>
      <trkpt lat="42.84493" lon="0.12237">
        <ele>2515.24</ele>
        <time>2018-05-11T11:43:40Z</time>
      </trkpt>
      <trkpt lat="42.84493" lon="0.12237">
        <ele>2515.21</ele>
        <time>2018-05-11T11:43:46Z</time>
      </trkpt>
      <trkpt lat="42.84488" lon="0.12249">
        <ele>2511.24</ele>
        <time>2018-05-11T11:43:49Z</time>
      </trkpt>
      <trkpt lat="42.84485" lon="0.12259">
        <ele>2506.31</ele>
        <time>2018-05-11T11:43:51Z</time>
      </trkpt>
      <trkpt lat="42.84489" lon="0.12275">
        <ele>2500.07</ele>
        <time>2018-05-11T11:43:53Z</time>
      </trkpt>
      <trkpt lat="42.84488" lon="0.12301">
        <ele>2494.66</ele>
        <time>2018-05-11T11:43:55Z</time>
      </trkpt>
      <trkpt lat="42.84482" lon="0.12359">
        <ele>2489.49</ele>
        <time>2018-05-11T11:44:00Z</time>
      </trkpt>
      <trkpt lat="42.84483" lon="0.12396">
        <ele>2486.71</ele>
        <time>2018-05-11T11:44:04Z</time>
      </trkpt>
      <trkpt lat="42.84484" lon="0.12422">
        <ele>2483.54</ele>
        <time>2018-05-11T11:44:07Z</time>
      </trkpt>
      <trkpt lat="42.84484" lon="0.12446">
        <ele>2481.63</ele>
        <time>2018-05-11T11:44:10Z</time>
      </trkpt>
      <trkpt lat="42.84484" lon="0.12466">
        <ele>2479.83</ele>
        <time>2018-05-11T11:44:18Z</time>
      </trkpt>
      <trkpt lat="42.84483" lon="0.12468">
        <ele>2479.88</ele>
        <time>2018-05-11T11:44:48Z</time>
      </trkpt>
      <trkpt lat="42.84484" lon="0.12467">
        <ele>2479.43</ele>
        <time>2018-05-11T11:45:40Z</time>
      </trkpt>
      <trkpt lat="42.84485" lon="0.12463">
        <ele>2479.18</ele>
        <time>2018-05-11T11:46:21Z</time>
      </trkpt>
      <trkpt lat="42.845" lon="0.1247">
        <ele>2476.15</ele>
        <time>2018-05-11T11:46:25Z</time>
      </trkpt>
      <trkpt lat="42.84514" lon="0.12492">
        <ele>2470.85</ele>
        <time>2018-05-11T11:46:30Z</time>
      </trkpt>
      <trkpt lat="42.84518" lon="0.12509">
        <ele>2467.19</ele>
        <time>2018-05-11T11:46:34Z</time>
      </trkpt>
      <trkpt lat="42.8452" lon="0.12521">
        <ele>2464.05</ele>
        <time>2018-05-11T11:46:37Z</time>
      </trkpt>
      <trkpt lat="42.84524" lon="0.12533">
        <ele>2460.9</ele>
        <time>2018-05-11T11:46:40Z</time>
      </trkpt>
      <trkpt lat="42.84523" lon="0.12535">
        <ele>2459.31</ele>
        <time>2018-05-11T11:46:42Z</time>
      </trkpt>
      <trkpt lat="42.84523" lon="0.12535">
        <ele>2459.19</ele>
        <time>2018-05-11T11:47:09Z</time>
      </trkpt>
      <trkpt lat="42.84522" lon="0.12535">
        <ele>2459.52</ele>
        <time>2018-05-11T11:47:19Z</time>
      </trkpt>
      <trkpt lat="42.84523" lon="0.12544">
        <ele>2456.3</ele>
        <time>2018-05-11T11:47:23Z</time>
      </trkpt>
      <trkpt lat="42.84523" lon="0.12543">
        <ele>2456.02</ele>
        <time>2018-05-11T11:47:51Z</time>
      </trkpt>
      <trkpt lat="42.84524" lon="0.12545">
        <ele>2455.45</ele>
        <time>2018-05-11T11:48:15Z</time>
      </trkpt>
      <trkpt lat="42.84522" lon="0.12558">
        <ele>2451.88</ele>
        <time>2018-05-11T11:48:18Z</time>
      </trkpt>
      <trkpt lat="42.84518" lon="0.12561">
        <ele>2451.05</ele>
        <time>2018-05-11T11:48:19Z</time>
      </trkpt>
      <trkpt lat="42.84506" lon="0.12569">
        <ele>2448.14</ele>
        <time>2018-05-11T11:48:22Z</time>
      </trkpt>
      <trkpt lat="42.845" lon="0.12575">
        <ele>2446.37</ele>
        <time>2018-05-11T11:48:24Z</time>
      </trkpt>
      <trkpt lat="42.84504" lon="0.12588">
        <ele>2440.19</ele>
        <time>2018-05-11T11:48:27Z</time>
      </trkpt>
      <trkpt lat="42.84507" lon="0.12602">
        <ele>2433.6</ele>
        <time>2018-05-11T11:48:29Z</time>
      </trkpt>
      <trkpt lat="42.84499" lon="0.12615">
        <ele>2429.95</ele>
        <time>2018-05-11T11:48:32Z</time>
      </trkpt>
      <trkpt lat="42.845" lon="0.12623">
        <ele>2425.52</ele>
        <time>2018-05-11T11:48:34Z</time>
      </trkpt>
      <trkpt lat="42.84499" lon="0.12643">
        <ele>2418.58</ele>
        <time>2018-05-11T11:48:38Z</time>
      </trkpt>
      <trkpt lat="42.84494" lon="0.12647">
        <ele>2417.07</ele>
        <time>2018-05-11T11:48:39Z</time>
      </trkpt>
      <trkpt lat="42.84481" lon="0.1266">
        <ele>2412.81</ele>
        <time>2018-05-11T11:48:43Z</time>
      </trkpt>
      <trkpt lat="42.84469" lon="0.12673">
        <ele>2409.18</ele>
        <time>2018-05-11T11:48:47Z</time>
      </trkpt>
      <trkpt lat="42.84456" lon="0.12684">
        <ele>2405.64</ele>
        <time>2018-05-11T11:48:52Z</time>
      </trkpt>
      <trkpt lat="42.84453" lon="0.12685">
        <ele>2406.58</ele>
        <time>2018-05-11T11:49:03Z</time>
      </trkpt>
      <trkpt lat="42.84453" lon="0.12683">
        <ele>2406.51</ele>
        <time>2018-05-11T11:49:32Z</time>
      </trkpt>
      <trkpt lat="42.84452" lon="0.12683">
        <ele>2406.31</ele>
        <time>2018-05-11T11:49:58Z</time>
      </trkpt>
      <trkpt lat="42.84452" lon="0.12684">
        <ele>2406.43</ele>
        <time>2018-05-11T11:50:26Z</time>
      </trkpt>
      <trkpt lat="42.84451" lon="0.12685">
        <ele>2406.13</ele>
        <time>2018-05-11T11:50:58Z</time>
      </trkpt>
      <trkpt lat="42.84452" lon="0.12684">
        <ele>2405.77</ele>
        <time>2018-05-11T11:51:41Z</time>
      </trkpt>
      <trkpt lat="42.84453" lon="0.12685">
        <ele>2405.68</ele>
        <time>2018-05-11T11:52:05Z</time>
      </trkpt>
      <trkpt lat="42.84457" lon="0.12692">
        <ele>2401.41</ele>
        <time>2018-05-11T11:52:09Z</time>
      </trkpt>
      <trkpt lat="42.84458" lon="0.12692">
        <ele>2401.32</ele>
        <time>2018-05-11T11:52:10Z</time>
      </trkpt>
      <trkpt lat="42.84458" lon="0.1269">
        <ele>2401.55</ele>
        <time>2018-05-11T11:52:34Z</time>
      </trkpt>
      <trkpt lat="42.84457" lon="0.12689">
        <ele>2400.92</ele>
        <time>2018-05-11T11:53:20Z</time>
      </trkpt>
      <trkpt lat="42.84463" lon="0.12691">
        <ele>2400.01</ele>
        <time>2018-05-11T11:53:23Z</time>
      </trkpt>
      <trkpt lat="42.8447" lon="0.1269">
        <ele>2398.37</ele>
        <time>2018-05-11T11:53:25Z</time>
      </trkpt>
      <trkpt lat="42.84475" lon="0.12701">
        <ele>2392.72</ele>
        <time>2018-05-11T11:53:28Z</time>
      </trkpt>
      <trkpt lat="42.84475" lon="0.12706">
        <ele>2389.7</ele>
        <time>2018-05-11T11:53:29Z</time>
      </trkpt>
      <trkpt lat="42.84481" lon="0.12711">
        <ele>2386.41</ele>
        <time>2018-05-11T11:53:31Z</time>
      </trkpt>
      <trkpt lat="42.84487" lon="0.1272">
        <ele>2381.57</ele>
        <time>2018-05-11T11:53:33Z</time>
      </trkpt>
      <trkpt lat="42.84493" lon="0.12732">
        <ele>2375.52</ele>
        <time>2018-05-11T11:53:35Z</time>
      </trkpt>
      <trkpt lat="42.84502" lon="0.12742">
        <ele>2370.93</ele>
        <time>2018-05-11T11:53:37Z</time>
      </trkpt>
      <trkpt lat="42.84502" lon="0.1275">
        <ele>2366.35</ele>
        <time>2018-05-11T11:53:43Z</time>
      </trkpt>
      <trkpt lat="42.84508" lon="0.1276">
        <ele>2362.26</ele>
        <time>2018-05-11T11:53:46Z</time>
      </trkpt>
      <trkpt lat="42.84512" lon="0.12763">
        <ele>2361.66</ele>
        <time>2018-05-11T11:53:47Z</time>
      </trkpt>
      <trkpt lat="42.84519" lon="0.1277">
        <ele>2361</ele>
        <time>2018-05-11T11:53:49Z</time>
      </trkpt>
      <trkpt lat="42.84533" lon="0.12787">
        <ele>2357.27</ele>
        <time>2018-05-11T11:53:54Z</time>
      </trkpt>
      <trkpt lat="42.84546" lon="0.128">
        <ele>2354.2</ele>
        <time>2018-05-11T11:53:58Z</time>
      </trkpt>
      <trkpt lat="42.84553" lon="0.12806">
        <ele>2350.99</ele>
        <time>2018-05-11T11:54:00Z</time>
      </trkpt>
      <trkpt lat="42.84564" lon="0.12818">
        <ele>2347.25</ele>
        <time>2018-05-11T11:54:04Z</time>
      </trkpt>
      <trkpt lat="42.84568" lon="0.12822">
        <ele>2346.5</ele>
        <time>2018-05-11T11:54:16Z</time>
      </trkpt>
      <trkpt lat="42.84567" lon="0.12819">
        <ele>2345.95</ele>
        <time>2018-05-11T11:54:49Z</time>
      </trkpt>
      <trkpt lat="42.84566" lon="0.1282">
        <ele>2346.57</ele>
        <time>2018-05-11T11:55:59Z</time>
      </trkpt>
      <trkpt lat="42.84566" lon="0.1282">
        <ele>2345.88</ele>
        <time>2018-05-11T11:56:29Z</time>
      </trkpt>
      <trkpt lat="42.8457" lon="0.12823">
        <ele>2345.16</ele>
        <time>2018-05-11T11:56:32Z</time>
      </trkpt>
      <trkpt lat="42.84574" lon="0.12825">
        <ele>2344.01</ele>
        <time>2018-05-11T11:56:34Z</time>
      </trkpt>
      <trkpt lat="42.84578" lon="0.12828">
        <ele>2342.93</ele>
        <time>2018-05-11T11:56:36Z</time>
      </trkpt>
      <trkpt lat="42.84575" lon="0.12837">
        <ele>2338.17</ele>
        <time>2018-05-11T11:56:39Z</time>
      </trkpt>
      <trkpt lat="42.84579" lon="0.12846">
        <ele>2332.83</ele>
        <time>2018-05-11T11:56:42Z</time>
      </trkpt>
      <trkpt lat="42.8458" lon="0.12854">
        <ele>2327.81</ele>
        <time>2018-05-11T11:56:44Z</time>
      </trkpt>
      <trkpt lat="42.84578" lon="0.12859">
        <ele>2325.94</ele>
        <time>2018-05-11T11:56:46Z</time>
      </trkpt>
      <trkpt lat="42.84575" lon="0.1287">
        <ele>2319.83</ele>
        <time>2018-05-11T11:56:49Z</time>
      </trkpt>
      <trkpt lat="42.84578" lon="0.12873">
        <ele>2316.76</ele>
        <time>2018-05-11T11:56:50Z</time>
      </trkpt>
      <trkpt lat="42.84585" lon="0.12874">
        <ele>2313.58</ele>
        <time>2018-05-11T11:56:52Z</time>
      </trkpt>
      <trkpt lat="42.8459" lon="0.12882">
        <ele>2309.05</ele>
        <time>2018-05-11T11:56:55Z</time>
      </trkpt>
      <trkpt lat="42.84587" lon="0.12889">
        <ele>2305</ele>
        <time>2018-05-11T11:56:57Z</time>
      </trkpt>
      <trkpt lat="42.84585" lon="0.12896">
        <ele>2301.93</ele>
        <time>2018-05-11T11:56:59Z</time>
      </trkpt>
      <trkpt lat="42.84587" lon="0.12902">
        <ele>2297.82</ele>
        <time>2018-05-11T11:57:00Z</time>
      </trkpt>
      <trkpt lat="42.84592" lon="0.12907">
        <ele>2293.74</ele>
        <time>2018-05-11T11:57:02Z</time>
      </trkpt>
      <trkpt lat="42.8459" lon="0.12916">
        <ele>2289.09</ele>
        <time>2018-05-11T11:57:04Z</time>
      </trkpt>
      <trkpt lat="42.84587" lon="0.12919">
        <ele>2286.47</ele>
        <time>2018-05-11T11:57:05Z</time>
      </trkpt>
      <trkpt lat="42.84587" lon="0.12931">
        <ele>2278.5</ele>
        <time>2018-05-11T11:57:09Z</time>
      </trkpt>
      <trkpt lat="42.84591" lon="0.12932">
        <ele>2276.35</ele>
        <time>2018-05-11T11:57:10Z</time>
      </trkpt>
      <trkpt lat="42.84591" lon="0.12947">
        <ele>2269.5</ele>
        <time>2018-05-11T11:57:14Z</time>
      </trkpt>
      <trkpt lat="42.84588" lon="0.12957">
        <ele>2265.17</ele>
        <time>2018-05-11T11:57:16Z</time>
      </trkpt>
      <trkpt lat="42.84591" lon="0.12961">
        <ele>2262.89</ele>
        <time>2018-05-11T11:57:17Z</time>
      </trkpt>
      <trkpt lat="42.84591" lon="0.12979">
        <ele>2255.3</ele>
        <time>2018-05-11T11:57:21Z</time>
      </trkpt>
      <trkpt lat="42.84595" lon="0.12992">
        <ele>2251.4</ele>
        <time>2018-05-11T11:57:23Z</time>
      </trkpt>
      <trkpt lat="42.84594" lon="0.12997">
        <ele>2247.78</ele>
        <time>2018-05-11T11:57:24Z</time>
      </trkpt>
      <trkpt lat="42.84596" lon="0.13014">
        <ele>2241.7</ele>
        <time>2018-05-11T11:57:28Z</time>
      </trkpt>
      <trkpt lat="42.84596" lon="0.13027">
        <ele>2236.78</ele>
        <time>2018-05-11T11:57:31Z</time>
      </trkpt>
      <trkpt lat="42.8459" lon="0.13037">
        <ele>2232.28</ele>
        <time>2018-05-11T11:57:35Z</time>
      </trkpt>
      <trkpt lat="42.84592" lon="0.13048">
        <ele>2228.82</ele>
        <time>2018-05-11T11:57:39Z</time>
      </trkpt>
      <trkpt lat="42.84592" lon="0.13047">
        <ele>2228.01</ele>
        <time>2018-05-11T11:57:41Z</time>
      </trkpt>
      <trkpt lat="42.84592" lon="0.13047">
        <ele>2229.28</ele>
        <time>2018-05-11T11:57:46Z</time>
      </trkpt>
      <trkpt lat="42.84586" lon="0.13047">
        <ele>2228.96</ele>
        <time>2018-05-11T11:57:49Z</time>
      </trkpt>
      <trkpt lat="42.84586" lon="0.13046">
        <ele>2228.99</ele>
        <time>2018-05-11T11:58:05Z</time>
      </trkpt>
      <trkpt lat="42.84591" lon="0.13047">
        <ele>2229.25</ele>
        <time>2018-05-11T11:58:43Z</time>
      </trkpt>
      <trkpt lat="42.84593" lon="0.13047">
        <ele>2229.17</ele>
        <time>2018-05-11T11:59:26Z</time>
      </trkpt>
      <trkpt lat="42.84594" lon="0.13045">
        <ele>2228.99</ele>
        <time>2018-05-11T12:00:04Z</time>
      </trkpt>
      <trkpt lat="42.84595" lon="0.13045">
        <ele>2229.1</ele>
        <time>2018-05-11T12:00:37Z</time>
      </trkpt>
      <trkpt lat="42.84595" lon="0.13046">
        <ele>2229.4</ele>
        <time>2018-05-11T12:01:29Z</time>
      </trkpt>
      <trkpt lat="42.84595" lon="0.13046">
        <ele>2229.27</ele>
        <time>2018-05-11T12:01:50Z</time>
      </trkpt>
      <trkpt lat="42.84584" lon="0.13051">
        <ele>2225.05</ele>
        <time>2018-05-11T12:01:55Z</time>
      </trkpt>
      <trkpt lat="42.84581" lon="0.13061">
        <ele>2221.3</ele>
        <time>2018-05-11T12:01:57Z</time>
      </trkpt>
      <trkpt lat="42.84574" lon="0.13064">
        <ele>2217.45</ele>
        <time>2018-05-11T12:01:59Z</time>
      </trkpt>
      <trkpt lat="42.84573" lon="0.13075">
        <ele>2212.27</ele>
        <time>2018-05-11T12:02:01Z</time>
      </trkpt>
      <trkpt lat="42.84568" lon="0.13086">
        <ele>2207.85</ele>
        <time>2018-05-11T12:02:03Z</time>
      </trkpt>
      <trkpt lat="42.8456" lon="0.13092">
        <ele>2202.14</ele>
        <time>2018-05-11T12:02:05Z</time>
      </trkpt>
      <trkpt lat="42.84549" lon="0.13096">
        <ele>2196.71</ele>
        <time>2018-05-11T12:02:07Z</time>
      </trkpt>
      <trkpt lat="42.84537" lon="0.13094">
        <ele>2195.41</ele>
        <time>2018-05-11T12:02:09Z</time>
      </trkpt>
      <trkpt lat="42.84525" lon="0.13089">
        <ele>2193.37</ele>
        <time>2018-05-11T12:02:11Z</time>
      </trkpt>
      <trkpt lat="42.84516" lon="0.13088">
        <ele>2192.62</ele>
        <time>2018-05-11T12:02:13Z</time>
      </trkpt>
      <trkpt lat="42.84509" lon="0.13092">
        <ele>2192.38</ele>
        <time>2018-05-11T12:02:15Z</time>
      </trkpt>
      <trkpt lat="42.84482" lon="0.13097">
        <ele>2189.23</ele>
        <time>2018-05-11T12:02:24Z</time>
      </trkpt>
      <trkpt lat="42.84477" lon="0.13098">
        <ele>2188.28</ele>
        <time>2018-05-11T12:02:25Z</time>
      </trkpt>
      <trkpt lat="42.84458" lon="0.13111">
        <ele>2185.84</ele>
        <time>2018-05-11T12:02:30Z</time>
      </trkpt>
      <trkpt lat="42.84458" lon="0.13131">
        <ele>2180.67</ele>
        <time>2018-05-11T12:02:33Z</time>
      </trkpt>
      <trkpt lat="42.8446" lon="0.13149">
        <ele>2176.19</ele>
        <time>2018-05-11T12:02:35Z</time>
      </trkpt>
      <trkpt lat="42.84466" lon="0.13185">
        <ele>2169.36</ele>
        <time>2018-05-11T12:02:39Z</time>
      </trkpt>
      <trkpt lat="42.84474" lon="0.13208">
        <ele>2165.08</ele>
        <time>2018-05-11T12:02:42Z</time>
      </trkpt>
      <trkpt lat="42.84476" lon="0.1324">
        <ele>2160.34</ele>
        <time>2018-05-11T12:02:46Z</time>
      </trkpt>
      <trkpt lat="42.84469" lon="0.13259">
        <ele>2157.02</ele>
        <time>2018-05-11T12:02:49Z</time>
      </trkpt>
      <trkpt lat="42.84465" lon="0.13266">
        <ele>2157.98</ele>
        <time>2018-05-11T12:02:57Z</time>
      </trkpt>
      <trkpt lat="42.84467" lon="0.13265">
        <ele>2157.63</ele>
        <time>2018-05-11T12:03:06Z</time>
      </trkpt>
      <trkpt lat="42.84467" lon="0.13277">
        <ele>2156.94</ele>
        <time>2018-05-11T12:03:10Z</time>
      </trkpt>
      <trkpt lat="42.84461" lon="0.13306">
        <ele>2151.53</ele>
        <time>2018-05-11T12:03:14Z</time>
      </trkpt>
      <trkpt lat="42.84457" lon="0.13314">
        <ele>2151.57</ele>
        <time>2018-05-11T12:03:15Z</time>
      </trkpt>
      <trkpt lat="42.84454" lon="0.13318">
        <ele>2150.99</ele>
        <time>2018-05-11T12:03:16Z</time>
      </trkpt>
      <trkpt lat="42.84437" lon="0.13338">
        <ele>2151.17</ele>
        <time>2018-05-11T12:03:27Z</time>
      </trkpt>
      <trkpt lat="42.84431" lon="0.13344">
        <ele>2151.51</ele>
        <time>2018-05-11T12:03:34Z</time>
      </trkpt>
      <trkpt lat="42.84419" lon="0.13355">
        <ele>2151.19</ele>
        <time>2018-05-11T12:03:51Z</time>
      </trkpt>
      <trkpt lat="42.84409" lon="0.13366">
        <ele>2151.19</ele>
        <time>2018-05-11T12:04:08Z</time>
      </trkpt>
      <trkpt lat="42.84409" lon="0.13366">
        <ele>2150.89</ele>
        <time>2018-05-11T12:04:28Z</time>
      </trkpt>
      <trkpt lat="42.84408" lon="0.13365">
        <ele>2150.89</ele>
        <time>2018-05-11T12:04:47Z</time>
      </trkpt>
      <trkpt lat="42.84408" lon="0.13366">
        <ele>2150.81</ele>
        <time>2018-05-11T12:05:08Z</time>
      </trkpt>
      <trkpt lat="42.84407" lon="0.13365">
        <ele>2150.69</ele>
        <time>2018-05-11T12:05:33Z</time>
      </trkpt>
      <trkpt lat="42.84406" lon="0.13363">
        <ele>2150.21</ele>
        <time>2018-05-11T12:05:51Z</time>
      </trkpt>
      <trkpt lat="42.84406" lon="0.13363">
        <ele>2148.85</ele>
        <time>2018-05-11T12:06:12Z</time>
      </trkpt>
      <trkpt lat="42.84404" lon="0.13362">
        <ele>2147.89</ele>
        <time>2018-05-11T12:07:10Z</time>
      </trkpt>
      <trkpt lat="42.84405" lon="0.13361">
        <ele>2146.92</ele>
        <time>2018-05-11T12:08:05Z</time>
      </trkpt>
      <trkpt lat="42.84404" lon="0.13362">
        <ele>2147.48</ele>
        <time>2018-05-11T12:08:42Z</time>
      </trkpt>
      <trkpt lat="42.84406" lon="0.13362">
        <ele>2146.67</ele>
        <time>2018-05-11T12:09:20Z</time>
      </trkpt>
      <trkpt lat="42.84405" lon="0.13361">
        <ele>2146.64</ele>
        <time>2018-05-11T12:10:27Z</time>
      </trkpt>
      <trkpt lat="42.84406" lon="0.13361">
        <ele>2145.76</ele>
        <time>2018-05-11T12:11:46Z</time>
      </trkpt>
      <trkpt lat="42.84406" lon="0.13361">
        <ele>2145.71</ele>
        <time>2018-05-11T12:13:04Z</time>
      </trkpt>
      <trkpt lat="42.84405" lon="0.13361">
        <ele>2145.62</ele>
        <time>2018-05-11T12:14:18Z</time>
      </trkpt>
      <trkpt lat="42.84405" lon="0.13361">
        <ele>2145.38</ele>
        <time>2018-05-11T12:15:34Z</time>
      </trkpt>
      <trkpt lat="42.84405" lon="0.13362">
        <ele>2144.6</ele>
        <time>2018-05-11T12:16:28Z</time>
      </trkpt>
      <trkpt lat="42.84404" lon="0.13362">
        <ele>2144.36</ele>
        <time>2018-05-11T12:17:30Z</time>
      </trkpt>
      <trkpt lat="42.84404" lon="0.13362">
        <ele>2144.81</ele>
        <time>2018-05-11T12:18:32Z</time>
      </trkpt>
      <trkpt lat="42.84403" lon="0.13363">
        <ele>2144.11</ele>
        <time>2018-05-11T12:19:18Z</time>
      </trkpt>
      <trkpt lat="42.84403" lon="0.13363">
        <ele>2143.97</ele>
        <time>2018-05-11T12:19:49Z</time>
      </trkpt>
      <trkpt lat="42.844" lon="0.13364">
        <ele>2143.61</ele>
        <time>2018-05-11T12:20:21Z</time>
      </trkpt>
      <trkpt lat="42.84397" lon="0.13366">
        <ele>2143.29</ele>
        <time>2018-05-11T12:20:48Z</time>
      </trkpt>
      <trkpt lat="42.84395" lon="0.13367">
        <ele>2143.15</ele>
        <time>2018-05-11T12:21:14Z</time>
      </trkpt>
      <trkpt lat="42.84395" lon="0.13366">
        <ele>2143.13</ele>
        <time>2018-05-11T12:21:45Z</time>
      </trkpt>
      <trkpt lat="42.84396" lon="0.13364">
        <ele>2143.09</ele>
        <time>2018-05-11T12:22:11Z</time>
      </trkpt>
      <trkpt lat="42.84396" lon="0.13364">
        <ele>2142.64</ele>
        <time>2018-05-11T12:22:18Z</time>
      </trkpt>
      <trkpt lat="42.84399" lon="0.13365">
        <ele>2142.52</ele>
        <time>2018-05-11T12:22:42Z</time>
      </trkpt>
      <trkpt lat="42.84401" lon="0.13363">
        <ele>2142.35</ele>
        <time>2018-05-11T12:23:10Z</time>
      </trkpt>
      <trkpt lat="42.84402" lon="0.13363">
        <ele>2142.13</ele>
        <time>2018-05-11T12:24:01Z</time>
      </trkpt>
      <trkpt lat="42.84403" lon="0.13364">
        <ele>2141.65</ele>
        <time>2018-05-11T12:24:51Z</time>
      </trkpt>
      <trkpt lat="42.84403" lon="0.13363">
        <ele>2141.41</ele>
        <time>2018-05-11T12:25:42Z</time>
      </trkpt>
      <trkpt lat="42.84403" lon="0.13363">
        <ele>2140.84</ele>
        <time>2018-05-11T12:26:32Z</time>
      </trkpt>
      <trkpt lat="42.84403" lon="0.13363">
        <ele>2140.68</ele>
        <time>2018-05-11T12:27:26Z</time>
      </trkpt>
      <trkpt lat="42.84403" lon="0.13363">
        <ele>2140.36</ele>
        <time>2018-05-11T12:28:22Z</time>
      </trkpt>
      <trkpt lat="42.84402" lon="0.13363">
        <ele>2140</ele>
        <time>2018-05-11T12:29:14Z</time>
      </trkpt>
      <trkpt lat="42.84401" lon="0.13363">
        <ele>2139.59</ele>
        <time>2018-05-11T12:29:45Z</time>
      </trkpt>
      <trkpt lat="42.84401" lon="0.13364">
        <ele>2139.36</ele>
        <time>2018-05-11T12:30:16Z</time>
      </trkpt>
      <trkpt lat="42.844" lon="0.13364">
        <ele>2139.53</ele>
        <time>2018-05-11T12:30:44Z</time>
      </trkpt>
      <trkpt lat="42.84403" lon="0.13366">
        <ele>2139.96</ele>
        <time>2018-05-11T12:31:05Z</time>
      </trkpt>
      <trkpt lat="42.84402" lon="0.13367">
        <ele>2138.71</ele>
        <time>2018-05-11T12:31:46Z</time>
      </trkpt>
      <trkpt lat="42.84403" lon="0.13366">
        <ele>2138.32</ele>
        <time>2018-05-11T12:32:51Z</time>
      </trkpt>
      <trkpt lat="42.84403" lon="0.13366">
        <ele>2139.09</ele>
        <time>2018-05-11T12:33:52Z</time>
      </trkpt>
      <trkpt lat="42.84402" lon="0.13367">
        <ele>2139.78</ele>
        <time>2018-05-11T12:34:35Z</time>
      </trkpt>
      <trkpt lat="42.84402" lon="0.13366">
        <ele>2138.85</ele>
        <time>2018-05-11T12:34:58Z</time>
      </trkpt>
      <trkpt lat="42.84402" lon="0.13367">
        <ele>2139.03</ele>
        <time>2018-05-11T12:35:21Z</time>
      </trkpt>
      <trkpt lat="42.84402" lon="0.13366">
        <ele>2138.89</ele>
        <time>2018-05-11T12:35:50Z</time>
      </trkpt>
      <trkpt lat="42.84402" lon="0.13368">
        <ele>2138.36</ele>
        <time>2018-05-11T12:36:14Z</time>
      </trkpt>
      <trkpt lat="42.84397" lon="0.13372">
        <ele>2138.65</ele>
        <time>2018-05-11T12:36:23Z</time>
      </trkpt>
      <trkpt lat="42.84394" lon="0.13374">
        <ele>2138.9</ele>
        <time>2018-05-11T12:36:26Z</time>
      </trkpt>
      <trkpt lat="42.84386" lon="0.13378">
        <ele>2137.89</ele>
        <time>2018-05-11T12:36:36Z</time>
      </trkpt>
      <trkpt lat="42.84375" lon="0.13383">
        <ele>2137.08</ele>
        <time>2018-05-11T12:36:50Z</time>
      </trkpt>
      <trkpt lat="42.84373" lon="0.13384">
        <ele>2137.12</ele>
        <time>2018-05-11T12:36:52Z</time>
      </trkpt>
      <trkpt lat="42.84359" lon="0.1339">
        <ele>2136.24</ele>
        <time>2018-05-11T12:37:06Z</time>
      </trkpt>
      <trkpt lat="42.84344" lon="0.13395">
        <ele>2135.6</ele>
        <time>2018-05-11T12:37:21Z</time>
      </trkpt>
      <trkpt lat="42.8433" lon="0.13407">
        <ele>2133.41</ele>
        <time>2018-05-11T12:37:34Z</time>
      </trkpt>
      <trkpt lat="42.84325" lon="0.1342">
        <ele>2132.79</ele>
        <time>2018-05-11T12:37:45Z</time>
      </trkpt>
      <trkpt lat="42.84323" lon="0.13426">
        <ele>2132.76</ele>
        <time>2018-05-11T12:37:49Z</time>
      </trkpt>
      <trkpt lat="42.84322" lon="0.13446">
        <ele>2133.05</ele>
        <time>2018-05-11T12:38:05Z</time>
      </trkpt>
      <trkpt lat="42.84322" lon="0.13458">
        <ele>2133.3</ele>
        <time>2018-05-11T12:38:16Z</time>
      </trkpt>
      <trkpt lat="42.84323" lon="0.13461">
        <ele>2133.72</ele>
        <time>2018-05-11T12:38:18Z</time>
      </trkpt>
      <trkpt lat="42.84321" lon="0.13479">
        <ele>2134.68</ele>
        <time>2018-05-11T12:38:37Z</time>
      </trkpt>
      <trkpt lat="42.84319" lon="0.13493">
        <ele>2135.6</ele>
        <time>2018-05-11T12:38:54Z</time>
      </trkpt>
      <trkpt lat="42.84316" lon="0.13506">
        <ele>2137.07</ele>
        <time>2018-05-11T12:39:08Z</time>
      </trkpt>
      <trkpt lat="42.84313" lon="0.1352">
        <ele>2137.95</ele>
        <time>2018-05-11T12:39:24Z</time>
      </trkpt>
      <trkpt lat="42.84312" lon="0.13533">
        <ele>2139.51</ele>
        <time>2018-05-11T12:39:40Z</time>
      </trkpt>
      <trkpt lat="42.8431" lon="0.13549">
        <ele>2141.49</ele>
        <time>2018-05-11T12:39:58Z</time>
      </trkpt>
      <trkpt lat="42.84308" lon="0.13564">
        <ele>2142.63</ele>
        <time>2018-05-11T12:40:12Z</time>
      </trkpt>
      <trkpt lat="42.84305" lon="0.13581">
        <ele>2143.6</ele>
        <time>2018-05-11T12:40:28Z</time>
      </trkpt>
      <trkpt lat="42.84305" lon="0.136">
        <ele>2144.26</ele>
        <time>2018-05-11T12:40:45Z</time>
      </trkpt>
      <trkpt lat="42.84304" lon="0.13604">
        <ele>2144</ele>
        <time>2018-05-11T12:40:54Z</time>
      </trkpt>
      <trkpt lat="42.84303" lon="0.13625">
        <ele>2143.6</ele>
        <time>2018-05-11T12:41:10Z</time>
      </trkpt>
      <trkpt lat="42.84302" lon="0.13646">
        <ele>2143.73</ele>
        <time>2018-05-11T12:41:26Z</time>
      </trkpt>
      <trkpt lat="42.84296" lon="0.13665">
        <ele>2144.64</ele>
        <time>2018-05-11T12:41:43Z</time>
      </trkpt>
      <trkpt lat="42.84291" lon="0.13681">
        <ele>2144.79</ele>
        <time>2018-05-11T12:42:00Z</time>
      </trkpt>
      <trkpt lat="42.84287" lon="0.13694">
        <ele>2144.44</ele>
        <time>2018-05-11T12:42:13Z</time>
      </trkpt>
      <trkpt lat="42.84283" lon="0.13709">
        <ele>2145.2</ele>
        <time>2018-05-11T12:42:28Z</time>
      </trkpt>
      <trkpt lat="42.84279" lon="0.13719">
        <ele>2143.92</ele>
        <time>2018-05-11T12:42:38Z</time>
      </trkpt>
      <trkpt lat="42.84275" lon="0.1373">
        <ele>2144.32</ele>
        <time>2018-05-11T12:42:51Z</time>
      </trkpt>
      <trkpt lat="42.84272" lon="0.13742">
        <ele>2144.12</ele>
        <time>2018-05-11T12:43:04Z</time>
      </trkpt>
      <trkpt lat="42.84264" lon="0.13759">
        <ele>2143.22</ele>
        <time>2018-05-11T12:43:20Z</time>
      </trkpt>
      <trkpt lat="42.84263" lon="0.13764">
        <ele>2142.73</ele>
        <time>2018-05-11T12:43:25Z</time>
      </trkpt>
      <trkpt lat="42.84263" lon="0.13774">
        <ele>2143.15</ele>
        <time>2018-05-11T12:43:36Z</time>
      </trkpt>
      <trkpt lat="42.84261" lon="0.1379">
        <ele>2141.84</ele>
        <time>2018-05-11T12:43:49Z</time>
      </trkpt>
      <trkpt lat="42.84255" lon="0.13811">
        <ele>2140.3</ele>
        <time>2018-05-11T12:44:04Z</time>
      </trkpt>
      <trkpt lat="42.84249" lon="0.13836">
        <ele>2138.38</ele>
        <time>2018-05-11T12:44:19Z</time>
      </trkpt>
      <trkpt lat="42.84237" lon="0.13856">
        <ele>2137.4</ele>
        <time>2018-05-11T12:44:33Z</time>
      </trkpt>
      <trkpt lat="42.84226" lon="0.13876">
        <ele>2134.49</ele>
        <time>2018-05-11T12:44:46Z</time>
      </trkpt>
      <trkpt lat="42.84215" lon="0.13896">
        <ele>2132.54</ele>
        <time>2018-05-11T12:44:59Z</time>
      </trkpt>
      <trkpt lat="42.84206" lon="0.13915">
        <ele>2132.23</ele>
        <time>2018-05-11T12:45:15Z</time>
      </trkpt>
      <trkpt lat="42.84203" lon="0.13927">
        <ele>2132.24</ele>
        <time>2018-05-11T12:45:23Z</time>
      </trkpt>
      <trkpt lat="42.84203" lon="0.1393">
        <ele>2133.01</ele>
        <time>2018-05-11T12:45:38Z</time>
      </trkpt>
      <trkpt lat="42.84202" lon="0.13932">
        <ele>2133.03</ele>
        <time>2018-05-11T12:45:51Z</time>
      </trkpt>
      <trkpt lat="42.84201" lon="0.13939">
        <ele>2133.25</ele>
        <time>2018-05-11T12:45:57Z</time>
      </trkpt>
      <trkpt lat="42.84199" lon="0.13952">
        <ele>2133.41</ele>
        <time>2018-05-11T12:46:09Z</time>
      </trkpt>
      <trkpt lat="42.84195" lon="0.13958">
        <ele>2134.25</ele>
        <time>2018-05-11T12:46:24Z</time>
      </trkpt>
      <trkpt lat="42.8419" lon="0.13963">
        <ele>2133.94</ele>
        <time>2018-05-11T12:46:31Z</time>
      </trkpt>
      <trkpt lat="42.84175" lon="0.13977">
        <ele>2133.89</ele>
        <time>2018-05-11T12:46:50Z</time>
      </trkpt>
      <trkpt lat="42.84163" lon="0.14">
        <ele>2134.45</ele>
        <time>2018-05-11T12:47:08Z</time>
      </trkpt>
      <trkpt lat="42.84153" lon="0.1402">
        <ele>2133.76</ele>
        <time>2018-05-11T12:47:26Z</time>
      </trkpt>
      <trkpt lat="42.84144" lon="0.14037">
        <ele>2133.71</ele>
        <time>2018-05-11T12:47:43Z</time>
      </trkpt>
      <trkpt lat="42.84138" lon="0.14048">
        <ele>2134.09</ele>
        <time>2018-05-11T12:47:59Z</time>
      </trkpt>
      <trkpt lat="42.84135" lon="0.14052">
        <ele>2133.61</ele>
        <time>2018-05-11T12:48:06Z</time>
      </trkpt>
      <trkpt lat="42.84133" lon="0.14054">
        <ele>2134.01</ele>
        <time>2018-05-11T12:48:09Z</time>
      </trkpt>
      <trkpt lat="42.8412" lon="0.14077">
        <ele>2134.73</ele>
        <time>2018-05-11T12:48:33Z</time>
      </trkpt>
      <trkpt lat="42.84111" lon="0.14091">
        <ele>2135.57</ele>
        <time>2018-05-11T12:48:49Z</time>
      </trkpt>
      <trkpt lat="42.84103" lon="0.14107">
        <ele>2136.68</ele>
        <time>2018-05-11T12:49:06Z</time>
      </trkpt>
      <trkpt lat="42.84091" lon="0.14131">
        <ele>2138.53</ele>
        <time>2018-05-11T12:49:31Z</time>
      </trkpt>
      <trkpt lat="42.84083" lon="0.14146">
        <ele>2139.99</ele>
        <time>2018-05-11T12:49:48Z</time>
      </trkpt>
      <trkpt lat="42.84075" lon="0.14163">
        <ele>2141.33</ele>
        <time>2018-05-11T12:50:05Z</time>
      </trkpt>
      <trkpt lat="42.84069" lon="0.14178">
        <ele>2142.04</ele>
        <time>2018-05-11T12:50:21Z</time>
      </trkpt>
      <trkpt lat="42.8406" lon="0.142">
        <ele>2143.07</ele>
        <time>2018-05-11T12:50:41Z</time>
      </trkpt>
      <trkpt lat="42.84051" lon="0.1422">
        <ele>2144.76</ele>
        <time>2018-05-11T12:51:02Z</time>
      </trkpt>
      <trkpt lat="42.8405" lon="0.14224">
        <ele>2144.94</ele>
        <time>2018-05-11T12:51:05Z</time>
      </trkpt>
      <trkpt lat="42.84049" lon="0.1423">
        <ele>2146.03</ele>
        <time>2018-05-11T12:51:11Z</time>
      </trkpt>
      <trkpt lat="42.84047" lon="0.14233">
        <ele>2146.45</ele>
        <time>2018-05-11T12:51:14Z</time>
      </trkpt>
      <trkpt lat="42.84034" lon="0.14246">
        <ele>2147.4</ele>
        <time>2018-05-11T12:51:30Z</time>
      </trkpt>
      <trkpt lat="42.84029" lon="0.14252">
        <ele>2147.13</ele>
        <time>2018-05-11T12:51:45Z</time>
      </trkpt>
      <trkpt lat="42.84029" lon="0.14257">
        <ele>2147.19</ele>
        <time>2018-05-11T12:51:49Z</time>
      </trkpt>
      <trkpt lat="42.84027" lon="0.14281">
        <ele>2147.01</ele>
        <time>2018-05-11T12:52:08Z</time>
      </trkpt>
      <trkpt lat="42.84028" lon="0.14297">
        <ele>2149.13</ele>
        <time>2018-05-11T12:52:26Z</time>
      </trkpt>
      <trkpt lat="42.84028" lon="0.14313">
        <ele>2150.74</ele>
        <time>2018-05-11T12:52:45Z</time>
      </trkpt>
      <trkpt lat="42.84025" lon="0.14317">
        <ele>2151.78</ele>
        <time>2018-05-11T12:52:50Z</time>
      </trkpt>
      <trkpt lat="42.84018" lon="0.14329">
        <ele>2154.14</ele>
        <time>2018-05-11T12:53:08Z</time>
      </trkpt>
      <trkpt lat="42.84015" lon="0.1433">
        <ele>2154.24</ele>
        <time>2018-05-11T12:53:47Z</time>
      </trkpt>
      <trkpt lat="42.84016" lon="0.14331">
        <ele>2153.99</ele>
        <time>2018-05-11T12:54:26Z</time>
      </trkpt>
      <trkpt lat="42.84016" lon="0.14332">
        <ele>2154.31</ele>
        <time>2018-05-11T12:54:59Z</time>
      </trkpt>
      <trkpt lat="42.84018" lon="0.14333">
        <ele>2154.18</ele>
        <time>2018-05-11T12:55:16Z</time>
      </trkpt>
      <trkpt lat="42.84023" lon="0.14334">
        <ele>2153.43</ele>
        <time>2018-05-11T12:55:21Z</time>
      </trkpt>
      <trkpt lat="42.84038" lon="0.14336">
        <ele>2153.98</ele>
        <time>2018-05-11T12:55:36Z</time>
      </trkpt>
      <trkpt lat="42.84041" lon="0.14349">
        <ele>2155.77</ele>
        <time>2018-05-11T12:55:50Z</time>
      </trkpt>
      <trkpt lat="42.84042" lon="0.14351">
        <ele>2155.79</ele>
        <time>2018-05-11T12:56:10Z</time>
      </trkpt>
      <trkpt lat="42.84044" lon="0.14355">
        <ele>2155.71</ele>
        <time>2018-05-11T12:56:19Z</time>
      </trkpt>
      <trkpt lat="42.84045" lon="0.14361">
        <ele>2156.29</ele>
        <time>2018-05-11T12:56:24Z</time>
      </trkpt>
      <trkpt lat="42.84035" lon="0.14376">
        <ele>2156.8</ele>
        <time>2018-05-11T12:56:38Z</time>
      </trkpt>
      <trkpt lat="42.84024" lon="0.14386">
        <ele>2158.4</ele>
        <time>2018-05-11T12:56:54Z</time>
      </trkpt>
      <trkpt lat="42.84021" lon="0.14395">
        <ele>2160.28</ele>
        <time>2018-05-11T12:57:11Z</time>
      </trkpt>
      <trkpt lat="42.8402" lon="0.14394">
        <ele>2159.32</ele>
        <time>2018-05-11T12:57:39Z</time>
      </trkpt>
      <trkpt lat="42.84018" lon="0.14398">
        <ele>2159.64</ele>
        <time>2018-05-11T12:58:29Z</time>
      </trkpt>
      <trkpt lat="42.84014" lon="0.14406">
        <ele>2160.09</ele>
        <time>2018-05-11T12:58:36Z</time>
      </trkpt>
      <trkpt lat="42.84004" lon="0.14426">
        <ele>2161.36</ele>
        <time>2018-05-11T12:58:55Z</time>
      </trkpt>
      <trkpt lat="42.83996" lon="0.14447">
        <ele>2163.12</ele>
        <time>2018-05-11T12:59:15Z</time>
      </trkpt>
      <trkpt lat="42.83988" lon="0.14465">
        <ele>2164.19</ele>
        <time>2018-05-11T12:59:32Z</time>
      </trkpt>
      <trkpt lat="42.83984" lon="0.14478">
        <ele>2165.6</ele>
        <time>2018-05-11T12:59:45Z</time>
      </trkpt>
      <trkpt lat="42.83976" lon="0.14496">
        <ele>2166.34</ele>
        <time>2018-05-11T13:00:03Z</time>
      </trkpt>
      <trkpt lat="42.83971" lon="0.1451">
        <ele>2167.27</ele>
        <time>2018-05-11T13:00:17Z</time>
      </trkpt>
      <trkpt lat="42.83968" lon="0.14518">
        <ele>2167.39</ele>
        <time>2018-05-11T13:00:24Z</time>
      </trkpt>
      <trkpt lat="42.83963" lon="0.14529">
        <ele>2167.94</ele>
        <time>2018-05-11T13:00:36Z</time>
      </trkpt>
      <trkpt lat="42.83955" lon="0.14546">
        <ele>2169.04</ele>
        <time>2018-05-11T13:00:53Z</time>
      </trkpt>
      <trkpt lat="42.83948" lon="0.14556">
        <ele>2170.15</ele>
        <time>2018-05-11T13:01:07Z</time>
      </trkpt>
      <trkpt lat="42.83943" lon="0.14564">
        <ele>2171.27</ele>
        <time>2018-05-11T13:01:17Z</time>
      </trkpt>
      <trkpt lat="42.83936" lon="0.14575">
        <ele>2171.72</ele>
        <time>2018-05-11T13:01:28Z</time>
      </trkpt>
      <trkpt lat="42.83926" lon="0.14591">
        <ele>2172.22</ele>
        <time>2018-05-11T13:01:44Z</time>
      </trkpt>
      <trkpt lat="42.83919" lon="0.146">
        <ele>2172.84</ele>
        <time>2018-05-11T13:01:55Z</time>
      </trkpt>
      <trkpt lat="42.83905" lon="0.14616">
        <ele>2173.74</ele>
        <time>2018-05-11T13:02:15Z</time>
      </trkpt>
      <trkpt lat="42.83893" lon="0.1463">
        <ele>2174.14</ele>
        <time>2018-05-11T13:02:33Z</time>
      </trkpt>
      <trkpt lat="42.8389" lon="0.14634">
        <ele>2175.19</ele>
        <time>2018-05-11T13:02:51Z</time>
      </trkpt>
      <trkpt lat="42.8389" lon="0.14636">
        <ele>2174.91</ele>
        <time>2018-05-11T13:03:36Z</time>
      </trkpt>
      <trkpt lat="42.83891" lon="0.14636">
        <ele>2175.12</ele>
        <time>2018-05-11T13:04:08Z</time>
      </trkpt>
      <trkpt lat="42.83891" lon="0.14637">
        <ele>2175.24</ele>
        <time>2018-05-11T13:04:43Z</time>
      </trkpt>
      <trkpt lat="42.83889" lon="0.14636">
        <ele>2175.47</ele>
        <time>2018-05-11T13:05:03Z</time>
      </trkpt>
      <trkpt lat="42.8388" lon="0.14633">
        <ele>2177.36</ele>
        <time>2018-05-11T13:05:17Z</time>
      </trkpt>
      <trkpt lat="42.8388" lon="0.14633">
        <ele>2177.11</ele>
        <time>2018-05-11T13:06:09Z</time>
      </trkpt>
      <trkpt lat="42.83881" lon="0.14634">
        <ele>2177.29</ele>
        <time>2018-05-11T13:07:16Z</time>
      </trkpt>
      <trkpt lat="42.8388" lon="0.14634">
        <ele>2177.14</ele>
        <time>2018-05-11T13:08:00Z</time>
      </trkpt>
      <trkpt lat="42.83878" lon="0.14638">
        <ele>2177.25</ele>
        <time>2018-05-11T13:09:01Z</time>
      </trkpt>
      <trkpt lat="42.83878" lon="0.14639">
        <ele>2177.6</ele>
        <time>2018-05-11T13:09:39Z</time>
      </trkpt>
      <trkpt lat="42.83877" lon="0.14644">
        <ele>2177.93</ele>
        <time>2018-05-11T13:09:59Z</time>
      </trkpt>
      <trkpt lat="42.83878" lon="0.1465">
        <ele>2178.11</ele>
        <time>2018-05-11T13:10:05Z</time>
      </trkpt>
      <trkpt lat="42.83877" lon="0.14672">
        <ele>2177.48</ele>
        <time>2018-05-11T13:10:20Z</time>
      </trkpt>
      <trkpt lat="42.83869" lon="0.1469">
        <ele>2178.79</ele>
        <time>2018-05-11T13:10:37Z</time>
      </trkpt>
      <trkpt lat="42.83864" lon="0.14711">
        <ele>2180.11</ele>
        <time>2018-05-11T13:10:56Z</time>
      </trkpt>
      <trkpt lat="42.83861" lon="0.14724">
        <ele>2180.59</ele>
        <time>2018-05-11T13:11:08Z</time>
      </trkpt>
      <trkpt lat="42.83859" lon="0.14745">
        <ele>2181.32</ele>
        <time>2018-05-11T13:11:26Z</time>
      </trkpt>
      <trkpt lat="42.83858" lon="0.14765">
        <ele>2182.51</ele>
        <time>2018-05-11T13:11:43Z</time>
      </trkpt>
      <trkpt lat="42.83856" lon="0.14788">
        <ele>2183.18</ele>
        <time>2018-05-11T13:12:01Z</time>
      </trkpt>
      <trkpt lat="42.83855" lon="0.14809">
        <ele>2183.86</ele>
        <time>2018-05-11T13:12:18Z</time>
      </trkpt>
      <trkpt lat="42.83853" lon="0.14832">
        <ele>2184.88</ele>
        <time>2018-05-11T13:12:37Z</time>
      </trkpt>
      <trkpt lat="42.83852" lon="0.14849">
        <ele>2185.92</ele>
        <time>2018-05-11T13:12:53Z</time>
      </trkpt>
      <trkpt lat="42.83852" lon="0.1485">
        <ele>2186.16</ele>
        <time>2018-05-11T13:12:54Z</time>
      </trkpt>
      <trkpt lat="42.83851" lon="0.14872">
        <ele>2186.6</ele>
        <time>2018-05-11T13:13:11Z</time>
      </trkpt>
      <trkpt lat="42.83852" lon="0.14888">
        <ele>2187.55</ele>
        <time>2018-05-11T13:13:26Z</time>
      </trkpt>
      <trkpt lat="42.83854" lon="0.14908">
        <ele>2188.5</ele>
        <time>2018-05-11T13:13:43Z</time>
      </trkpt>
      <trkpt lat="42.83855" lon="0.14924">
        <ele>2189.27</ele>
        <time>2018-05-11T13:13:56Z</time>
      </trkpt>
      <trkpt lat="42.83862" lon="0.14943">
        <ele>2190.45</ele>
        <time>2018-05-11T13:14:14Z</time>
      </trkpt>
      <trkpt lat="42.83873" lon="0.14961">
        <ele>2189.73</ele>
        <time>2018-05-11T13:14:28Z</time>
      </trkpt>
      <trkpt lat="42.8388" lon="0.1498">
        <ele>2191.09</ele>
        <time>2018-05-11T13:14:44Z</time>
      </trkpt>
      <trkpt lat="42.83883" lon="0.14997">
        <ele>2192.46</ele>
        <time>2018-05-11T13:14:59Z</time>
      </trkpt>
      <trkpt lat="42.83883" lon="0.15002">
        <ele>2192.75</ele>
        <time>2018-05-11T13:15:03Z</time>
      </trkpt>
      <trkpt lat="42.83883" lon="0.15012">
        <ele>2193.7</ele>
        <time>2018-05-11T13:15:10Z</time>
      </trkpt>
      <trkpt lat="42.83883" lon="0.15016">
        <ele>2193.89</ele>
        <time>2018-05-11T13:15:13Z</time>
      </trkpt>
      <trkpt lat="42.83883" lon="0.15029">
        <ele>2194.85</ele>
        <time>2018-05-11T13:15:23Z</time>
      </trkpt>
      <trkpt lat="42.83885" lon="0.15044">
        <ele>2195.72</ele>
        <time>2018-05-11T13:15:35Z</time>
      </trkpt>
      <trkpt lat="42.83885" lon="0.15061">
        <ele>2197.19</ele>
        <time>2018-05-11T13:15:49Z</time>
      </trkpt>
      <trkpt lat="42.83883" lon="0.1508">
        <ele>2198.81</ele>
        <time>2018-05-11T13:16:05Z</time>
      </trkpt>
      <trkpt lat="42.8388" lon="0.15104">
        <ele>2199.18</ele>
        <time>2018-05-11T13:16:22Z</time>
      </trkpt>
      <trkpt lat="42.83879" lon="0.15119">
        <ele>2199.68</ele>
        <time>2018-05-11T13:16:33Z</time>
      </trkpt>
      <trkpt lat="42.83876" lon="0.15145">
        <ele>2199.53</ele>
        <time>2018-05-11T13:16:51Z</time>
      </trkpt>
      <trkpt lat="42.83874" lon="0.15151">
        <ele>2199.89</ele>
        <time>2018-05-11T13:16:55Z</time>
      </trkpt>
      <trkpt lat="42.83871" lon="0.15176">
        <ele>2200.09</ele>
        <time>2018-05-11T13:17:12Z</time>
      </trkpt>
      <trkpt lat="42.8387" lon="0.15181">
        <ele>2199.51</ele>
        <time>2018-05-11T13:17:15Z</time>
      </trkpt>
      <trkpt lat="42.83871" lon="0.1519">
        <ele>2199.5</ele>
        <time>2018-05-11T13:17:21Z</time>
      </trkpt>
      <trkpt lat="42.8387" lon="0.15207">
        <ele>2198.9</ele>
        <time>2018-05-11T13:17:32Z</time>
      </trkpt>
      <trkpt lat="42.83869" lon="0.15216">
        <ele>2198.38</ele>
        <time>2018-05-11T13:17:37Z</time>
      </trkpt>
      <trkpt lat="42.83873" lon="0.15247">
        <ele>2194.32</ele>
        <time>2018-05-11T13:17:48Z</time>
      </trkpt>
      <trkpt lat="42.83876" lon="0.15266">
        <ele>2191.73</ele>
        <time>2018-05-11T13:17:53Z</time>
      </trkpt>
      <trkpt lat="42.83877" lon="0.15268">
        <ele>2191.75</ele>
        <time>2018-05-11T13:17:54Z</time>
      </trkpt>
      <trkpt lat="42.83876" lon="0.1527">
        <ele>2191.54</ele>
        <time>2018-05-11T13:17:55Z</time>
      </trkpt>
      <trkpt lat="42.83876" lon="0.15271">
        <ele>2191.64</ele>
        <time>2018-05-11T13:17:56Z</time>
      </trkpt>
      <trkpt lat="42.83876" lon="0.15273">
        <ele>2191.74</ele>
        <time>2018-05-11T13:17:57Z</time>
      </trkpt>
      <trkpt lat="42.83876" lon="0.15275">
        <ele>2191.74</ele>
        <time>2018-05-11T13:17:58Z</time>
      </trkpt>
      <trkpt lat="42.83876" lon="0.15277">
        <ele>2191.73</ele>
        <time>2018-05-11T13:17:59Z</time>
      </trkpt>
      <trkpt lat="42.83876" lon="0.15279">
        <ele>2191.77</ele>
        <time>2018-05-11T13:18:00Z</time>
      </trkpt>
      <trkpt lat="42.83876" lon="0.15281">
        <ele>2191.39</ele>
        <time>2018-05-11T13:18:01Z</time>
      </trkpt>
      <trkpt lat="42.83876" lon="0.15283">
        <ele>2191.39</ele>
        <time>2018-05-11T13:18:02Z</time>
      </trkpt>
      <trkpt lat="42.83876" lon="0.15284">
        <ele>2191.27</ele>
        <time>2018-05-11T13:18:03Z</time>
      </trkpt>
      <trkpt lat="42.83876" lon="0.15286">
        <ele>2191.35</ele>
        <time>2018-05-11T13:18:04Z</time>
      </trkpt>
      <trkpt lat="42.83875" lon="0.15288">
        <ele>2191.41</ele>
        <time>2018-05-11T13:18:05Z</time>
      </trkpt>
      <trkpt lat="42.83875" lon="0.15289">
        <ele>2191.45</ele>
        <time>2018-05-11T13:18:06Z</time>
      </trkpt>
      <trkpt lat="42.83875" lon="0.1529">
        <ele>2191.85</ele>
        <time>2018-05-11T13:18:07Z</time>
      </trkpt>
      <trkpt lat="42.83875" lon="0.15292">
        <ele>2191.77</ele>
        <time>2018-05-11T13:18:08Z</time>
      </trkpt>
      <trkpt lat="42.83875" lon="0.15294">
        <ele>2191.64</ele>
        <time>2018-05-11T13:18:09Z</time>
      </trkpt>
      <trkpt lat="42.83875" lon="0.15295">
        <ele>2191.76</ele>
        <time>2018-05-11T13:18:10Z</time>
      </trkpt>
      <trkpt lat="42.83875" lon="0.15297">
        <ele>2191.75</ele>
        <time>2018-05-11T13:18:11Z</time>
      </trkpt>
      <trkpt lat="42.83875" lon="0.15298">
        <ele>2191.53</ele>
        <time>2018-05-11T13:18:12Z</time>
      </trkpt>
      <trkpt lat="42.83875" lon="0.153">
        <ele>2191.5</ele>
        <time>2018-05-11T13:18:13Z</time>
      </trkpt>
      <trkpt lat="42.83875" lon="0.15301">
        <ele>2191.66</ele>
        <time>2018-05-11T13:18:14Z</time>
      </trkpt>
      <trkpt lat="42.83874" lon="0.15323">
        <ele>2191.7</ele>
        <time>2018-05-11T13:18:28Z</time>
      </trkpt>
      <trkpt lat="42.83873" lon="0.15329">
        <ele>2192.13</ele>
        <time>2018-05-11T13:18:32Z</time>
      </trkpt>
      <trkpt lat="42.83873" lon="0.15331">
        <ele>2192.17</ele>
        <time>2018-05-11T13:18:33Z</time>
      </trkpt>
      <trkpt lat="42.83872" lon="0.15332">
        <ele>2191.86</ele>
        <time>2018-05-11T13:18:34Z</time>
      </trkpt>
      <trkpt lat="42.83872" lon="0.15356">
        <ele>2192.81</ele>
        <time>2018-05-11T13:18:50Z</time>
      </trkpt>
      <trkpt lat="42.83872" lon="0.15358">
        <ele>2192.68</ele>
        <time>2018-05-11T13:18:51Z</time>
      </trkpt>
      <trkpt lat="42.83872" lon="0.15359">
        <ele>2192.51</ele>
        <time>2018-05-11T13:18:52Z</time>
      </trkpt>
      <trkpt lat="42.83868" lon="0.15381">
        <ele>2193</ele>
        <time>2018-05-11T13:19:06Z</time>
      </trkpt>
      <trkpt lat="42.83868" lon="0.15392">
        <ele>2193.09</ele>
        <time>2018-05-11T13:19:15Z</time>
      </trkpt>
      <trkpt lat="42.83868" lon="0.15396">
        <ele>2193.48</ele>
        <time>2018-05-11T13:19:18Z</time>
      </trkpt>
      <trkpt lat="42.83869" lon="0.15398">
        <ele>2193.61</ele>
        <time>2018-05-11T13:19:19Z</time>
      </trkpt>
      <trkpt lat="42.83869" lon="0.15399">
        <ele>2193.58</ele>
        <time>2018-05-11T13:19:20Z</time>
      </trkpt>
      <trkpt lat="42.83869" lon="0.154">
        <ele>2193.83</ele>
        <time>2018-05-11T13:19:21Z</time>
      </trkpt>
      <trkpt lat="42.83869" lon="0.15402">
        <ele>2193.75</ele>
        <time>2018-05-11T13:19:22Z</time>
      </trkpt>
      <trkpt lat="42.83869" lon="0.15403">
        <ele>2193.56</ele>
        <time>2018-05-11T13:19:23Z</time>
      </trkpt>
      <trkpt lat="42.83869" lon="0.15405">
        <ele>2193.66</ele>
        <time>2018-05-11T13:19:24Z</time>
      </trkpt>
      <trkpt lat="42.83869" lon="0.15406">
        <ele>2193.39</ele>
        <time>2018-05-11T13:19:25Z</time>
      </trkpt>
      <trkpt lat="42.83869" lon="0.15408">
        <ele>2193.74</ele>
        <time>2018-05-11T13:19:26Z</time>
      </trkpt>
      <trkpt lat="42.83869" lon="0.1543">
        <ele>2193.96</ele>
        <time>2018-05-11T13:19:43Z</time>
      </trkpt>
      <trkpt lat="42.83869" lon="0.15436">
        <ele>2194.45</ele>
        <time>2018-05-11T13:19:48Z</time>
      </trkpt>
      <trkpt lat="42.83868" lon="0.15442">
        <ele>2194.99</ele>
        <time>2018-05-11T13:19:53Z</time>
      </trkpt>
      <trkpt lat="42.83866" lon="0.15458">
        <ele>2194.76</ele>
        <time>2018-05-11T13:20:04Z</time>
      </trkpt>
      <trkpt lat="42.83864" lon="0.15481">
        <ele>2194.77</ele>
        <time>2018-05-11T13:20:21Z</time>
      </trkpt>
      <trkpt lat="42.83864" lon="0.15482">
        <ele>2194.57</ele>
        <time>2018-05-11T13:20:22Z</time>
      </trkpt>
      <trkpt lat="42.83863" lon="0.1549">
        <ele>2194.65</ele>
        <time>2018-05-11T13:20:28Z</time>
      </trkpt>
      <trkpt lat="42.83863" lon="0.15491">
        <ele>2194.58</ele>
        <time>2018-05-11T13:20:29Z</time>
      </trkpt>
      <trkpt lat="42.83863" lon="0.15493">
        <ele>2195.02</ele>
        <time>2018-05-11T13:20:30Z</time>
      </trkpt>
      <trkpt lat="42.83858" lon="0.15518">
        <ele>2195.56</ele>
        <time>2018-05-11T13:20:48Z</time>
      </trkpt>
      <trkpt lat="42.83856" lon="0.15539">
        <ele>2194.43</ele>
        <time>2018-05-11T13:21:02Z</time>
      </trkpt>
      <trkpt lat="42.83855" lon="0.15557">
        <ele>2194.47</ele>
        <time>2018-05-11T13:21:17Z</time>
      </trkpt>
      <trkpt lat="42.83853" lon="0.15565">
        <ele>2194.38</ele>
        <time>2018-05-11T13:21:23Z</time>
      </trkpt>
      <trkpt lat="42.83853" lon="0.15567">
        <ele>2194.23</ele>
        <time>2018-05-11T13:21:24Z</time>
      </trkpt>
      <trkpt lat="42.83853" lon="0.15568">
        <ele>2194.17</ele>
        <time>2018-05-11T13:21:25Z</time>
      </trkpt>
      <trkpt lat="42.8385" lon="0.15573">
        <ele>2194.5</ele>
        <time>2018-05-11T13:21:29Z</time>
      </trkpt>
      <trkpt lat="42.83847" lon="0.15584">
        <ele>2194.67</ele>
        <time>2018-05-11T13:21:38Z</time>
      </trkpt>
      <trkpt lat="42.83844" lon="0.15589">
        <ele>2194.68</ele>
        <time>2018-05-11T13:21:42Z</time>
      </trkpt>
      <trkpt lat="42.83843" lon="0.15589">
        <ele>2194.76</ele>
        <time>2018-05-11T13:21:43Z</time>
      </trkpt>
      <trkpt lat="42.83842" lon="0.1559">
        <ele>2194.87</ele>
        <time>2018-05-11T13:21:44Z</time>
      </trkpt>
      <trkpt lat="42.83841" lon="0.15591">
        <ele>2194.66</ele>
        <time>2018-05-11T13:21:45Z</time>
      </trkpt>
      <trkpt lat="42.8384" lon="0.15592">
        <ele>2194.68</ele>
        <time>2018-05-11T13:21:46Z</time>
      </trkpt>
      <trkpt lat="42.83829" lon="0.15605">
        <ele>2195.22</ele>
        <time>2018-05-11T13:22:00Z</time>
      </trkpt>
      <trkpt lat="42.83817" lon="0.15618">
        <ele>2194.91</ele>
        <time>2018-05-11T13:22:14Z</time>
      </trkpt>
      <trkpt lat="42.83808" lon="0.15626">
        <ele>2193.92</ele>
        <time>2018-05-11T13:22:23Z</time>
      </trkpt>
      <trkpt lat="42.83806" lon="0.15627">
        <ele>2193.74</ele>
        <time>2018-05-11T13:22:24Z</time>
      </trkpt>
      <trkpt lat="42.83805" lon="0.15628">
        <ele>2193.83</ele>
        <time>2018-05-11T13:22:25Z</time>
      </trkpt>
      <trkpt lat="42.83789" lon="0.15641">
        <ele>2192.91</ele>
        <time>2018-05-11T13:22:43Z</time>
      </trkpt>
      <trkpt lat="42.83787" lon="0.15643">
        <ele>2193.33</ele>
        <time>2018-05-11T13:22:45Z</time>
      </trkpt>
      <trkpt lat="42.83786" lon="0.15644">
        <ele>2193.37</ele>
        <time>2018-05-11T13:22:46Z</time>
      </trkpt>
      <trkpt lat="42.83785" lon="0.15645">
        <ele>2192.93</ele>
        <time>2018-05-11T13:22:47Z</time>
      </trkpt>
      <trkpt lat="42.83773" lon="0.1566">
        <ele>2193.1</ele>
        <time>2018-05-11T13:23:02Z</time>
      </trkpt>
      <trkpt lat="42.83772" lon="0.15661">
        <ele>2193.69</ele>
        <time>2018-05-11T13:23:03Z</time>
      </trkpt>
      <trkpt lat="42.83771" lon="0.15662">
        <ele>2193.18</ele>
        <time>2018-05-11T13:23:04Z</time>
      </trkpt>
      <trkpt lat="42.83761" lon="0.15674">
        <ele>2193.89</ele>
        <time>2018-05-11T13:23:18Z</time>
      </trkpt>
      <trkpt lat="42.83758" lon="0.15678">
        <ele>2193.81</ele>
        <time>2018-05-11T13:23:34Z</time>
      </trkpt>
      <trkpt lat="42.83758" lon="0.15678">
        <ele>2193.7</ele>
        <time>2018-05-11T13:24:05Z</time>
      </trkpt>
      <trkpt lat="42.83757" lon="0.15678">
        <ele>2193.68</ele>
        <time>2018-05-11T13:24:40Z</time>
      </trkpt>
      <trkpt lat="42.83759" lon="0.15678">
        <ele>2193.78</ele>
        <time>2018-05-11T13:25:04Z</time>
      </trkpt>
      <trkpt lat="42.83758" lon="0.15677">
        <ele>2193.69</ele>
        <time>2018-05-11T13:25:36Z</time>
      </trkpt>
      <trkpt lat="42.83758" lon="0.15677">
        <ele>2193.79</ele>
        <time>2018-05-11T13:26:00Z</time>
      </trkpt>
      <trkpt lat="42.83758" lon="0.15677">
        <ele>2194.02</ele>
        <time>2018-05-11T13:26:37Z</time>
      </trkpt>
      <trkpt lat="42.83759" lon="0.15676">
        <ele>2194.03</ele>
        <time>2018-05-11T13:27:15Z</time>
      </trkpt>
      <trkpt lat="42.83758" lon="0.15677">
        <ele>2194.07</ele>
        <time>2018-05-11T13:27:37Z</time>
      </trkpt>
      <trkpt lat="42.83758" lon="0.15679">
        <ele>2194.38</ele>
        <time>2018-05-11T13:28:08Z</time>
      </trkpt>
      <trkpt lat="42.83757" lon="0.15678">
        <ele>2193.54</ele>
        <time>2018-05-11T13:28:30Z</time>
      </trkpt>
      <trkpt lat="42.83758" lon="0.15679">
        <ele>2194.15</ele>
        <time>2018-05-11T13:29:05Z</time>
      </trkpt>
      <trkpt lat="42.83757" lon="0.15679">
        <ele>2194.32</ele>
        <time>2018-05-11T13:29:32Z</time>
      </trkpt>
      <trkpt lat="42.83757" lon="0.15678">
        <ele>2194.09</ele>
        <time>2018-05-11T13:30:01Z</time>
      </trkpt>
      <trkpt lat="42.83757" lon="0.15679">
        <ele>2193.82</ele>
        <time>2018-05-11T13:30:32Z</time>
      </trkpt>
      <trkpt lat="42.83757" lon="0.1568">
        <ele>2194.12</ele>
        <time>2018-05-11T13:31:11Z</time>
      </trkpt>
      <trkpt lat="42.83758" lon="0.1568">
        <ele>2194.37</ele>
        <time>2018-05-11T13:31:43Z</time>
      </trkpt>
      <trkpt lat="42.83754" lon="0.1568">
        <ele>2194.76</ele>
        <time>2018-05-11T13:31:52Z</time>
      </trkpt>
      <trkpt lat="42.83753" lon="0.1568">
        <ele>2194.42</ele>
        <time>2018-05-11T13:31:53Z</time>
      </trkpt>
      <trkpt lat="42.83752" lon="0.1568">
        <ele>2194.77</ele>
        <time>2018-05-11T13:31:54Z</time>
      </trkpt>
      <trkpt lat="42.83735" lon="0.15683">
        <ele>2194.68</ele>
        <time>2018-05-11T13:32:09Z</time>
      </trkpt>
      <trkpt lat="42.8372" lon="0.15686">
        <ele>2194.19</ele>
        <time>2018-05-11T13:32:24Z</time>
      </trkpt>
      <trkpt lat="42.83706" lon="0.15692">
        <ele>2194.66</ele>
        <time>2018-05-11T13:32:39Z</time>
      </trkpt>
      <trkpt lat="42.83691" lon="0.15703">
        <ele>2193.93</ele>
        <time>2018-05-11T13:32:55Z</time>
      </trkpt>
      <trkpt lat="42.83687" lon="0.15706">
        <ele>2194.23</ele>
        <time>2018-05-11T13:33:11Z</time>
      </trkpt>
      <trkpt lat="42.83677" lon="0.15717">
        <ele>2194.47</ele>
        <time>2018-05-11T13:33:26Z</time>
      </trkpt>
      <trkpt lat="42.83677" lon="0.15719">
        <ele>2193.72</ele>
        <time>2018-05-11T13:33:40Z</time>
      </trkpt>
      <trkpt lat="42.83676" lon="0.15722">
        <ele>2193.62</ele>
        <time>2018-05-11T13:34:05Z</time>
      </trkpt>
      <trkpt lat="42.83675" lon="0.15723">
        <ele>2193.89</ele>
        <time>2018-05-11T13:34:06Z</time>
      </trkpt>
      <trkpt lat="42.83673" lon="0.15726">
        <ele>2193.71</ele>
        <time>2018-05-11T13:34:09Z</time>
      </trkpt>
      <trkpt lat="42.83672" lon="0.15727">
        <ele>2193.92</ele>
        <time>2018-05-11T13:34:10Z</time>
      </trkpt>
      <trkpt lat="42.83667" lon="0.15732">
        <ele>2193.43</ele>
        <time>2018-05-11T13:34:16Z</time>
      </trkpt>
      <trkpt lat="42.83666" lon="0.15733">
        <ele>2193.78</ele>
        <time>2018-05-11T13:34:17Z</time>
      </trkpt>
      <trkpt lat="42.83653" lon="0.15742">
        <ele>2193.23</ele>
        <time>2018-05-11T13:34:32Z</time>
      </trkpt>
      <trkpt lat="42.83642" lon="0.1575">
        <ele>2191.18</ele>
        <time>2018-05-11T13:34:44Z</time>
      </trkpt>
      <trkpt lat="42.83632" lon="0.15757">
        <ele>2189.87</ele>
        <time>2018-05-11T13:34:57Z</time>
      </trkpt>
      <trkpt lat="42.83632" lon="0.15757">
        <ele>2189.87</ele>
        <time>2018-05-11T13:34:58Z</time>
      </trkpt>
      <trkpt lat="42.83629" lon="0.15759">
        <ele>2189.52</ele>
        <time>2018-05-11T13:35:00Z</time>
      </trkpt>
      <trkpt lat="42.83627" lon="0.1576">
        <ele>2188.94</ele>
        <time>2018-05-11T13:35:01Z</time>
      </trkpt>
      <trkpt lat="42.83626" lon="0.15761">
        <ele>2188.77</ele>
        <time>2018-05-11T13:35:02Z</time>
      </trkpt>
      <trkpt lat="42.83624" lon="0.15763">
        <ele>2188.52</ele>
        <time>2018-05-11T13:35:03Z</time>
      </trkpt>
      <trkpt lat="42.83606" lon="0.15781">
        <ele>2185.3</ele>
        <time>2018-05-11T13:35:17Z</time>
      </trkpt>
      <trkpt lat="42.83604" lon="0.15785">
        <ele>2184.84</ele>
        <time>2018-05-11T13:35:21Z</time>
      </trkpt>
      <trkpt lat="42.83601" lon="0.15796">
        <ele>2185.79</ele>
        <time>2018-05-11T13:35:39Z</time>
      </trkpt>
      <trkpt lat="42.83601" lon="0.158">
        <ele>2186.11</ele>
        <time>2018-05-11T13:35:46Z</time>
      </trkpt>
      <trkpt lat="42.836" lon="0.15801">
        <ele>2185.95</ele>
        <time>2018-05-11T13:35:47Z</time>
      </trkpt>
      <trkpt lat="42.836" lon="0.15803">
        <ele>2186.39</ele>
        <time>2018-05-11T13:35:48Z</time>
      </trkpt>
      <trkpt lat="42.836" lon="0.15804">
        <ele>2186.31</ele>
        <time>2018-05-11T13:35:49Z</time>
      </trkpt>
      <trkpt lat="42.83599" lon="0.15806">
        <ele>2186.8</ele>
        <time>2018-05-11T13:35:50Z</time>
      </trkpt>
      <trkpt lat="42.83599" lon="0.15807">
        <ele>2186.41</ele>
        <time>2018-05-11T13:35:51Z</time>
      </trkpt>
      <trkpt lat="42.83598" lon="0.15809">
        <ele>2186.56</ele>
        <time>2018-05-11T13:35:52Z</time>
      </trkpt>
      <trkpt lat="42.83592" lon="0.15823">
        <ele>2186.18</ele>
        <time>2018-05-11T13:36:06Z</time>
      </trkpt>
      <trkpt lat="42.83592" lon="0.15823">
        <ele>2186.12</ele>
        <time>2018-05-11T13:36:24Z</time>
      </trkpt>
      <trkpt lat="42.83594" lon="0.15824">
        <ele>2186.2</ele>
        <time>2018-05-11T13:36:39Z</time>
      </trkpt>
      <trkpt lat="42.83595" lon="0.15825">
        <ele>2185.37</ele>
        <time>2018-05-11T13:37:03Z</time>
      </trkpt>
      <trkpt lat="42.83594" lon="0.15825">
        <ele>2185.61</ele>
        <time>2018-05-11T13:37:39Z</time>
      </trkpt>
      <trkpt lat="42.83593" lon="0.15825">
        <ele>2185.7</ele>
        <time>2018-05-11T13:38:23Z</time>
      </trkpt>
      <trkpt lat="42.83593" lon="0.15823">
        <ele>2185.97</ele>
        <time>2018-05-11T13:39:13Z</time>
      </trkpt>
      <trkpt lat="42.83593" lon="0.15823">
        <ele>2185.92</ele>
        <time>2018-05-11T13:40:01Z</time>
      </trkpt>
      <trkpt lat="42.83594" lon="0.15823">
        <ele>2187.11</ele>
        <time>2018-05-11T13:40:26Z</time>
      </trkpt>
      <trkpt lat="42.83594" lon="0.15823">
        <ele>2187.27</ele>
        <time>2018-05-11T13:40:47Z</time>
      </trkpt>
      <trkpt lat="42.83593" lon="0.15823">
        <ele>2186.92</ele>
        <time>2018-05-11T13:41:11Z</time>
      </trkpt>
      <trkpt lat="42.83594" lon="0.15824">
        <ele>2187.15</ele>
        <time>2018-05-11T13:41:35Z</time>
      </trkpt>
      <trkpt lat="42.83594" lon="0.15823">
        <ele>2187.58</ele>
        <time>2018-05-11T13:42:03Z</time>
      </trkpt>
      <trkpt lat="42.83594" lon="0.15823">
        <ele>2188.02</ele>
        <time>2018-05-11T13:42:28Z</time>
      </trkpt>
      <trkpt lat="42.83594" lon="0.15822">
        <ele>2187.06</ele>
        <time>2018-05-11T13:42:56Z</time>
      </trkpt>
      <trkpt lat="42.83592" lon="0.15823">
        <ele>2187.39</ele>
        <time>2018-05-11T13:43:28Z</time>
      </trkpt>
      <trkpt lat="42.83593" lon="0.15823">
        <ele>2187.1</ele>
        <time>2018-05-11T13:44:03Z</time>
      </trkpt>
      <trkpt lat="42.83596" lon="0.15823">
        <ele>2187.22</ele>
        <time>2018-05-11T13:44:29Z</time>
      </trkpt>
      <trkpt lat="42.83593" lon="0.15826">
        <ele>2187.22</ele>
        <time>2018-05-11T13:44:49Z</time>
      </trkpt>
      <trkpt lat="42.83592" lon="0.15827">
        <ele>2187.37</ele>
        <time>2018-05-11T13:44:50Z</time>
      </trkpt>
      <trkpt lat="42.83591" lon="0.15828">
        <ele>2186.9</ele>
        <time>2018-05-11T13:44:51Z</time>
      </trkpt>
      <trkpt lat="42.8359" lon="0.1583">
        <ele>2186.64</ele>
        <time>2018-05-11T13:44:52Z</time>
      </trkpt>
      <trkpt lat="42.83589" lon="0.15831">
        <ele>2186.27</ele>
        <time>2018-05-11T13:44:53Z</time>
      </trkpt>
      <trkpt lat="42.83587" lon="0.15832">
        <ele>2186.41</ele>
        <time>2018-05-11T13:44:54Z</time>
      </trkpt>
      <trkpt lat="42.83585" lon="0.15834">
        <ele>2185.76</ele>
        <time>2018-05-11T13:44:55Z</time>
      </trkpt>
      <trkpt lat="42.83583" lon="0.15836">
        <ele>2185.55</ele>
        <time>2018-05-11T13:44:56Z</time>
      </trkpt>
      <trkpt lat="42.83581" lon="0.1584">
        <ele>2184.92</ele>
        <time>2018-05-11T13:44:57Z</time>
      </trkpt>
      <trkpt lat="42.83579" lon="0.15843">
        <ele>2184.37</ele>
        <time>2018-05-11T13:44:58Z</time>
      </trkpt>
      <trkpt lat="42.83577" lon="0.15848">
        <ele>2184.07</ele>
        <time>2018-05-11T13:44:59Z</time>
      </trkpt>
      <trkpt lat="42.83572" lon="0.15858">
        <ele>2182.03</ele>
        <time>2018-05-11T13:45:01Z</time>
      </trkpt>
      <trkpt lat="42.83569" lon="0.15864">
        <ele>2181.29</ele>
        <time>2018-05-11T13:45:02Z</time>
      </trkpt>
      <trkpt lat="42.83558" lon="0.15902">
        <ele>2178.21</ele>
        <time>2018-05-11T13:45:09Z</time>
      </trkpt>
      <trkpt lat="42.83549" lon="0.15928">
        <ele>2175.91</ele>
        <time>2018-05-11T13:45:15Z</time>
      </trkpt>
      <trkpt lat="42.83538" lon="0.15957">
        <ele>2174.75</ele>
        <time>2018-05-11T13:45:25Z</time>
      </trkpt>
      <trkpt lat="42.83523" lon="0.15986">
        <ele>2172.62</ele>
        <time>2018-05-11T13:45:37Z</time>
      </trkpt>
      <trkpt lat="42.83503" lon="0.16015">
        <ele>2169.43</ele>
        <time>2018-05-11T13:45:47Z</time>
      </trkpt>
      <trkpt lat="42.83485" lon="0.16046">
        <ele>2168.34</ele>
        <time>2018-05-11T13:45:58Z</time>
      </trkpt>
      <trkpt lat="42.83484" lon="0.16045">
        <ele>2167.9</ele>
        <time>2018-05-11T13:45:59Z</time>
      </trkpt>
      <trkpt lat="42.83482" lon="0.16042">
        <ele>2167.46</ele>
        <time>2018-05-11T13:46:00Z</time>
      </trkpt>
      <trkpt lat="42.83481" lon="0.16037">
        <ele>2165.95</ele>
        <time>2018-05-11T13:46:01Z</time>
      </trkpt>
      <trkpt lat="42.83481" lon="0.16032">
        <ele>2165.54</ele>
        <time>2018-05-11T13:46:02Z</time>
      </trkpt>
      <trkpt lat="42.83482" lon="0.16027">
        <ele>2165.1</ele>
        <time>2018-05-11T13:46:03Z</time>
      </trkpt>
      <trkpt lat="42.83483" lon="0.16023">
        <ele>2164.93</ele>
        <time>2018-05-11T13:46:04Z</time>
      </trkpt>
      <trkpt lat="42.83483" lon="0.16021">
        <ele>2164.43</ele>
        <time>2018-05-11T13:46:05Z</time>
      </trkpt>
      <trkpt lat="42.83485" lon="0.1601">
        <ele>2163.8</ele>
        <time>2018-05-11T13:46:13Z</time>
      </trkpt>
      <trkpt lat="42.83486" lon="0.16008">
        <ele>2163.57</ele>
        <time>2018-05-11T13:46:14Z</time>
      </trkpt>
      <trkpt lat="42.83486" lon="0.16006">
        <ele>2163.12</ele>
        <time>2018-05-11T13:46:16Z</time>
      </trkpt>
      <trkpt lat="42.83486" lon="0.16003">
        <ele>2163.18</ele>
        <time>2018-05-11T13:46:17Z</time>
      </trkpt>
      <trkpt lat="42.83494" lon="0.15961">
        <ele>2160.9</ele>
        <time>2018-05-11T13:46:29Z</time>
      </trkpt>
      <trkpt lat="42.83498" lon="0.15937">
        <ele>2157.64</ele>
        <time>2018-05-11T13:46:36Z</time>
      </trkpt>
      <trkpt lat="42.83498" lon="0.15917">
        <ele>2156.74</ele>
        <time>2018-05-11T13:46:45Z</time>
      </trkpt>
      <trkpt lat="42.83497" lon="0.15909">
        <ele>2155.47</ele>
        <time>2018-05-11T13:46:58Z</time>
      </trkpt>
      <trkpt lat="42.83498" lon="0.15899">
        <ele>2154.1</ele>
        <time>2018-05-11T13:47:13Z</time>
      </trkpt>
      <trkpt lat="42.83499" lon="0.1589">
        <ele>2153.28</ele>
        <time>2018-05-11T13:47:30Z</time>
      </trkpt>
      <trkpt lat="42.835" lon="0.15885">
        <ele>2153.34</ele>
        <time>2018-05-11T13:47:37Z</time>
      </trkpt>
      <trkpt lat="42.835" lon="0.15884">
        <ele>2153.1</ele>
        <time>2018-05-11T13:47:38Z</time>
      </trkpt>
      <trkpt lat="42.83501" lon="0.15882">
        <ele>2153.28</ele>
        <time>2018-05-11T13:47:39Z</time>
      </trkpt>
      <trkpt lat="42.83501" lon="0.1588">
        <ele>2153.16</ele>
        <time>2018-05-11T13:47:41Z</time>
      </trkpt>
      <trkpt lat="42.83502" lon="0.15877">
        <ele>2152.64</ele>
        <time>2018-05-11T13:47:42Z</time>
      </trkpt>
      <trkpt lat="42.83503" lon="0.15875">
        <ele>2152.86</ele>
        <time>2018-05-11T13:47:43Z</time>
      </trkpt>
      <trkpt lat="42.83503" lon="0.15872">
        <ele>2152.88</ele>
        <time>2018-05-11T13:47:44Z</time>
      </trkpt>
      <trkpt lat="42.83504" lon="0.15869">
        <ele>2152.85</ele>
        <time>2018-05-11T13:47:45Z</time>
      </trkpt>
      <trkpt lat="42.83513" lon="0.15825">
        <ele>2149.7</ele>
        <time>2018-05-11T13:47:57Z</time>
      </trkpt>
      <trkpt lat="42.83516" lon="0.15811">
        <ele>2148.72</ele>
        <time>2018-05-11T13:48:11Z</time>
      </trkpt>
      <trkpt lat="42.83519" lon="0.15808">
        <ele>2148.53</ele>
        <time>2018-05-11T13:48:26Z</time>
      </trkpt>
      <trkpt lat="42.83519" lon="0.15806">
        <ele>2148.77</ele>
        <time>2018-05-11T13:48:28Z</time>
      </trkpt>
      <trkpt lat="42.8352" lon="0.15805">
        <ele>2148.36</ele>
        <time>2018-05-11T13:48:29Z</time>
      </trkpt>
      <trkpt lat="42.8352" lon="0.15803">
        <ele>2148.47</ele>
        <time>2018-05-11T13:48:30Z</time>
      </trkpt>
      <trkpt lat="42.8352" lon="0.158">
        <ele>2147.78</ele>
        <time>2018-05-11T13:48:31Z</time>
      </trkpt>
      <trkpt lat="42.83521" lon="0.15798">
        <ele>2147.84</ele>
        <time>2018-05-11T13:48:32Z</time>
      </trkpt>
      <trkpt lat="42.83521" lon="0.15795">
        <ele>2147.35</ele>
        <time>2018-05-11T13:48:33Z</time>
      </trkpt>
      <trkpt lat="42.83521" lon="0.15793">
        <ele>2147.6</ele>
        <time>2018-05-11T13:48:34Z</time>
      </trkpt>
      <trkpt lat="42.83525" lon="0.15753">
        <ele>2144.39</ele>
        <time>2018-05-11T13:48:46Z</time>
      </trkpt>
      <trkpt lat="42.83529" lon="0.15707">
        <ele>2141.16</ele>
        <time>2018-05-11T13:48:58Z</time>
      </trkpt>
      <trkpt lat="42.83531" lon="0.15688">
        <ele>2140.07</ele>
        <time>2018-05-11T13:49:11Z</time>
      </trkpt>
      <trkpt lat="42.83533" lon="0.1568">
        <ele>2138.9</ele>
        <time>2018-05-11T13:49:30Z</time>
      </trkpt>
      <trkpt lat="42.83534" lon="0.15656">
        <ele>2137.46</ele>
        <time>2018-05-11T13:49:45Z</time>
      </trkpt>
      <trkpt lat="42.83531" lon="0.15634">
        <ele>2136.21</ele>
        <time>2018-05-11T13:49:58Z</time>
      </trkpt>
      <trkpt lat="42.8353" lon="0.15633">
        <ele>2136.24</ele>
        <time>2018-05-11T13:49:59Z</time>
      </trkpt>
      <trkpt lat="42.8353" lon="0.15631">
        <ele>2136.05</ele>
        <time>2018-05-11T13:50:01Z</time>
      </trkpt>
      <trkpt lat="42.8353" lon="0.15629">
        <ele>2136.26</ele>
        <time>2018-05-11T13:50:17Z</time>
      </trkpt>
      <trkpt lat="42.83529" lon="0.15626">
        <ele>2136.16</ele>
        <time>2018-05-11T13:50:30Z</time>
      </trkpt>
      <trkpt lat="42.83529" lon="0.15624">
        <ele>2135.93</ele>
        <time>2018-05-11T13:50:31Z</time>
      </trkpt>
      <trkpt lat="42.83528" lon="0.15621">
        <ele>2136.34</ele>
        <time>2018-05-11T13:50:33Z</time>
      </trkpt>
      <trkpt lat="42.83527" lon="0.15619">
        <ele>2135.89</ele>
        <time>2018-05-11T13:50:34Z</time>
      </trkpt>
      <trkpt lat="42.83527" lon="0.15616">
        <ele>2135.68</ele>
        <time>2018-05-11T13:50:35Z</time>
      </trkpt>
      <trkpt lat="42.83526" lon="0.15613">
        <ele>2135.26</ele>
        <time>2018-05-11T13:50:36Z</time>
      </trkpt>
      <trkpt lat="42.83525" lon="0.1561">
        <ele>2135.39</ele>
        <time>2018-05-11T13:50:37Z</time>
      </trkpt>
      <trkpt lat="42.83515" lon="0.15572">
        <ele>2132.12</ele>
        <time>2018-05-11T13:50:47Z</time>
      </trkpt>
      <trkpt lat="42.83506" lon="0.15544">
        <ele>2130.97</ele>
        <time>2018-05-11T13:50:58Z</time>
      </trkpt>
      <trkpt lat="42.83501" lon="0.1554">
        <ele>2130.09</ele>
        <time>2018-05-11T13:51:01Z</time>
      </trkpt>
      <trkpt lat="42.83499" lon="0.1554">
        <ele>2129.95</ele>
        <time>2018-05-11T13:51:02Z</time>
      </trkpt>
      <trkpt lat="42.83497" lon="0.1554">
        <ele>2129.76</ele>
        <time>2018-05-11T13:51:03Z</time>
      </trkpt>
      <trkpt lat="42.83495" lon="0.15542">
        <ele>2128.86</ele>
        <time>2018-05-11T13:51:04Z</time>
      </trkpt>
      <trkpt lat="42.83494" lon="0.15545">
        <ele>2128.48</ele>
        <time>2018-05-11T13:51:05Z</time>
      </trkpt>
      <trkpt lat="42.83494" lon="0.15548">
        <ele>2128.64</ele>
        <time>2018-05-11T13:51:06Z</time>
      </trkpt>
      <trkpt lat="42.83495" lon="0.15551">
        <ele>2128.32</ele>
        <time>2018-05-11T13:51:07Z</time>
      </trkpt>
      <trkpt lat="42.83495" lon="0.15553">
        <ele>2127.86</ele>
        <time>2018-05-11T13:51:08Z</time>
      </trkpt>
      <trkpt lat="42.83501" lon="0.15585">
        <ele>2124.79</ele>
        <time>2018-05-11T13:51:18Z</time>
      </trkpt>
      <trkpt lat="42.83501" lon="0.15588">
        <ele>2124.59</ele>
        <time>2018-05-11T13:51:19Z</time>
      </trkpt>
      <trkpt lat="42.83501" lon="0.15593">
        <ele>2124.66</ele>
        <time>2018-05-11T13:51:21Z</time>
      </trkpt>
      <trkpt lat="42.83501" lon="0.15594">
        <ele>2124.38</ele>
        <time>2018-05-11T13:51:22Z</time>
      </trkpt>
      <trkpt lat="42.83501" lon="0.15596">
        <ele>2123.94</ele>
        <time>2018-05-11T13:51:23Z</time>
      </trkpt>
      <trkpt lat="42.83502" lon="0.15603">
        <ele>2123.07</ele>
        <time>2018-05-11T13:51:38Z</time>
      </trkpt>
      <trkpt lat="42.83503" lon="0.15605">
        <ele>2122.93</ele>
        <time>2018-05-11T13:51:39Z</time>
      </trkpt>
      <trkpt lat="42.83503" lon="0.1561">
        <ele>2122.61</ele>
        <time>2018-05-11T13:51:53Z</time>
      </trkpt>
      <trkpt lat="42.83505" lon="0.15615">
        <ele>2122.14</ele>
        <time>2018-05-11T13:52:10Z</time>
      </trkpt>
      <trkpt lat="42.83508" lon="0.1562">
        <ele>2123.03</ele>
        <time>2018-05-11T13:52:18Z</time>
      </trkpt>
      <trkpt lat="42.83508" lon="0.15622">
        <ele>2122.59</ele>
        <time>2018-05-11T13:52:19Z</time>
      </trkpt>
      <trkpt lat="42.83508" lon="0.15627">
        <ele>2122.66</ele>
        <time>2018-05-11T13:52:21Z</time>
      </trkpt>
      <trkpt lat="42.83501" lon="0.1567">
        <ele>2118.91</ele>
        <time>2018-05-11T13:52:33Z</time>
      </trkpt>
      <trkpt lat="42.83499" lon="0.15678">
        <ele>2118.05</ele>
        <time>2018-05-11T13:52:35Z</time>
      </trkpt>
      <trkpt lat="42.83485" lon="0.15717">
        <ele>2114.76</ele>
        <time>2018-05-11T13:52:45Z</time>
      </trkpt>
      <trkpt lat="42.83484" lon="0.1572">
        <ele>2114.61</ele>
        <time>2018-05-11T13:52:46Z</time>
      </trkpt>
      <trkpt lat="42.8347" lon="0.15762">
        <ele>2111.11</ele>
        <time>2018-05-11T13:52:59Z</time>
      </trkpt>
      <trkpt lat="42.83454" lon="0.15798">
        <ele>2108.06</ele>
        <time>2018-05-11T13:53:10Z</time>
      </trkpt>
      <trkpt lat="42.8344" lon="0.15833">
        <ele>2104.8</ele>
        <time>2018-05-11T13:53:20Z</time>
      </trkpt>
      <trkpt lat="42.83422" lon="0.15871">
        <ele>2102.23</ele>
        <time>2018-05-11T13:53:32Z</time>
      </trkpt>
      <trkpt lat="42.83404" lon="0.15905">
        <ele>2100.24</ele>
        <time>2018-05-11T13:53:44Z</time>
      </trkpt>
      <trkpt lat="42.83393" lon="0.15924">
        <ele>2099.06</ele>
        <time>2018-05-11T13:53:54Z</time>
      </trkpt>
      <trkpt lat="42.8339" lon="0.15928">
        <ele>2098.51</ele>
        <time>2018-05-11T13:53:58Z</time>
      </trkpt>
      <trkpt lat="42.83389" lon="0.15929">
        <ele>2098.28</ele>
        <time>2018-05-11T13:53:59Z</time>
      </trkpt>
      <trkpt lat="42.83388" lon="0.15931">
        <ele>2098.22</ele>
        <time>2018-05-11T13:54:00Z</time>
      </trkpt>
      <trkpt lat="42.83383" lon="0.15936">
        <ele>2097.8</ele>
        <time>2018-05-11T13:54:04Z</time>
      </trkpt>
      <trkpt lat="42.83382" lon="0.15937">
        <ele>2097.84</ele>
        <time>2018-05-11T13:54:05Z</time>
      </trkpt>
      <trkpt lat="42.8338" lon="0.15937">
        <ele>2097.95</ele>
        <time>2018-05-11T13:54:06Z</time>
      </trkpt>
      <trkpt lat="42.83378" lon="0.15938">
        <ele>2097.78</ele>
        <time>2018-05-11T13:54:07Z</time>
      </trkpt>
      <trkpt lat="42.83377" lon="0.1594">
        <ele>2097.11</ele>
        <time>2018-05-11T13:54:08Z</time>
      </trkpt>
      <trkpt lat="42.83376" lon="0.15941">
        <ele>2097.38</ele>
        <time>2018-05-11T13:54:09Z</time>
      </trkpt>
      <trkpt lat="42.83374" lon="0.15943">
        <ele>2097.4</ele>
        <time>2018-05-11T13:54:12Z</time>
      </trkpt>
      <trkpt lat="42.83372" lon="0.15943">
        <ele>2097.32</ele>
        <time>2018-05-11T13:54:13Z</time>
      </trkpt>
      <trkpt lat="42.83368" lon="0.15941">
        <ele>2096.8</ele>
        <time>2018-05-11T13:54:15Z</time>
      </trkpt>
      <trkpt lat="42.83368" lon="0.15938">
        <ele>2096.38</ele>
        <time>2018-05-11T13:54:16Z</time>
      </trkpt>
      <trkpt lat="42.83366" lon="0.15935">
        <ele>2095.85</ele>
        <time>2018-05-11T13:54:17Z</time>
      </trkpt>
      <trkpt lat="42.83365" lon="0.15931">
        <ele>2095.88</ele>
        <time>2018-05-11T13:54:18Z</time>
      </trkpt>
      <trkpt lat="42.83365" lon="0.15928">
        <ele>2095.27</ele>
        <time>2018-05-11T13:54:19Z</time>
      </trkpt>
      <trkpt lat="42.83366" lon="0.15924">
        <ele>2095.17</ele>
        <time>2018-05-11T13:54:20Z</time>
      </trkpt>
      <trkpt lat="42.83366" lon="0.1592">
        <ele>2094.72</ele>
        <time>2018-05-11T13:54:21Z</time>
      </trkpt>
      <trkpt lat="42.83366" lon="0.15917">
        <ele>2094.75</ele>
        <time>2018-05-11T13:54:22Z</time>
      </trkpt>
      <trkpt lat="42.83367" lon="0.15914">
        <ele>2094.98</ele>
        <time>2018-05-11T13:54:23Z</time>
      </trkpt>
      <trkpt lat="42.83367" lon="0.15912">
        <ele>2094.29</ele>
        <time>2018-05-11T13:54:24Z</time>
      </trkpt>
      <trkpt lat="42.83367" lon="0.1591">
        <ele>2094.7</ele>
        <time>2018-05-11T13:54:25Z</time>
      </trkpt>
      <trkpt lat="42.83367" lon="0.15887">
        <ele>2094.21</ele>
        <time>2018-05-11T13:54:38Z</time>
      </trkpt>
      <trkpt lat="42.83367" lon="0.15853">
        <ele>2092.66</ele>
        <time>2018-05-11T13:54:49Z</time>
      </trkpt>
      <trkpt lat="42.83379" lon="0.15811">
        <ele>2090.12</ele>
        <time>2018-05-11T13:55:00Z</time>
      </trkpt>
      <trkpt lat="42.83387" lon="0.15793">
        <ele>2089.12</ele>
        <time>2018-05-11T13:55:10Z</time>
      </trkpt>
      <trkpt lat="42.83387" lon="0.15786">
        <ele>2088.52</ele>
        <time>2018-05-11T13:55:24Z</time>
      </trkpt>
      <trkpt lat="42.83384" lon="0.15779">
        <ele>2086.25</ele>
        <time>2018-05-11T13:55:27Z</time>
      </trkpt>
      <trkpt lat="42.83385" lon="0.15776">
        <ele>2085.68</ele>
        <time>2018-05-11T13:55:28Z</time>
      </trkpt>
      <trkpt lat="42.83385" lon="0.15774">
        <ele>2086.03</ele>
        <time>2018-05-11T13:55:29Z</time>
      </trkpt>
      <trkpt lat="42.83381" lon="0.1577">
        <ele>2084.55</ele>
        <time>2018-05-11T13:55:31Z</time>
      </trkpt>
      <trkpt lat="42.83377" lon="0.15771">
        <ele>2083.68</ele>
        <time>2018-05-11T13:55:32Z</time>
      </trkpt>
      <trkpt lat="42.83373" lon="0.15772">
        <ele>2082.9</ele>
        <time>2018-05-11T13:55:33Z</time>
      </trkpt>
      <trkpt lat="42.8337" lon="0.15773">
        <ele>2082.59</ele>
        <time>2018-05-11T13:55:34Z</time>
      </trkpt>
      <trkpt lat="42.83368" lon="0.15775">
        <ele>2082.21</ele>
        <time>2018-05-11T13:55:35Z</time>
      </trkpt>
      <trkpt lat="42.83364" lon="0.15778">
        <ele>2082.26</ele>
        <time>2018-05-11T13:55:37Z</time>
      </trkpt>
      <trkpt lat="42.83363" lon="0.15781">
        <ele>2081.87</ele>
        <time>2018-05-11T13:55:38Z</time>
      </trkpt>
      <trkpt lat="42.83345" lon="0.1582">
        <ele>2078.98</ele>
        <time>2018-05-11T13:55:48Z</time>
      </trkpt>
      <trkpt lat="42.83322" lon="0.15856">
        <ele>2076.65</ele>
        <time>2018-05-11T13:55:56Z</time>
      </trkpt>
      <trkpt lat="42.8332" lon="0.1586">
        <ele>2075.59</ele>
        <time>2018-05-11T13:55:57Z</time>
      </trkpt>
      <trkpt lat="42.83317" lon="0.15863">
        <ele>2075.42</ele>
        <time>2018-05-11T13:55:58Z</time>
      </trkpt>
      <trkpt lat="42.83315" lon="0.15867">
        <ele>2074.95</ele>
        <time>2018-05-11T13:55:59Z</time>
      </trkpt>
      <trkpt lat="42.83313" lon="0.15872">
        <ele>2075.28</ele>
        <time>2018-05-11T13:56:00Z</time>
      </trkpt>
      <trkpt lat="42.83311" lon="0.15876">
        <ele>2074.3</ele>
        <time>2018-05-11T13:56:01Z</time>
      </trkpt>
      <trkpt lat="42.83309" lon="0.1588">
        <ele>2074</ele>
        <time>2018-05-11T13:56:02Z</time>
      </trkpt>
      <trkpt lat="42.83308" lon="0.15885">
        <ele>2073.76</ele>
        <time>2018-05-11T13:56:03Z</time>
      </trkpt>
      <trkpt lat="42.83306" lon="0.15889">
        <ele>2073.41</ele>
        <time>2018-05-11T13:56:04Z</time>
      </trkpt>
      <trkpt lat="42.83305" lon="0.15894">
        <ele>2073.36</ele>
        <time>2018-05-11T13:56:05Z</time>
      </trkpt>
      <trkpt lat="42.83305" lon="0.159">
        <ele>2072.72</ele>
        <time>2018-05-11T13:56:06Z</time>
      </trkpt>
      <trkpt lat="42.83304" lon="0.15905">
        <ele>2072.33</ele>
        <time>2018-05-11T13:56:07Z</time>
      </trkpt>
      <trkpt lat="42.83304" lon="0.15909">
        <ele>2072.1</ele>
        <time>2018-05-11T13:56:08Z</time>
      </trkpt>
      <trkpt lat="42.83308" lon="0.15938">
        <ele>2069.99</ele>
        <time>2018-05-11T13:56:17Z</time>
      </trkpt>
      <trkpt lat="42.83311" lon="0.15941">
        <ele>2070</ele>
        <time>2018-05-11T13:56:31Z</time>
      </trkpt>
      <trkpt lat="42.83311" lon="0.15949">
        <ele>2069.44</ele>
        <time>2018-05-11T13:56:43Z</time>
      </trkpt>
      <trkpt lat="42.8331" lon="0.15952">
        <ele>2069.46</ele>
        <time>2018-05-11T13:56:45Z</time>
      </trkpt>
      <trkpt lat="42.83308" lon="0.15962">
        <ele>2068.8</ele>
        <time>2018-05-11T13:56:50Z</time>
      </trkpt>
      <trkpt lat="42.83307" lon="0.15964">
        <ele>2069.19</ele>
        <time>2018-05-11T13:56:51Z</time>
      </trkpt>
      <trkpt lat="42.833" lon="0.16004">
        <ele>2067.04</ele>
        <time>2018-05-11T13:57:04Z</time>
      </trkpt>
      <trkpt lat="42.83293" lon="0.16022">
        <ele>2066.34</ele>
        <time>2018-05-11T13:57:17Z</time>
      </trkpt>
      <trkpt lat="42.83294" lon="0.16022">
        <ele>2066.02</ele>
        <time>2018-05-11T13:57:37Z</time>
      </trkpt>
      <trkpt lat="42.83293" lon="0.16023">
        <ele>2064.72</ele>
        <time>2018-05-11T13:57:53Z</time>
      </trkpt>
      <trkpt lat="42.83293" lon="0.16023">
        <ele>2065.64</ele>
        <time>2018-05-11T13:58:29Z</time>
      </trkpt>
      <trkpt lat="42.83292" lon="0.16024">
        <ele>2065.48</ele>
        <time>2018-05-11T13:59:14Z</time>
      </trkpt>
      <trkpt lat="42.83293" lon="0.16022">
        <ele>2066.47</ele>
        <time>2018-05-11T13:59:56Z</time>
      </trkpt>
      <trkpt lat="42.83293" lon="0.16023">
        <ele>2066.71</ele>
        <time>2018-05-11T14:00:33Z</time>
      </trkpt>
      <trkpt lat="42.83292" lon="0.16024">
        <ele>2067.6</ele>
        <time>2018-05-11T14:01:21Z</time>
      </trkpt>
      <trkpt lat="42.8329" lon="0.16026">
        <ele>2067.92</ele>
        <time>2018-05-11T14:01:36Z</time>
      </trkpt>
      <trkpt lat="42.83286" lon="0.16029">
        <ele>2067.78</ele>
        <time>2018-05-11T14:01:40Z</time>
      </trkpt>
      <trkpt lat="42.83284" lon="0.16034">
        <ele>2067.44</ele>
        <time>2018-05-11T14:01:44Z</time>
      </trkpt>
      <trkpt lat="42.83283" lon="0.16036">
        <ele>2067.34</ele>
        <time>2018-05-11T14:01:45Z</time>
      </trkpt>
      <trkpt lat="42.83283" lon="0.16037">
        <ele>2067.29</ele>
        <time>2018-05-11T14:01:46Z</time>
      </trkpt>
      <trkpt lat="42.83282" lon="0.16039">
        <ele>2067.1</ele>
        <time>2018-05-11T14:01:47Z</time>
      </trkpt>
      <trkpt lat="42.83281" lon="0.1604">
        <ele>2066.72</ele>
        <time>2018-05-11T14:01:48Z</time>
      </trkpt>
      <trkpt lat="42.8328" lon="0.16042">
        <ele>2066.72</ele>
        <time>2018-05-11T14:01:49Z</time>
      </trkpt>
      <trkpt lat="42.83277" lon="0.16048">
        <ele>2066.77</ele>
        <time>2018-05-11T14:01:53Z</time>
      </trkpt>
      <trkpt lat="42.83277" lon="0.16049">
        <ele>2066.57</ele>
        <time>2018-05-11T14:01:54Z</time>
      </trkpt>
      <trkpt lat="42.83276" lon="0.16051">
        <ele>2066.53</ele>
        <time>2018-05-11T14:01:55Z</time>
      </trkpt>
      <trkpt lat="42.83275" lon="0.16052">
        <ele>2066.27</ele>
        <time>2018-05-11T14:01:56Z</time>
      </trkpt>
      <trkpt lat="42.83274" lon="0.16054">
        <ele>2066.23</ele>
        <time>2018-05-11T14:01:57Z</time>
      </trkpt>
      <trkpt lat="42.83274" lon="0.16055">
        <ele>2066.18</ele>
        <time>2018-05-11T14:01:58Z</time>
      </trkpt>
      <trkpt lat="42.83273" lon="0.16057">
        <ele>2066.07</ele>
        <time>2018-05-11T14:01:59Z</time>
      </trkpt>
      <trkpt lat="42.83273" lon="0.16058">
        <ele>2066.18</ele>
        <time>2018-05-11T14:02:00Z</time>
      </trkpt>
      <trkpt lat="42.83272" lon="0.1606">
        <ele>2065.85</ele>
        <time>2018-05-11T14:02:01Z</time>
      </trkpt>
      <trkpt lat="42.83272" lon="0.16061">
        <ele>2065.93</ele>
        <time>2018-05-11T14:02:02Z</time>
      </trkpt>
      <trkpt lat="42.83272" lon="0.16063">
        <ele>2065.87</ele>
        <time>2018-05-11T14:02:03Z</time>
      </trkpt>
      <trkpt lat="42.83272" lon="0.16064">
        <ele>2065.47</ele>
        <time>2018-05-11T14:02:04Z</time>
      </trkpt>
      <trkpt lat="42.83272" lon="0.16068">
        <ele>2065.08</ele>
        <time>2018-05-11T14:02:06Z</time>
      </trkpt>
      <trkpt lat="42.83272" lon="0.16069">
        <ele>2065.51</ele>
        <time>2018-05-11T14:02:07Z</time>
      </trkpt>
      <trkpt lat="42.83272" lon="0.16079">
        <ele>2064.95</ele>
        <time>2018-05-11T14:02:13Z</time>
      </trkpt>
      <trkpt lat="42.83269" lon="0.161">
        <ele>2063.8</ele>
        <time>2018-05-11T14:02:26Z</time>
      </trkpt>
      <trkpt lat="42.83263" lon="0.1612">
        <ele>2062.97</ele>
        <time>2018-05-11T14:02:39Z</time>
      </trkpt>
      <trkpt lat="42.83258" lon="0.16125">
        <ele>2062.96</ele>
        <time>2018-05-11T14:02:47Z</time>
      </trkpt>
      <trkpt lat="42.83257" lon="0.16124">
        <ele>2063.07</ele>
        <time>2018-05-11T14:02:48Z</time>
      </trkpt>
      <trkpt lat="42.83256" lon="0.16124">
        <ele>2062.76</ele>
        <time>2018-05-11T14:02:49Z</time>
      </trkpt>
      <trkpt lat="42.83253" lon="0.16124">
        <ele>2062.57</ele>
        <time>2018-05-11T14:02:51Z</time>
      </trkpt>
      <trkpt lat="42.83252" lon="0.16124">
        <ele>2062.34</ele>
        <time>2018-05-11T14:02:52Z</time>
      </trkpt>
      <trkpt lat="42.8325" lon="0.16124">
        <ele>2062.55</ele>
        <time>2018-05-11T14:02:53Z</time>
      </trkpt>
      <trkpt lat="42.83249" lon="0.16123">
        <ele>2062.45</ele>
        <time>2018-05-11T14:02:54Z</time>
      </trkpt>
      <trkpt lat="42.83248" lon="0.16123">
        <ele>2062.19</ele>
        <time>2018-05-11T14:02:55Z</time>
      </trkpt>
      <trkpt lat="42.83247" lon="0.16121">
        <ele>2061.78</ele>
        <time>2018-05-11T14:02:56Z</time>
      </trkpt>
      <trkpt lat="42.83247" lon="0.16118">
        <ele>2061.84</ele>
        <time>2018-05-11T14:02:58Z</time>
      </trkpt>
      <trkpt lat="42.83246" lon="0.16117">
        <ele>2062.04</ele>
        <time>2018-05-11T14:02:59Z</time>
      </trkpt>
      <trkpt lat="42.83247" lon="0.16115">
        <ele>2061.93</ele>
        <time>2018-05-11T14:03:00Z</time>
      </trkpt>
      <trkpt lat="42.83253" lon="0.16096">
        <ele>2061.38</ele>
        <time>2018-05-11T14:03:14Z</time>
      </trkpt>
      <trkpt lat="42.83253" lon="0.16095">
        <ele>2061.32</ele>
        <time>2018-05-11T14:03:15Z</time>
      </trkpt>
      <trkpt lat="42.83253" lon="0.16093">
        <ele>2061.37</ele>
        <time>2018-05-11T14:03:16Z</time>
      </trkpt>
      <trkpt lat="42.83254" lon="0.16092">
        <ele>2061.32</ele>
        <time>2018-05-11T14:03:17Z</time>
      </trkpt>
      <trkpt lat="42.83254" lon="0.1609">
        <ele>2061.45</ele>
        <time>2018-05-11T14:03:18Z</time>
      </trkpt>
      <trkpt lat="42.83255" lon="0.16088">
        <ele>2061.37</ele>
        <time>2018-05-11T14:03:19Z</time>
      </trkpt>
      <trkpt lat="42.83255" lon="0.16087">
        <ele>2060.67</ele>
        <time>2018-05-11T14:03:20Z</time>
      </trkpt>
      <trkpt lat="42.83255" lon="0.16085">
        <ele>2060.72</ele>
        <time>2018-05-11T14:03:21Z</time>
      </trkpt>
      <trkpt lat="42.83256" lon="0.16083">
        <ele>2060.59</ele>
        <time>2018-05-11T14:03:22Z</time>
      </trkpt>
      <trkpt lat="42.83256" lon="0.16082">
        <ele>2060.23</ele>
        <time>2018-05-11T14:03:23Z</time>
      </trkpt>
      <trkpt lat="42.83261" lon="0.16058">
        <ele>2058.81</ele>
        <time>2018-05-11T14:03:36Z</time>
      </trkpt>
      <trkpt lat="42.83261" lon="0.16055">
        <ele>2058.85</ele>
        <time>2018-05-11T14:03:38Z</time>
      </trkpt>
      <trkpt lat="42.83261" lon="0.16053">
        <ele>2058.6</ele>
        <time>2018-05-11T14:03:39Z</time>
      </trkpt>
      <trkpt lat="42.83265" lon="0.1603">
        <ele>2056.93</ele>
        <time>2018-05-11T14:03:54Z</time>
      </trkpt>
      <trkpt lat="42.83265" lon="0.16028">
        <ele>2056.77</ele>
        <time>2018-05-11T14:03:56Z</time>
      </trkpt>
      <trkpt lat="42.83265" lon="0.16026">
        <ele>2056.22</ele>
        <time>2018-05-11T14:03:57Z</time>
      </trkpt>
      <trkpt lat="42.83265" lon="0.16024">
        <ele>2056.08</ele>
        <time>2018-05-11T14:03:58Z</time>
      </trkpt>
      <trkpt lat="42.83265" lon="0.16022">
        <ele>2056.17</ele>
        <time>2018-05-11T14:03:59Z</time>
      </trkpt>
      <trkpt lat="42.83265" lon="0.1602">
        <ele>2056.01</ele>
        <time>2018-05-11T14:04:00Z</time>
      </trkpt>
      <trkpt lat="42.83258" lon="0.16">
        <ele>2054.25</ele>
        <time>2018-05-11T14:04:12Z</time>
      </trkpt>
      <trkpt lat="42.83253" lon="0.15991">
        <ele>2053.24</ele>
        <time>2018-05-11T14:04:19Z</time>
      </trkpt>
      <trkpt lat="42.83252" lon="0.1599">
        <ele>2052.83</ele>
        <time>2018-05-11T14:04:20Z</time>
      </trkpt>
      <trkpt lat="42.83252" lon="0.15989">
        <ele>2052.8</ele>
        <time>2018-05-11T14:04:21Z</time>
      </trkpt>
      <trkpt lat="42.83251" lon="0.15988">
        <ele>2052.73</ele>
        <time>2018-05-11T14:04:22Z</time>
      </trkpt>
      <trkpt lat="42.83241" lon="0.15973">
        <ele>2051.77</ele>
        <time>2018-05-11T14:04:35Z</time>
      </trkpt>
      <trkpt lat="42.83235" lon="0.15962">
        <ele>2050.94</ele>
        <time>2018-05-11T14:04:44Z</time>
      </trkpt>
      <trkpt lat="42.83234" lon="0.1596">
        <ele>2050.28</ele>
        <time>2018-05-11T14:04:45Z</time>
      </trkpt>
      <trkpt lat="42.83233" lon="0.15959">
        <ele>2050.32</ele>
        <time>2018-05-11T14:04:46Z</time>
      </trkpt>
      <trkpt lat="42.83232" lon="0.15957">
        <ele>2049.81</ele>
        <time>2018-05-11T14:04:47Z</time>
      </trkpt>
      <trkpt lat="42.83232" lon="0.15955">
        <ele>2049.6</ele>
        <time>2018-05-11T14:04:48Z</time>
      </trkpt>
      <trkpt lat="42.83231" lon="0.15953">
        <ele>2049.65</ele>
        <time>2018-05-11T14:04:49Z</time>
      </trkpt>
      <trkpt lat="42.83231" lon="0.15952">
        <ele>2049.51</ele>
        <time>2018-05-11T14:04:50Z</time>
      </trkpt>
      <trkpt lat="42.8323" lon="0.1595">
        <ele>2049.63</ele>
        <time>2018-05-11T14:04:51Z</time>
      </trkpt>
      <trkpt lat="42.8323" lon="0.15948">
        <ele>2049.24</ele>
        <time>2018-05-11T14:04:52Z</time>
      </trkpt>
      <trkpt lat="42.8323" lon="0.15947">
        <ele>2049.27</ele>
        <time>2018-05-11T14:04:53Z</time>
      </trkpt>
      <trkpt lat="42.83229" lon="0.15942">
        <ele>2049.12</ele>
        <time>2018-05-11T14:04:56Z</time>
      </trkpt>
      <trkpt lat="42.83229" lon="0.1594">
        <ele>2048.59</ele>
        <time>2018-05-11T14:04:57Z</time>
      </trkpt>
      <trkpt lat="42.83229" lon="0.15936">
        <ele>2048.94</ele>
        <time>2018-05-11T14:05:00Z</time>
      </trkpt>
      <trkpt lat="42.83228" lon="0.15935">
        <ele>2048.79</ele>
        <time>2018-05-11T14:05:01Z</time>
      </trkpt>
      <trkpt lat="42.83228" lon="0.15933">
        <ele>2048.36</ele>
        <time>2018-05-11T14:05:02Z</time>
      </trkpt>
      <trkpt lat="42.83228" lon="0.15931">
        <ele>2048.56</ele>
        <time>2018-05-11T14:05:03Z</time>
      </trkpt>
      <trkpt lat="42.83228" lon="0.1593">
        <ele>2047.8</ele>
        <time>2018-05-11T14:05:04Z</time>
      </trkpt>
      <trkpt lat="42.83228" lon="0.15928">
        <ele>2048.31</ele>
        <time>2018-05-11T14:05:05Z</time>
      </trkpt>
      <trkpt lat="42.83228" lon="0.15926">
        <ele>2048.1</ele>
        <time>2018-05-11T14:05:06Z</time>
      </trkpt>
      <trkpt lat="42.83224" lon="0.15913">
        <ele>2047.65</ele>
        <time>2018-05-11T14:05:15Z</time>
      </trkpt>
      <trkpt lat="42.83223" lon="0.15912">
        <ele>2047.82</ele>
        <time>2018-05-11T14:05:16Z</time>
      </trkpt>
      <trkpt lat="42.83212" lon="0.15911">
        <ele>2046.31</ele>
        <time>2018-05-11T14:05:28Z</time>
      </trkpt>
      <trkpt lat="42.83211" lon="0.15911">
        <ele>2045.97</ele>
        <time>2018-05-11T14:05:29Z</time>
      </trkpt>
      <trkpt lat="42.83208" lon="0.15914">
        <ele>2045.74</ele>
        <time>2018-05-11T14:05:33Z</time>
      </trkpt>
      <trkpt lat="42.83207" lon="0.15923">
        <ele>2045.11</ele>
        <time>2018-05-11T14:05:39Z</time>
      </trkpt>
      <trkpt lat="42.83208" lon="0.15925">
        <ele>2044.94</ele>
        <time>2018-05-11T14:05:40Z</time>
      </trkpt>
      <trkpt lat="42.83208" lon="0.15927">
        <ele>2044.67</ele>
        <time>2018-05-11T14:05:41Z</time>
      </trkpt>
      <trkpt lat="42.83208" lon="0.15928">
        <ele>2044.71</ele>
        <time>2018-05-11T14:05:42Z</time>
      </trkpt>
      <trkpt lat="42.83207" lon="0.15929">
        <ele>2044.72</ele>
        <time>2018-05-11T14:05:43Z</time>
      </trkpt>
      <trkpt lat="42.83208" lon="0.15936">
        <ele>2044.67</ele>
        <time>2018-05-11T14:05:48Z</time>
      </trkpt>
      <trkpt lat="42.83209" lon="0.15938">
        <ele>2044.18</ele>
        <time>2018-05-11T14:05:49Z</time>
      </trkpt>
      <trkpt lat="42.83209" lon="0.1594">
        <ele>2043.82</ele>
        <time>2018-05-11T14:05:50Z</time>
      </trkpt>
      <trkpt lat="42.8321" lon="0.15942">
        <ele>2044.42</ele>
        <time>2018-05-11T14:05:51Z</time>
      </trkpt>
      <trkpt lat="42.83214" lon="0.15959">
        <ele>2042.76</ele>
        <time>2018-05-11T14:06:03Z</time>
      </trkpt>
      <trkpt lat="42.83214" lon="0.15961">
        <ele>2043.23</ele>
        <time>2018-05-11T14:06:04Z</time>
      </trkpt>
      <trkpt lat="42.83214" lon="0.15962">
        <ele>2043.12</ele>
        <time>2018-05-11T14:06:05Z</time>
      </trkpt>
      <trkpt lat="42.83215" lon="0.15964">
        <ele>2042.63</ele>
        <time>2018-05-11T14:06:06Z</time>
      </trkpt>
      <trkpt lat="42.83215" lon="0.15966">
        <ele>2042.49</ele>
        <time>2018-05-11T14:06:07Z</time>
      </trkpt>
      <trkpt lat="42.83215" lon="0.15967">
        <ele>2042.51</ele>
        <time>2018-05-11T14:06:08Z</time>
      </trkpt>
      <trkpt lat="42.83215" lon="0.15969">
        <ele>2042.49</ele>
        <time>2018-05-11T14:06:09Z</time>
      </trkpt>
      <trkpt lat="42.83216" lon="0.15972">
        <ele>2042.24</ele>
        <time>2018-05-11T14:06:11Z</time>
      </trkpt>
      <trkpt lat="42.83216" lon="0.15973">
        <ele>2042.15</ele>
        <time>2018-05-11T14:06:12Z</time>
      </trkpt>
      <trkpt lat="42.83217" lon="0.15978">
        <ele>2041.94</ele>
        <time>2018-05-11T14:06:15Z</time>
      </trkpt>
      <trkpt lat="42.83217" lon="0.15979">
        <ele>2041.66</ele>
        <time>2018-05-11T14:06:16Z</time>
      </trkpt>
      <trkpt lat="42.8322" lon="0.15991">
        <ele>2041.16</ele>
        <time>2018-05-11T14:06:24Z</time>
      </trkpt>
      <trkpt lat="42.8322" lon="0.15993">
        <ele>2041.1</ele>
        <time>2018-05-11T14:06:25Z</time>
      </trkpt>
      <trkpt lat="42.8322" lon="0.15995">
        <ele>2040.77</ele>
        <time>2018-05-11T14:06:26Z</time>
      </trkpt>
      <trkpt lat="42.8322" lon="0.15997">
        <ele>2040.7</ele>
        <time>2018-05-11T14:06:27Z</time>
      </trkpt>
      <trkpt lat="42.8322" lon="0.15999">
        <ele>2040.84</ele>
        <time>2018-05-11T14:06:28Z</time>
      </trkpt>
      <trkpt lat="42.83219" lon="0.16001">
        <ele>2040.29</ele>
        <time>2018-05-11T14:06:29Z</time>
      </trkpt>
      <trkpt lat="42.83219" lon="0.16004">
        <ele>2040.58</ele>
        <time>2018-05-11T14:06:30Z</time>
      </trkpt>
      <trkpt lat="42.83219" lon="0.16007">
        <ele>2039.95</ele>
        <time>2018-05-11T14:06:32Z</time>
      </trkpt>
      <trkpt lat="42.83219" lon="0.16009">
        <ele>2040.2</ele>
        <time>2018-05-11T14:06:33Z</time>
      </trkpt>
      <trkpt lat="42.83218" lon="0.1601">
        <ele>2040.15</ele>
        <time>2018-05-11T14:06:34Z</time>
      </trkpt>
      <trkpt lat="42.83218" lon="0.16012">
        <ele>2040.07</ele>
        <time>2018-05-11T14:06:35Z</time>
      </trkpt>
      <trkpt lat="42.83218" lon="0.16013">
        <ele>2039.8</ele>
        <time>2018-05-11T14:06:36Z</time>
      </trkpt>
      <trkpt lat="42.83217" lon="0.16015">
        <ele>2039.74</ele>
        <time>2018-05-11T14:06:37Z</time>
      </trkpt>
      <trkpt lat="42.83217" lon="0.16016">
        <ele>2039.61</ele>
        <time>2018-05-11T14:06:38Z</time>
      </trkpt>
      <trkpt lat="42.83216" lon="0.16018">
        <ele>2039.21</ele>
        <time>2018-05-11T14:06:39Z</time>
      </trkpt>
      <trkpt lat="42.83216" lon="0.16019">
        <ele>2039.06</ele>
        <time>2018-05-11T14:06:40Z</time>
      </trkpt>
      <trkpt lat="42.83216" lon="0.16021">
        <ele>2038.88</ele>
        <time>2018-05-11T14:06:41Z</time>
      </trkpt>
      <trkpt lat="42.83216" lon="0.16023">
        <ele>2038.59</ele>
        <time>2018-05-11T14:06:42Z</time>
      </trkpt>
      <trkpt lat="42.83216" lon="0.16025">
        <ele>2038.63</ele>
        <time>2018-05-11T14:06:43Z</time>
      </trkpt>
      <trkpt lat="42.83216" lon="0.16027">
        <ele>2038.55</ele>
        <time>2018-05-11T14:06:44Z</time>
      </trkpt>
      <trkpt lat="42.83215" lon="0.16033">
        <ele>2037.9</ele>
        <time>2018-05-11T14:06:48Z</time>
      </trkpt>
      <trkpt lat="42.83209" lon="0.16055">
        <ele>2035.72</ele>
        <time>2018-05-11T14:07:03Z</time>
      </trkpt>
      <trkpt lat="42.83208" lon="0.16057">
        <ele>2035.78</ele>
        <time>2018-05-11T14:07:04Z</time>
      </trkpt>
      <trkpt lat="42.83208" lon="0.16059">
        <ele>2035.45</ele>
        <time>2018-05-11T14:07:05Z</time>
      </trkpt>
      <trkpt lat="42.83208" lon="0.1606">
        <ele>2035.19</ele>
        <time>2018-05-11T14:07:06Z</time>
      </trkpt>
      <trkpt lat="42.83208" lon="0.16062">
        <ele>2035.23</ele>
        <time>2018-05-11T14:07:07Z</time>
      </trkpt>
      <trkpt lat="42.83207" lon="0.16063">
        <ele>2035.31</ele>
        <time>2018-05-11T14:07:08Z</time>
      </trkpt>
      <trkpt lat="42.83207" lon="0.16065">
        <ele>2035.11</ele>
        <time>2018-05-11T14:07:09Z</time>
      </trkpt>
      <trkpt lat="42.83206" lon="0.16066">
        <ele>2034.94</ele>
        <time>2018-05-11T14:07:10Z</time>
      </trkpt>
      <trkpt lat="42.83206" lon="0.16068">
        <ele>2034.3</ele>
        <time>2018-05-11T14:07:11Z</time>
      </trkpt>
      <trkpt lat="42.83206" lon="0.16069">
        <ele>2034.6</ele>
        <time>2018-05-11T14:07:12Z</time>
      </trkpt>
      <trkpt lat="42.83205" lon="0.16071">
        <ele>2034.29</ele>
        <time>2018-05-11T14:07:13Z</time>
      </trkpt>
      <trkpt lat="42.83204" lon="0.16072">
        <ele>2034.25</ele>
        <time>2018-05-11T14:07:14Z</time>
      </trkpt>
      <trkpt lat="42.83203" lon="0.16074">
        <ele>2034.48</ele>
        <time>2018-05-11T14:07:15Z</time>
      </trkpt>
      <trkpt lat="42.83203" lon="0.16075">
        <ele>2034.15</ele>
        <time>2018-05-11T14:07:16Z</time>
      </trkpt>
      <trkpt lat="42.83202" lon="0.16077">
        <ele>2034.17</ele>
        <time>2018-05-11T14:07:17Z</time>
      </trkpt>
      <trkpt lat="42.83201" lon="0.16078">
        <ele>2033.95</ele>
        <time>2018-05-11T14:07:18Z</time>
      </trkpt>
      <trkpt lat="42.832" lon="0.1608">
        <ele>2033.71</ele>
        <time>2018-05-11T14:07:19Z</time>
      </trkpt>
      <trkpt lat="42.83199" lon="0.16081">
        <ele>2033.39</ele>
        <time>2018-05-11T14:07:20Z</time>
      </trkpt>
      <trkpt lat="42.83199" lon="0.16083">
        <ele>2033.31</ele>
        <time>2018-05-11T14:07:21Z</time>
      </trkpt>
      <trkpt lat="42.83198" lon="0.16084">
        <ele>2033.09</ele>
        <time>2018-05-11T14:07:22Z</time>
      </trkpt>
      <trkpt lat="42.83198" lon="0.16086">
        <ele>2032.77</ele>
        <time>2018-05-11T14:07:23Z</time>
      </trkpt>
      <trkpt lat="42.83197" lon="0.16088">
        <ele>2032.88</ele>
        <time>2018-05-11T14:07:24Z</time>
      </trkpt>
      <trkpt lat="42.83197" lon="0.16089">
        <ele>2032.56</ele>
        <time>2018-05-11T14:07:25Z</time>
      </trkpt>
      <trkpt lat="42.83197" lon="0.16091">
        <ele>2032.16</ele>
        <time>2018-05-11T14:07:26Z</time>
      </trkpt>
      <trkpt lat="42.83196" lon="0.16093">
        <ele>2032.45</ele>
        <time>2018-05-11T14:07:27Z</time>
      </trkpt>
      <trkpt lat="42.83195" lon="0.16094">
        <ele>2032.08</ele>
        <time>2018-05-11T14:07:28Z</time>
      </trkpt>
      <trkpt lat="42.83195" lon="0.16095">
        <ele>2032.04</ele>
        <time>2018-05-11T14:07:29Z</time>
      </trkpt>
      <trkpt lat="42.83194" lon="0.16096">
        <ele>2031.95</ele>
        <time>2018-05-11T14:07:30Z</time>
      </trkpt>
      <trkpt lat="42.83193" lon="0.16097">
        <ele>2031.99</ele>
        <time>2018-05-11T14:07:31Z</time>
      </trkpt>
      <trkpt lat="42.83193" lon="0.16099">
        <ele>2031.94</ele>
        <time>2018-05-11T14:07:32Z</time>
      </trkpt>
      <trkpt lat="42.83188" lon="0.16114">
        <ele>2030.32</ele>
        <time>2018-05-11T14:07:42Z</time>
      </trkpt>
      <trkpt lat="42.83187" lon="0.16115">
        <ele>2029.88</ele>
        <time>2018-05-11T14:07:43Z</time>
      </trkpt>
      <trkpt lat="42.83187" lon="0.16117">
        <ele>2029.86</ele>
        <time>2018-05-11T14:07:44Z</time>
      </trkpt>
      <trkpt lat="42.83186" lon="0.16121">
        <ele>2029.6</ele>
        <time>2018-05-11T14:07:46Z</time>
      </trkpt>
      <trkpt lat="42.83186" lon="0.16122">
        <ele>2029.86</ele>
        <time>2018-05-11T14:07:47Z</time>
      </trkpt>
      <trkpt lat="42.83185" lon="0.16124">
        <ele>2029.53</ele>
        <time>2018-05-11T14:07:48Z</time>
      </trkpt>
      <trkpt lat="42.83184" lon="0.16125">
        <ele>2029.27</ele>
        <time>2018-05-11T14:07:49Z</time>
      </trkpt>
      <trkpt lat="42.83184" lon="0.16127">
        <ele>2029.08</ele>
        <time>2018-05-11T14:07:50Z</time>
      </trkpt>
      <trkpt lat="42.83183" lon="0.16129">
        <ele>2029.05</ele>
        <time>2018-05-11T14:07:51Z</time>
      </trkpt>
      <trkpt lat="42.83183" lon="0.16131">
        <ele>2029.03</ele>
        <time>2018-05-11T14:07:52Z</time>
      </trkpt>
      <trkpt lat="42.83182" lon="0.16133">
        <ele>2028.54</ele>
        <time>2018-05-11T14:07:53Z</time>
      </trkpt>
      <trkpt lat="42.83181" lon="0.16134">
        <ele>2028.32</ele>
        <time>2018-05-11T14:07:54Z</time>
      </trkpt>
      <trkpt lat="42.83181" lon="0.16136">
        <ele>2028.13</ele>
        <time>2018-05-11T14:07:55Z</time>
      </trkpt>
      <trkpt lat="42.8318" lon="0.16138">
        <ele>2027.84</ele>
        <time>2018-05-11T14:07:56Z</time>
      </trkpt>
      <trkpt lat="42.83179" lon="0.16141">
        <ele>2027.34</ele>
        <time>2018-05-11T14:07:58Z</time>
      </trkpt>
      <trkpt lat="42.83176" lon="0.16147">
        <ele>2026.67</ele>
        <time>2018-05-11T14:08:02Z</time>
      </trkpt>
      <trkpt lat="42.83175" lon="0.16149">
        <ele>2026.8</ele>
        <time>2018-05-11T14:08:03Z</time>
      </trkpt>
      <trkpt lat="42.83175" lon="0.16151">
        <ele>2026.65</ele>
        <time>2018-05-11T14:08:04Z</time>
      </trkpt>
      <trkpt lat="42.83174" lon="0.16152">
        <ele>2026.63</ele>
        <time>2018-05-11T14:08:05Z</time>
      </trkpt>
      <trkpt lat="42.83173" lon="0.16153">
        <ele>2026.1</ele>
        <time>2018-05-11T14:08:06Z</time>
      </trkpt>
      <trkpt lat="42.83165" lon="0.16174">
        <ele>2024.01</ele>
        <time>2018-05-11T14:08:20Z</time>
      </trkpt>
      <trkpt lat="42.83163" lon="0.16182">
        <ele>2023.65</ele>
        <time>2018-05-11T14:08:26Z</time>
      </trkpt>
      <trkpt lat="42.83155" lon="0.16199">
        <ele>2021.65</ele>
        <time>2018-05-11T14:08:39Z</time>
      </trkpt>
      <trkpt lat="42.83152" lon="0.16209">
        <ele>2021.08</ele>
        <time>2018-05-11T14:08:46Z</time>
      </trkpt>
      <trkpt lat="42.83146" lon="0.16226">
        <ele>2019.3</ele>
        <time>2018-05-11T14:08:57Z</time>
      </trkpt>
      <trkpt lat="42.83145" lon="0.16229">
        <ele>2018.93</ele>
        <time>2018-05-11T14:08:59Z</time>
      </trkpt>
      <trkpt lat="42.83143" lon="0.16233">
        <ele>2018.78</ele>
        <time>2018-05-11T14:09:02Z</time>
      </trkpt>
      <trkpt lat="42.83139" lon="0.16249">
        <ele>2017.21</ele>
        <time>2018-05-11T14:09:12Z</time>
      </trkpt>
      <trkpt lat="42.83136" lon="0.16257">
        <ele>2016.81</ele>
        <time>2018-05-11T14:09:17Z</time>
      </trkpt>
      <trkpt lat="42.83135" lon="0.16259">
        <ele>2016.73</ele>
        <time>2018-05-11T14:09:18Z</time>
      </trkpt>
      <trkpt lat="42.83134" lon="0.16261">
        <ele>2016.45</ele>
        <time>2018-05-11T14:09:19Z</time>
      </trkpt>
      <trkpt lat="42.83133" lon="0.16264">
        <ele>2016.23</ele>
        <time>2018-05-11T14:09:21Z</time>
      </trkpt>
      <trkpt lat="42.8313" lon="0.16276">
        <ele>2015.24</ele>
        <time>2018-05-11T14:09:28Z</time>
      </trkpt>
      <trkpt lat="42.83124" lon="0.16293">
        <ele>2013.38</ele>
        <time>2018-05-11T14:09:38Z</time>
      </trkpt>
      <trkpt lat="42.83123" lon="0.16294">
        <ele>2013.16</ele>
        <time>2018-05-11T14:09:39Z</time>
      </trkpt>
      <trkpt lat="42.83118" lon="0.1631">
        <ele>2011.48</ele>
        <time>2018-05-11T14:09:50Z</time>
      </trkpt>
      <trkpt lat="42.83118" lon="0.16312">
        <ele>2011.24</ele>
        <time>2018-05-11T14:09:51Z</time>
      </trkpt>
      <trkpt lat="42.83113" lon="0.16328">
        <ele>2010.12</ele>
        <time>2018-05-11T14:10:01Z</time>
      </trkpt>
      <trkpt lat="42.83112" lon="0.16329">
        <ele>2009.59</ele>
        <time>2018-05-11T14:10:02Z</time>
      </trkpt>
      <trkpt lat="42.83112" lon="0.1633">
        <ele>2008.95</ele>
        <time>2018-05-11T14:10:03Z</time>
      </trkpt>
      <trkpt lat="42.8311" lon="0.16336">
        <ele>2008.61</ele>
        <time>2018-05-11T14:10:07Z</time>
      </trkpt>
      <trkpt lat="42.8311" lon="0.16338">
        <ele>2008.46</ele>
        <time>2018-05-11T14:10:08Z</time>
      </trkpt>
      <trkpt lat="42.83109" lon="0.1634">
        <ele>2008.35</ele>
        <time>2018-05-11T14:10:09Z</time>
      </trkpt>
      <trkpt lat="42.83109" lon="0.16341">
        <ele>2008.12</ele>
        <time>2018-05-11T14:10:10Z</time>
      </trkpt>
      <trkpt lat="42.83109" lon="0.16343">
        <ele>2008.48</ele>
        <time>2018-05-11T14:10:11Z</time>
      </trkpt>
      <trkpt lat="42.83108" lon="0.16348">
        <ele>2007.62</ele>
        <time>2018-05-11T14:10:15Z</time>
      </trkpt>
      <trkpt lat="42.83108" lon="0.1635">
        <ele>2007.5</ele>
        <time>2018-05-11T14:10:16Z</time>
      </trkpt>
      <trkpt lat="42.83108" lon="0.16352">
        <ele>2007.45</ele>
        <time>2018-05-11T14:10:17Z</time>
      </trkpt>
      <trkpt lat="42.83107" lon="0.16354">
        <ele>2007.56</ele>
        <time>2018-05-11T14:10:18Z</time>
      </trkpt>
      <trkpt lat="42.83107" lon="0.16355">
        <ele>2007.11</ele>
        <time>2018-05-11T14:10:19Z</time>
      </trkpt>
      <trkpt lat="42.83107" lon="0.16357">
        <ele>2006.94</ele>
        <time>2018-05-11T14:10:20Z</time>
      </trkpt>
      <trkpt lat="42.83106" lon="0.16359">
        <ele>2006.68</ele>
        <time>2018-05-11T14:10:21Z</time>
      </trkpt>
      <trkpt lat="42.83106" lon="0.16363">
        <ele>2006.63</ele>
        <time>2018-05-11T14:10:23Z</time>
      </trkpt>
      <trkpt lat="42.83106" lon="0.16365">
        <ele>2006.07</ele>
        <time>2018-05-11T14:10:24Z</time>
      </trkpt>
      <trkpt lat="42.83105" lon="0.16367">
        <ele>2006.47</ele>
        <time>2018-05-11T14:10:25Z</time>
      </trkpt>
      <trkpt lat="42.83105" lon="0.16371">
        <ele>2005.78</ele>
        <time>2018-05-11T14:10:28Z</time>
      </trkpt>
      <trkpt lat="42.83105" lon="0.16373">
        <ele>2005.52</ele>
        <time>2018-05-11T14:10:29Z</time>
      </trkpt>
      <trkpt lat="42.83104" lon="0.16374">
        <ele>2005.07</ele>
        <time>2018-05-11T14:10:30Z</time>
      </trkpt>
      <trkpt lat="42.83104" lon="0.16376">
        <ele>2005.32</ele>
        <time>2018-05-11T14:10:31Z</time>
      </trkpt>
      <trkpt lat="42.83104" lon="0.16378">
        <ele>2005.07</ele>
        <time>2018-05-11T14:10:32Z</time>
      </trkpt>
      <trkpt lat="42.83103" lon="0.16379">
        <ele>2004.88</ele>
        <time>2018-05-11T14:10:33Z</time>
      </trkpt>
      <trkpt lat="42.83102" lon="0.1638">
        <ele>2004.63</ele>
        <time>2018-05-11T14:10:34Z</time>
      </trkpt>
      <trkpt lat="42.83102" lon="0.16382">
        <ele>2005.01</ele>
        <time>2018-05-11T14:10:35Z</time>
      </trkpt>
      <trkpt lat="42.83102" lon="0.16384">
        <ele>2004.26</ele>
        <time>2018-05-11T14:10:36Z</time>
      </trkpt>
      <trkpt lat="42.83101" lon="0.16385">
        <ele>2004.04</ele>
        <time>2018-05-11T14:10:37Z</time>
      </trkpt>
      <trkpt lat="42.83101" lon="0.16387">
        <ele>2003.81</ele>
        <time>2018-05-11T14:10:38Z</time>
      </trkpt>
      <trkpt lat="42.83101" lon="0.16389">
        <ele>2003.58</ele>
        <time>2018-05-11T14:10:39Z</time>
      </trkpt>
      <trkpt lat="42.831" lon="0.16393">
        <ele>2003.32</ele>
        <time>2018-05-11T14:10:42Z</time>
      </trkpt>
      <trkpt lat="42.83099" lon="0.16395">
        <ele>2003.37</ele>
        <time>2018-05-11T14:10:43Z</time>
      </trkpt>
      <trkpt lat="42.83097" lon="0.16401">
        <ele>2002.24</ele>
        <time>2018-05-11T14:10:47Z</time>
      </trkpt>
      <trkpt lat="42.83096" lon="0.16402">
        <ele>2002.13</ele>
        <time>2018-05-11T14:10:48Z</time>
      </trkpt>
      <trkpt lat="42.83093" lon="0.16421">
        <ele>2000.13</ele>
        <time>2018-05-11T14:11:00Z</time>
      </trkpt>
      <trkpt lat="42.83092" lon="0.16422">
        <ele>1999.95</ele>
        <time>2018-05-11T14:11:01Z</time>
      </trkpt>
      <trkpt lat="42.83091" lon="0.16426">
        <ele>1999.8</ele>
        <time>2018-05-11T14:11:03Z</time>
      </trkpt>
      <trkpt lat="42.83091" lon="0.16427">
        <ele>2000.12</ele>
        <time>2018-05-11T14:11:04Z</time>
      </trkpt>
      <trkpt lat="42.83091" lon="0.16429">
        <ele>1999.94</ele>
        <time>2018-05-11T14:11:05Z</time>
      </trkpt>
      <trkpt lat="42.83087" lon="0.1644">
        <ele>1998.11</ele>
        <time>2018-05-11T14:11:12Z</time>
      </trkpt>
      <trkpt lat="42.83086" lon="0.16442">
        <ele>1998.15</ele>
        <time>2018-05-11T14:11:13Z</time>
      </trkpt>
      <trkpt lat="42.83086" lon="0.16445">
        <ele>1997.34</ele>
        <time>2018-05-11T14:11:15Z</time>
      </trkpt>
      <trkpt lat="42.83085" lon="0.16447">
        <ele>1997.53</ele>
        <time>2018-05-11T14:11:16Z</time>
      </trkpt>
      <trkpt lat="42.83085" lon="0.16449">
        <ele>1997.31</ele>
        <time>2018-05-11T14:11:17Z</time>
      </trkpt>
      <trkpt lat="42.8308" lon="0.16474">
        <ele>1995.44</ele>
        <time>2018-05-11T14:11:32Z</time>
      </trkpt>
      <trkpt lat="42.8308" lon="0.16479">
        <ele>1994.73</ele>
        <time>2018-05-11T14:11:35Z</time>
      </trkpt>
      <trkpt lat="42.8308" lon="0.1648">
        <ele>1995.33</ele>
        <time>2018-05-11T14:11:36Z</time>
      </trkpt>
      <trkpt lat="42.83079" lon="0.16482">
        <ele>1995.22</ele>
        <time>2018-05-11T14:11:37Z</time>
      </trkpt>
      <trkpt lat="42.83079" lon="0.16484">
        <ele>1995</ele>
        <time>2018-05-11T14:11:38Z</time>
      </trkpt>
      <trkpt lat="42.83078" lon="0.16485">
        <ele>1995.06</ele>
        <time>2018-05-11T14:11:39Z</time>
      </trkpt>
      <trkpt lat="42.83077" lon="0.16487">
        <ele>1994.81</ele>
        <time>2018-05-11T14:11:40Z</time>
      </trkpt>
      <trkpt lat="42.83077" lon="0.16489">
        <ele>1994.5</ele>
        <time>2018-05-11T14:11:41Z</time>
      </trkpt>
      <trkpt lat="42.83077" lon="0.1649">
        <ele>1994.25</ele>
        <time>2018-05-11T14:11:42Z</time>
      </trkpt>
      <trkpt lat="42.83077" lon="0.16492">
        <ele>1994.48</ele>
        <time>2018-05-11T14:11:43Z</time>
      </trkpt>
      <trkpt lat="42.83076" lon="0.16493">
        <ele>1994.36</ele>
        <time>2018-05-11T14:11:44Z</time>
      </trkpt>
      <trkpt lat="42.83076" lon="0.16495">
        <ele>1994.26</ele>
        <time>2018-05-11T14:11:45Z</time>
      </trkpt>
      <trkpt lat="42.83076" lon="0.16497">
        <ele>1994.08</ele>
        <time>2018-05-11T14:11:46Z</time>
      </trkpt>
      <trkpt lat="42.83076" lon="0.16498">
        <ele>1993.85</ele>
        <time>2018-05-11T14:11:47Z</time>
      </trkpt>
      <trkpt lat="42.83074" lon="0.16504">
        <ele>1993.16</ele>
        <time>2018-05-11T14:11:50Z</time>
      </trkpt>
      <trkpt lat="42.83074" lon="0.16506">
        <ele>1993.2</ele>
        <time>2018-05-11T14:11:51Z</time>
      </trkpt>
      <trkpt lat="42.83074" lon="0.16508">
        <ele>1993.02</ele>
        <time>2018-05-11T14:11:52Z</time>
      </trkpt>
      <trkpt lat="42.83067" lon="0.16532">
        <ele>1990.61</ele>
        <time>2018-05-11T14:12:06Z</time>
      </trkpt>
      <trkpt lat="42.83066" lon="0.16534">
        <ele>1990.59</ele>
        <time>2018-05-11T14:12:07Z</time>
      </trkpt>
      <trkpt lat="42.83066" lon="0.16535">
        <ele>1990.71</ele>
        <time>2018-05-11T14:12:08Z</time>
      </trkpt>
      <trkpt lat="42.83065" lon="0.16537">
        <ele>1990.63</ele>
        <time>2018-05-11T14:12:09Z</time>
      </trkpt>
      <trkpt lat="42.83065" lon="0.16538">
        <ele>1990.33</ele>
        <time>2018-05-11T14:12:10Z</time>
      </trkpt>
      <trkpt lat="42.83064" lon="0.1654">
        <ele>1990.3</ele>
        <time>2018-05-11T14:12:11Z</time>
      </trkpt>
      <trkpt lat="42.83064" lon="0.16542">
        <ele>1990.06</ele>
        <time>2018-05-11T14:12:12Z</time>
      </trkpt>
      <trkpt lat="42.83064" lon="0.16543">
        <ele>1989.57</ele>
        <time>2018-05-11T14:12:13Z</time>
      </trkpt>
      <trkpt lat="42.83063" lon="0.16545">
        <ele>1989.54</ele>
        <time>2018-05-11T14:12:14Z</time>
      </trkpt>
      <trkpt lat="42.83063" lon="0.16547">
        <ele>1989.43</ele>
        <time>2018-05-11T14:12:15Z</time>
      </trkpt>
      <trkpt lat="42.83063" lon="0.16549">
        <ele>1989.25</ele>
        <time>2018-05-11T14:12:16Z</time>
      </trkpt>
      <trkpt lat="42.83062" lon="0.1655">
        <ele>1988.81</ele>
        <time>2018-05-11T14:12:17Z</time>
      </trkpt>
      <trkpt lat="42.83062" lon="0.16552">
        <ele>1988.61</ele>
        <time>2018-05-11T14:12:18Z</time>
      </trkpt>
      <trkpt lat="42.83061" lon="0.16553">
        <ele>1988.68</ele>
        <time>2018-05-11T14:12:19Z</time>
      </trkpt>
      <trkpt lat="42.83061" lon="0.16554">
        <ele>1989.03</ele>
        <time>2018-05-11T14:12:20Z</time>
      </trkpt>
      <trkpt lat="42.8306" lon="0.16556">
        <ele>1988.54</ele>
        <time>2018-05-11T14:12:21Z</time>
      </trkpt>
      <trkpt lat="42.8306" lon="0.16557">
        <ele>1988.13</ele>
        <time>2018-05-11T14:12:22Z</time>
      </trkpt>
      <trkpt lat="42.83059" lon="0.16559">
        <ele>1988.35</ele>
        <time>2018-05-11T14:12:23Z</time>
      </trkpt>
      <trkpt lat="42.83058" lon="0.16561">
        <ele>1987.93</ele>
        <time>2018-05-11T14:12:24Z</time>
      </trkpt>
      <trkpt lat="42.83057" lon="0.16563">
        <ele>1988.29</ele>
        <time>2018-05-11T14:12:25Z</time>
      </trkpt>
      <trkpt lat="42.83057" lon="0.16564">
        <ele>1988.37</ele>
        <time>2018-05-11T14:12:26Z</time>
      </trkpt>
      <trkpt lat="42.83056" lon="0.16566">
        <ele>1987.72</ele>
        <time>2018-05-11T14:12:27Z</time>
      </trkpt>
      <trkpt lat="42.83056" lon="0.16568">
        <ele>1987.39</ele>
        <time>2018-05-11T14:12:28Z</time>
      </trkpt>
      <trkpt lat="42.83054" lon="0.16574">
        <ele>1986.6</ele>
        <time>2018-05-11T14:12:32Z</time>
      </trkpt>
      <trkpt lat="42.83054" lon="0.16576">
        <ele>1986.85</ele>
        <time>2018-05-11T14:12:33Z</time>
      </trkpt>
      <trkpt lat="42.83053" lon="0.16578">
        <ele>1986.54</ele>
        <time>2018-05-11T14:12:34Z</time>
      </trkpt>
      <trkpt lat="42.83053" lon="0.1658">
        <ele>1987.07</ele>
        <time>2018-05-11T14:12:35Z</time>
      </trkpt>
      <trkpt lat="42.83054" lon="0.16582">
        <ele>1986.68</ele>
        <time>2018-05-11T14:12:36Z</time>
      </trkpt>
      <trkpt lat="42.83054" lon="0.16583">
        <ele>1986.67</ele>
        <time>2018-05-11T14:12:37Z</time>
      </trkpt>
      <trkpt lat="42.83054" lon="0.16585">
        <ele>1986.45</ele>
        <time>2018-05-11T14:12:38Z</time>
      </trkpt>
      <trkpt lat="42.83054" lon="0.16587">
        <ele>1985.47</ele>
        <time>2018-05-11T14:12:39Z</time>
      </trkpt>
      <trkpt lat="42.83056" lon="0.166">
        <ele>1984.58</ele>
        <time>2018-05-11T14:12:49Z</time>
      </trkpt>
      <trkpt lat="42.83058" lon="0.16618">
        <ele>1983.59</ele>
        <time>2018-05-11T14:13:00Z</time>
      </trkpt>
      <trkpt lat="42.83059" lon="0.16625">
        <ele>1982.95</ele>
        <time>2018-05-11T14:13:04Z</time>
      </trkpt>
      <trkpt lat="42.83059" lon="0.16649">
        <ele>1980.86</ele>
        <time>2018-05-11T14:13:17Z</time>
      </trkpt>
      <trkpt lat="42.83059" lon="0.16651">
        <ele>1980.77</ele>
        <time>2018-05-11T14:13:18Z</time>
      </trkpt>
      <trkpt lat="42.83059" lon="0.16653">
        <ele>1980.61</ele>
        <time>2018-05-11T14:13:19Z</time>
      </trkpt>
      <trkpt lat="42.83059" lon="0.16655">
        <ele>1980.76</ele>
        <time>2018-05-11T14:13:20Z</time>
      </trkpt>
      <trkpt lat="42.83058" lon="0.16656">
        <ele>1980.99</ele>
        <time>2018-05-11T14:13:21Z</time>
      </trkpt>
      <trkpt lat="42.83058" lon="0.16676">
        <ele>1979.23</ele>
        <time>2018-05-11T14:13:32Z</time>
      </trkpt>
      <trkpt lat="42.83059" lon="0.16698">
        <ele>1976.87</ele>
        <time>2018-05-11T14:13:46Z</time>
      </trkpt>
      <trkpt lat="42.8306" lon="0.167">
        <ele>1976.34</ele>
        <time>2018-05-11T14:13:47Z</time>
      </trkpt>
      <trkpt lat="42.8306" lon="0.16702">
        <ele>1976.69</ele>
        <time>2018-05-11T14:13:48Z</time>
      </trkpt>
      <trkpt lat="42.8306" lon="0.16712">
        <ele>1975.85</ele>
        <time>2018-05-11T14:13:54Z</time>
      </trkpt>
      <trkpt lat="42.8306" lon="0.16714">
        <ele>1975.79</ele>
        <time>2018-05-11T14:13:55Z</time>
      </trkpt>
      <trkpt lat="42.83061" lon="0.16715">
        <ele>1975.36</ele>
        <time>2018-05-11T14:13:56Z</time>
      </trkpt>
      <trkpt lat="42.83061" lon="0.16717">
        <ele>1975.25</ele>
        <time>2018-05-11T14:13:57Z</time>
      </trkpt>
      <trkpt lat="42.83061" lon="0.16718">
        <ele>1975.15</ele>
        <time>2018-05-11T14:13:58Z</time>
      </trkpt>
      <trkpt lat="42.83063" lon="0.16726">
        <ele>1974.86</ele>
        <time>2018-05-11T14:14:03Z</time>
      </trkpt>
      <trkpt lat="42.83063" lon="0.16728">
        <ele>1974.55</ele>
        <time>2018-05-11T14:14:04Z</time>
      </trkpt>
      <trkpt lat="42.83063" lon="0.1673">
        <ele>1974.21</ele>
        <time>2018-05-11T14:14:05Z</time>
      </trkpt>
      <trkpt lat="42.83063" lon="0.16732">
        <ele>1973.85</ele>
        <time>2018-05-11T14:14:06Z</time>
      </trkpt>
      <trkpt lat="42.83063" lon="0.16734">
        <ele>1974.1</ele>
        <time>2018-05-11T14:14:07Z</time>
      </trkpt>
      <trkpt lat="42.83064" lon="0.16736">
        <ele>1974.08</ele>
        <time>2018-05-11T14:14:08Z</time>
      </trkpt>
      <trkpt lat="42.83064" lon="0.16738">
        <ele>1973.44</ele>
        <time>2018-05-11T14:14:09Z</time>
      </trkpt>
      <trkpt lat="42.83064" lon="0.16739">
        <ele>1973.63</ele>
        <time>2018-05-11T14:14:10Z</time>
      </trkpt>
      <trkpt lat="42.83065" lon="0.16744">
        <ele>1973.49</ele>
        <time>2018-05-11T14:14:13Z</time>
      </trkpt>
      <trkpt lat="42.83065" lon="0.16746">
        <ele>1973.42</ele>
        <time>2018-05-11T14:14:14Z</time>
      </trkpt>
      <trkpt lat="42.83067" lon="0.16766">
        <ele>1971.73</ele>
        <time>2018-05-11T14:14:25Z</time>
      </trkpt>
      <trkpt lat="42.83066" lon="0.16788">
        <ele>1970.43</ele>
        <time>2018-05-11T14:14:38Z</time>
      </trkpt>
      <trkpt lat="42.83066" lon="0.16805">
        <ele>1969.34</ele>
        <time>2018-05-11T14:14:47Z</time>
      </trkpt>
      <trkpt lat="42.83066" lon="0.16807">
        <ele>1969.63</ele>
        <time>2018-05-11T14:14:48Z</time>
      </trkpt>
      <trkpt lat="42.83067" lon="0.16822">
        <ele>1968.49</ele>
        <time>2018-05-11T14:14:56Z</time>
      </trkpt>
      <trkpt lat="42.83066" lon="0.16832">
        <ele>1968.26</ele>
        <time>2018-05-11T14:15:02Z</time>
      </trkpt>
      <trkpt lat="42.83066" lon="0.16834">
        <ele>1968.73</ele>
        <time>2018-05-11T14:15:03Z</time>
      </trkpt>
      <trkpt lat="42.83066" lon="0.16836">
        <ele>1968.05</ele>
        <time>2018-05-11T14:15:04Z</time>
      </trkpt>
      <trkpt lat="42.83066" lon="0.16838">
        <ele>1968.07</ele>
        <time>2018-05-11T14:15:05Z</time>
      </trkpt>
      <trkpt lat="42.83066" lon="0.16839">
        <ele>1967.83</ele>
        <time>2018-05-11T14:15:06Z</time>
      </trkpt>
      <trkpt lat="42.83066" lon="0.16841">
        <ele>1967.49</ele>
        <time>2018-05-11T14:15:07Z</time>
      </trkpt>
      <trkpt lat="42.83066" lon="0.16844">
        <ele>1967.47</ele>
        <time>2018-05-11T14:15:08Z</time>
      </trkpt>
      <trkpt lat="42.83066" lon="0.16846">
        <ele>1967.57</ele>
        <time>2018-05-11T14:15:09Z</time>
      </trkpt>
      <trkpt lat="42.83066" lon="0.16848">
        <ele>1967.11</ele>
        <time>2018-05-11T14:15:10Z</time>
      </trkpt>
      <trkpt lat="42.83066" lon="0.16851">
        <ele>1967.09</ele>
        <time>2018-05-11T14:15:12Z</time>
      </trkpt>
      <trkpt lat="42.83066" lon="0.16853">
        <ele>1967</ele>
        <time>2018-05-11T14:15:13Z</time>
      </trkpt>
      <trkpt lat="42.83065" lon="0.16854">
        <ele>1966.99</ele>
        <time>2018-05-11T14:15:14Z</time>
      </trkpt>
      <trkpt lat="42.83065" lon="0.16856">
        <ele>1967.32</ele>
        <time>2018-05-11T14:15:15Z</time>
      </trkpt>
      <trkpt lat="42.83065" lon="0.16858">
        <ele>1966.87</ele>
        <time>2018-05-11T14:15:16Z</time>
      </trkpt>
      <trkpt lat="42.83065" lon="0.1686">
        <ele>1966.76</ele>
        <time>2018-05-11T14:15:17Z</time>
      </trkpt>
      <trkpt lat="42.83065" lon="0.16862">
        <ele>1967.18</ele>
        <time>2018-05-11T14:15:18Z</time>
      </trkpt>
      <trkpt lat="42.83065" lon="0.16864">
        <ele>1967.05</ele>
        <time>2018-05-11T14:15:19Z</time>
      </trkpt>
      <trkpt lat="42.83064" lon="0.16866">
        <ele>1966.93</ele>
        <time>2018-05-11T14:15:20Z</time>
      </trkpt>
      <trkpt lat="42.83064" lon="0.16868">
        <ele>1966.54</ele>
        <time>2018-05-11T14:15:21Z</time>
      </trkpt>
      <trkpt lat="42.83064" lon="0.1687">
        <ele>1966.58</ele>
        <time>2018-05-11T14:15:22Z</time>
      </trkpt>
      <trkpt lat="42.83064" lon="0.16872">
        <ele>1965.96</ele>
        <time>2018-05-11T14:15:23Z</time>
      </trkpt>
      <trkpt lat="42.83063" lon="0.16874">
        <ele>1965.93</ele>
        <time>2018-05-11T14:15:24Z</time>
      </trkpt>
      <trkpt lat="42.83061" lon="0.16894">
        <ele>1965.34</ele>
        <time>2018-05-11T14:15:36Z</time>
      </trkpt>
      <trkpt lat="42.83061" lon="0.16896">
        <ele>1965.2</ele>
        <time>2018-05-11T14:15:37Z</time>
      </trkpt>
      <trkpt lat="42.8306" lon="0.16898">
        <ele>1964.84</ele>
        <time>2018-05-11T14:15:38Z</time>
      </trkpt>
      <trkpt lat="42.8306" lon="0.16902">
        <ele>1964.74</ele>
        <time>2018-05-11T14:15:41Z</time>
      </trkpt>
      <trkpt lat="42.8306" lon="0.16904">
        <ele>1964.81</ele>
        <time>2018-05-11T14:15:42Z</time>
      </trkpt>
      <trkpt lat="42.83059" lon="0.16906">
        <ele>1964.83</ele>
        <time>2018-05-11T14:15:43Z</time>
      </trkpt>
      <trkpt lat="42.83058" lon="0.16907">
        <ele>1965.13</ele>
        <time>2018-05-11T14:15:44Z</time>
      </trkpt>
      <trkpt lat="42.83056" lon="0.16923">
        <ele>1964.38</ele>
        <time>2018-05-11T14:15:54Z</time>
      </trkpt>
      <trkpt lat="42.83056" lon="0.16925">
        <ele>1963.89</ele>
        <time>2018-05-11T14:15:55Z</time>
      </trkpt>
      <trkpt lat="42.83055" lon="0.16929">
        <ele>1964.03</ele>
        <time>2018-05-11T14:15:57Z</time>
      </trkpt>
      <trkpt lat="42.83054" lon="0.16951">
        <ele>1962.96</ele>
        <time>2018-05-11T14:16:08Z</time>
      </trkpt>
      <trkpt lat="42.83051" lon="0.16972">
        <ele>1961.64</ele>
        <time>2018-05-11T14:16:21Z</time>
      </trkpt>
      <trkpt lat="42.83051" lon="0.16974">
        <ele>1961.62</ele>
        <time>2018-05-11T14:16:22Z</time>
      </trkpt>
      <trkpt lat="42.8305" lon="0.16996">
        <ele>1960.38</ele>
        <time>2018-05-11T14:16:35Z</time>
      </trkpt>
      <trkpt lat="42.83049" lon="0.16999">
        <ele>1959.65</ele>
        <time>2018-05-11T14:16:37Z</time>
      </trkpt>
      <trkpt lat="42.83049" lon="0.17001">
        <ele>1959.76</ele>
        <time>2018-05-11T14:16:38Z</time>
      </trkpt>
      <trkpt lat="42.83048" lon="0.17003">
        <ele>1959.65</ele>
        <time>2018-05-11T14:16:39Z</time>
      </trkpt>
      <trkpt lat="42.83048" lon="0.17004">
        <ele>1959.47</ele>
        <time>2018-05-11T14:16:40Z</time>
      </trkpt>
      <trkpt lat="42.83047" lon="0.17007">
        <ele>1959.52</ele>
        <time>2018-05-11T14:16:42Z</time>
      </trkpt>
      <trkpt lat="42.83041" lon="0.1703">
        <ele>1957.6</ele>
        <time>2018-05-11T14:16:56Z</time>
      </trkpt>
      <trkpt lat="42.83039" lon="0.17038">
        <ele>1957.21</ele>
        <time>2018-05-11T14:17:01Z</time>
      </trkpt>
      <trkpt lat="42.83039" lon="0.17039">
        <ele>1956.9</ele>
        <time>2018-05-11T14:17:02Z</time>
      </trkpt>
      <trkpt lat="42.83038" lon="0.17041">
        <ele>1956.87</ele>
        <time>2018-05-11T14:17:03Z</time>
      </trkpt>
      <trkpt lat="42.83036" lon="0.17054">
        <ele>1955.72</ele>
        <time>2018-05-11T14:17:11Z</time>
      </trkpt>
      <trkpt lat="42.83036" lon="0.17056">
        <ele>1955.63</ele>
        <time>2018-05-11T14:17:12Z</time>
      </trkpt>
      <trkpt lat="42.83035" lon="0.17057">
        <ele>1955.44</ele>
        <time>2018-05-11T14:17:13Z</time>
      </trkpt>
      <trkpt lat="42.83033" lon="0.17068">
        <ele>1954.76</ele>
        <time>2018-05-11T14:17:20Z</time>
      </trkpt>
      <trkpt lat="42.83032" lon="0.1707">
        <ele>1954.55</ele>
        <time>2018-05-11T14:17:21Z</time>
      </trkpt>
      <trkpt lat="42.83031" lon="0.17072">
        <ele>1954.6</ele>
        <time>2018-05-11T14:17:22Z</time>
      </trkpt>
      <trkpt lat="42.83031" lon="0.17073">
        <ele>1954.96</ele>
        <time>2018-05-11T14:17:23Z</time>
      </trkpt>
      <trkpt lat="42.8303" lon="0.17075">
        <ele>1954.4</ele>
        <time>2018-05-11T14:17:24Z</time>
      </trkpt>
      <trkpt lat="42.8303" lon="0.17076">
        <ele>1953.9</ele>
        <time>2018-05-11T14:17:25Z</time>
      </trkpt>
      <trkpt lat="42.83029" lon="0.17078">
        <ele>1954.25</ele>
        <time>2018-05-11T14:17:26Z</time>
      </trkpt>
      <trkpt lat="42.8302" lon="0.17098">
        <ele>1952.37</ele>
        <time>2018-05-11T14:17:39Z</time>
      </trkpt>
      <trkpt lat="42.83017" lon="0.17104">
        <ele>1952.08</ele>
        <time>2018-05-11T14:17:43Z</time>
      </trkpt>
      <trkpt lat="42.83016" lon="0.17105">
        <ele>1951.94</ele>
        <time>2018-05-11T14:17:44Z</time>
      </trkpt>
      <trkpt lat="42.83015" lon="0.17107">
        <ele>1951.77</ele>
        <time>2018-05-11T14:17:45Z</time>
      </trkpt>
      <trkpt lat="42.83014" lon="0.17109">
        <ele>1951.71</ele>
        <time>2018-05-11T14:17:46Z</time>
      </trkpt>
      <trkpt lat="42.83013" lon="0.17111">
        <ele>1951.84</ele>
        <time>2018-05-11T14:17:47Z</time>
      </trkpt>
      <trkpt lat="42.83012" lon="0.17112">
        <ele>1951.39</ele>
        <time>2018-05-11T14:17:48Z</time>
      </trkpt>
      <trkpt lat="42.83011" lon="0.17114">
        <ele>1951.44</ele>
        <time>2018-05-11T14:17:49Z</time>
      </trkpt>
      <trkpt lat="42.8301" lon="0.17115">
        <ele>1951.09</ele>
        <time>2018-05-11T14:17:50Z</time>
      </trkpt>
      <trkpt lat="42.83009" lon="0.17117">
        <ele>1950.49</ele>
        <time>2018-05-11T14:17:51Z</time>
      </trkpt>
      <trkpt lat="42.82992" lon="0.17132">
        <ele>1948.72</ele>
        <time>2018-05-11T14:18:05Z</time>
      </trkpt>
      <trkpt lat="42.82978" lon="0.17144">
        <ele>1947.74</ele>
        <time>2018-05-11T14:18:16Z</time>
      </trkpt>
      <trkpt lat="42.82977" lon="0.17145">
        <ele>1947.46</ele>
        <time>2018-05-11T14:18:17Z</time>
      </trkpt>
      <trkpt lat="42.82975" lon="0.17146">
        <ele>1947.35</ele>
        <time>2018-05-11T14:18:18Z</time>
      </trkpt>
      <trkpt lat="42.82974" lon="0.17147">
        <ele>1947.36</ele>
        <time>2018-05-11T14:18:19Z</time>
      </trkpt>
      <trkpt lat="42.82973" lon="0.17148">
        <ele>1947.18</ele>
        <time>2018-05-11T14:18:20Z</time>
      </trkpt>
      <trkpt lat="42.82959" lon="0.17162">
        <ele>1945.14</ele>
        <time>2018-05-11T14:18:31Z</time>
      </trkpt>
      <trkpt lat="42.82951" lon="0.17169">
        <ele>1944.41</ele>
        <time>2018-05-11T14:18:38Z</time>
      </trkpt>
      <trkpt lat="42.8295" lon="0.1717">
        <ele>1944.29</ele>
        <time>2018-05-11T14:18:39Z</time>
      </trkpt>
      <trkpt lat="42.82948" lon="0.17171">
        <ele>1944.1</ele>
        <time>2018-05-11T14:18:40Z</time>
      </trkpt>
      <trkpt lat="42.82947" lon="0.17172">
        <ele>1944.16</ele>
        <time>2018-05-11T14:18:41Z</time>
      </trkpt>
      <trkpt lat="42.82946" lon="0.17173">
        <ele>1944.07</ele>
        <time>2018-05-11T14:18:42Z</time>
      </trkpt>
      <trkpt lat="42.82932" lon="0.17188">
        <ele>1942.06</ele>
        <time>2018-05-11T14:18:56Z</time>
      </trkpt>
      <trkpt lat="42.82926" lon="0.17188">
        <ele>1939.58</ele>
        <time>2018-05-11T14:19:09Z</time>
      </trkpt>
      <trkpt lat="42.82922" lon="0.17189">
        <ele>1937.75</ele>
        <time>2018-05-11T14:19:15Z</time>
      </trkpt>
      <trkpt lat="42.82921" lon="0.1719">
        <ele>1938.2</ele>
        <time>2018-05-11T14:19:16Z</time>
      </trkpt>
      <trkpt lat="42.82916" lon="0.17182">
        <ele>1934.69</ele>
        <time>2018-05-11T14:19:27Z</time>
      </trkpt>
      <trkpt lat="42.82912" lon="0.1718">
        <ele>1933.38</ele>
        <time>2018-05-11T14:19:32Z</time>
      </trkpt>
      <trkpt lat="42.82911" lon="0.1718">
        <ele>1933.98</ele>
        <time>2018-05-11T14:19:33Z</time>
      </trkpt>
      <trkpt lat="42.8291" lon="0.17179">
        <ele>1933.52</ele>
        <time>2018-05-11T14:19:34Z</time>
      </trkpt>
      <trkpt lat="42.82905" lon="0.1717">
        <ele>1930.2</ele>
        <time>2018-05-11T14:19:43Z</time>
      </trkpt>
      <trkpt lat="42.82903" lon="0.17167">
        <ele>1928.63</ele>
        <time>2018-05-11T14:19:49Z</time>
      </trkpt>
      <trkpt lat="42.829" lon="0.17165">
        <ele>1927.51</ele>
        <time>2018-05-11T14:19:53Z</time>
      </trkpt>
      <trkpt lat="42.82899" lon="0.17161">
        <ele>1925.8</ele>
        <time>2018-05-11T14:19:56Z</time>
      </trkpt>
      <trkpt lat="42.82898" lon="0.17159">
        <ele>1925.28</ele>
        <time>2018-05-11T14:19:58Z</time>
      </trkpt>
      <trkpt lat="42.82889" lon="0.17156">
        <ele>1921.88</ele>
        <time>2018-05-11T14:20:06Z</time>
      </trkpt>
      <trkpt lat="42.82886" lon="0.17156">
        <ele>1921.58</ele>
        <time>2018-05-11T14:20:08Z</time>
      </trkpt>
      <trkpt lat="42.82883" lon="0.17148">
        <ele>1919</ele>
        <time>2018-05-11T14:20:16Z</time>
      </trkpt>
      <trkpt lat="42.82881" lon="0.17146">
        <ele>1918.55</ele>
        <time>2018-05-11T14:20:18Z</time>
      </trkpt>
      <trkpt lat="42.82877" lon="0.1714">
        <ele>1916.72</ele>
        <time>2018-05-11T14:20:26Z</time>
      </trkpt>
      <trkpt lat="42.82873" lon="0.17141">
        <ele>1915.7</ele>
        <time>2018-05-11T14:20:29Z</time>
      </trkpt>
      <trkpt lat="42.82869" lon="0.17134">
        <ele>1913.28</ele>
        <time>2018-05-11T14:20:37Z</time>
      </trkpt>
      <trkpt lat="42.82867" lon="0.17132">
        <ele>1912.66</ele>
        <time>2018-05-11T14:20:39Z</time>
      </trkpt>
      <trkpt lat="42.82866" lon="0.1713">
        <ele>1911.65</ele>
        <time>2018-05-11T14:20:41Z</time>
      </trkpt>
      <trkpt lat="42.8286" lon="0.17121">
        <ele>1908.62</ele>
        <time>2018-05-11T14:20:50Z</time>
      </trkpt>
      <trkpt lat="42.82856" lon="0.17117">
        <ele>1906.65</ele>
        <time>2018-05-11T14:20:54Z</time>
      </trkpt>
      <trkpt lat="42.82855" lon="0.17116">
        <ele>1906.31</ele>
        <time>2018-05-11T14:20:55Z</time>
      </trkpt>
      <trkpt lat="42.82852" lon="0.17112">
        <ele>1904.36</ele>
        <time>2018-05-11T14:21:01Z</time>
      </trkpt>
      <trkpt lat="42.82849" lon="0.17106">
        <ele>1904.02</ele>
        <time>2018-05-11T14:21:05Z</time>
      </trkpt>
      <trkpt lat="42.82842" lon="0.17095">
        <ele>1901.77</ele>
        <time>2018-05-11T14:21:21Z</time>
      </trkpt>
      <trkpt lat="42.8284" lon="0.17091">
        <ele>1900.02</ele>
        <time>2018-05-11T14:21:26Z</time>
      </trkpt>
      <trkpt lat="42.82838" lon="0.17086">
        <ele>1899.5</ele>
        <time>2018-05-11T14:21:30Z</time>
      </trkpt>
      <trkpt lat="42.82834" lon="0.17075">
        <ele>1895.83</ele>
        <time>2018-05-11T14:21:42Z</time>
      </trkpt>
      <trkpt lat="42.82833" lon="0.17072">
        <ele>1893.71</ele>
        <time>2018-05-11T14:21:46Z</time>
      </trkpt>
      <trkpt lat="42.82834" lon="0.17063">
        <ele>1890.67</ele>
        <time>2018-05-11T14:22:00Z</time>
      </trkpt>
      <trkpt lat="42.8284" lon="0.17053">
        <ele>1890.23</ele>
        <time>2018-05-11T14:22:17Z</time>
      </trkpt>
      <trkpt lat="42.82841" lon="0.17047">
        <ele>1889.27</ele>
        <time>2018-05-11T14:22:39Z</time>
      </trkpt>
      <trkpt lat="42.8284" lon="0.17044">
        <ele>1889.52</ele>
        <time>2018-05-11T14:22:55Z</time>
      </trkpt>
      <trkpt lat="42.82837" lon="0.17039">
        <ele>1888.63</ele>
        <time>2018-05-11T14:23:08Z</time>
      </trkpt>
      <trkpt lat="42.82835" lon="0.17037">
        <ele>1885.91</ele>
        <time>2018-05-11T14:23:27Z</time>
      </trkpt>
      <trkpt lat="42.8283" lon="0.17034">
        <ele>1882.45</ele>
        <time>2018-05-11T14:23:40Z</time>
      </trkpt>
      <trkpt lat="42.82831" lon="0.17022">
        <ele>1879</ele>
        <time>2018-05-11T14:23:54Z</time>
      </trkpt>
      <trkpt lat="42.82827" lon="0.17012">
        <ele>1878.71</ele>
        <time>2018-05-11T14:24:01Z</time>
      </trkpt>
      <trkpt lat="42.82815" lon="0.17">
        <ele>1877.9</ele>
        <time>2018-05-11T14:24:14Z</time>
      </trkpt>
      <trkpt lat="42.82813" lon="0.16988">
        <ele>1877.89</ele>
        <time>2018-05-11T14:24:20Z</time>
      </trkpt>
      <trkpt lat="42.82812" lon="0.16983">
        <ele>1877.36</ele>
        <time>2018-05-11T14:24:23Z</time>
      </trkpt>
      <trkpt lat="42.82808" lon="0.16972">
        <ele>1877.49</ele>
        <time>2018-05-11T14:24:30Z</time>
      </trkpt>
      <trkpt lat="42.82792" lon="0.1696">
        <ele>1876.72</ele>
        <time>2018-05-11T14:24:45Z</time>
      </trkpt>
      <trkpt lat="42.82791" lon="0.16959">
        <ele>1877.05</ele>
        <time>2018-05-11T14:25:01Z</time>
      </trkpt>
      <trkpt lat="42.82792" lon="0.16957">
        <ele>1877.04</ele>
        <time>2018-05-11T14:25:25Z</time>
      </trkpt>
    </trkseg>
  </trk>
</gpx>